[[[{"header":{"parameterUnit":"kt","parameterCategory":2,"dx":1,"dy":1,"la1":29.587661999999998,"la2":31.0,"lo1":-88.76705300000003,"lo2":-86.6583820000003,"nx":115,"ny":88,"refTime":"2022-09-30T06:00:00:Z","depth":0,"parameterNumber":1,"parameterNumberName":"U-component_of_WINDS"},"data":[5.3105,5.3105,5.3105,5.3105,5.3105,5.3105,5.2861,5.2608,5.2692,5.3314,5.4271,5.4899,5.5853,5.753,5.755,5.8009,5.9025,5.9992,6.0722,6.1199,6.2982,6.4708,6.5911,6.6436,6.7998,6.8912,6.9495,6.9958,6.9587,6.9773,6.9912,6.9145,6.9238,6.9285,6.9378,6.9378,6.9052,6.8841,6.7715,6.6196,6.4846,6.2723,5.9595,6.0165,6.2179,6.3334,6.4378,6.4943,6.4607,6.3475,6.1585,6.0439,6.0118,6.0118,6.0118,6.0118,6.0118,6.0118,6.0118,6.0118,6.0118,6.0118,6.0118,6.0118,6.0118,6.0118,6.0118,6.0118,6.0118,6.0118,6.0118,6.0118,6.0118,6.0118,6.0118,6.0118,6.0118,6.0118,6.0118,6.0118,6.0118,6.0118,6.0118,6.0118,6.0118,6.0118,6.0118,6.0118,6.0043,5.9456,5.8906,5.8392,5.7877,5.713,5.5651,5.0961,4.9121,4.7508,4.6019,4.5416,4.5884,4.7792,4.9344,5.0606,5.3405,5.5687,5.6092,5.586,5.6554,5.6727,5.7015,5.74,5.7992,5.8506,5.902,5.3105,5.3105,5.3105,5.3105,5.3105,5.3105,5.3229,5.3349,5.2947,5.3665,5.525,5.5959,5.6708,5.7326,5.755,5.7927,5.8386,5.9075,5.8923,5.9509,6.1,6.2365,6.3396,6.4126,6.5239,6.6268,6.7361,6.7857,6.8045,6.7927,6.7267,6.5623,6.5287,6.5406,6.531,6.5598,6.6507,6.6817,6.5505,6.3958,6.2534,6.0785,5.9504,5.9342,6.0207,6.1048,6.194,6.24,6.2266,6.151,6.104,6.0364,6.0156,6.0118,6.0118,6.0118,6.0118,6.0118,6.0118,6.0118,6.0118,6.0118,6.0118,6.0118,6.0118,6.0118,6.0118,6.0118,6.0118,6.0118,6.0118,6.0118,6.0118,6.0118,6.0118,6.0118,6.0118,6.0118,6.0118,6.0118,6.0118,6.0118,6.0118,6.0118,6.0118,6.0118,6.0118,6.0118,5.9986,5.9494,5.8963,5.8392,5.782,5.575,5.3697,5.1626,5.0783,4.9181,4.7867,4.7987,4.8226,4.8987,5.0294,5.2509,5.4123,5.5687,5.6341,5.6341,5.6341,5.6457,5.6785,5.7188,5.7762,5.8392,5.8849,5.3105,5.3105,5.3105,5.3105,5.3186,5.3496,5.3683,5.3774,5.4368,5.5375,5.6549,5.6617,5.6936,5.7499,5.755,5.7805,5.8253,5.8304,5.8304,5.8406,5.9459,6.0343,6.1298,6.2464,6.3151,6.444,6.5575,6.5911,6.5911,6.5767,6.5719,6.495,6.4682,6.4779,6.473,6.4682,6.5191,6.5719,6.3129,6.2267,6.2189,6.0263,5.881,5.8928,5.9422,6.0006,6.0853,6.1615,6.1361,6.0988,6.1071,6.07,6.0213,6.0099,6.0118,6.0118,6.0118,6.0118,6.0118,6.0118,6.0118,6.0118,6.0118,6.0118,6.0118,6.0118,6.0118,6.0118,6.0118,6.0118,6.0118,6.0118,6.0118,6.0118,6.0118,6.0118,6.0118,6.0118,6.0118,6.0118,6.0118,6.0118,6.0118,6.0118,6.0118,6.0118,6.0118,6.0118,6.0043,5.9797,5.9095,5.8468,5.782,5.6114,5.4047,5.2936,5.2156,5.0902,4.9419,4.9181,4.9002,4.9954,5.1315,5.358,5.5379,5.6092,5.615,5.6341,5.6341,5.6399,5.6687,5.7033,5.7648,5.8278,5.8735,5.3105,5.3105,5.3105,5.318,5.3442,5.4019,5.4264,5.4603,5.606,5.7055,5.7522,5.7294,5.7346,5.7774,5.7825,5.7927,5.8253,5.8304,5.8304,5.8406,5.8457,5.9429,6.0422,6.0572,6.1348,6.278,6.3613,6.3786,6.3786,6.3688,6.3613,6.2977,6.2633,6.2408,6.2408,6.2436,6.2829,6.3591,6.1546,6.0572,6.0643,5.9126,5.8324,5.8566,5.8827,5.935,5.9792,6.068,6.0608,6.0629,6.1148,6.0903,6.0307,6.0156,6.0118,6.0118,6.0118,6.0118,6.0118,6.0118,6.0118,6.0118,6.0118,6.0118,6.0118,6.0118,6.0118,6.0118,6.0118,6.0118,6.0118,6.0118,6.0118,6.0118,6.0118,6.0118,6.0118,6.0118,6.0118,6.0118,6.0118,6.0118,6.0118,6.0118,6.0118,6.0118,6.0118,6.0099,6.0043,5.9815,5.9116,5.8603,5.7918,5.6886,5.5344,5.4123,5.3288,5.2156,5.1921,5.0902,4.9835,5.1374,5.3229,5.5129,5.5228,5.4554,5.4321,5.5193,5.6096,5.6514,5.6727,5.713,5.7705,5.8335,5.8792,5.3105,5.3105,5.3105,5.3442,5.4052,5.428,5.5198,5.6746,5.758,5.8173,5.8182,5.8131,5.8029,5.808,5.8049,5.8151,5.8253,5.8304,5.8304,5.8304,5.8304,5.8457,5.8893,5.864,5.9509,5.9761,6.0443,6.1645,6.1695,6.1596,6.0821,5.8842,5.9247,5.9681,5.9882,5.9811,6.0493,6.122,6.0142,5.9075,5.8792,5.8609,5.8324,5.8344,5.8454,5.8541,5.8799,5.9062,5.9404,5.9913,6.0328,6.0308,6.0245,6.025,6.0156,6.0118,6.0118,6.0118,6.0118,6.0118,6.0118,6.0118,6.0118,6.0118,6.0118,6.0118,6.0118,6.0118,6.0118,6.0118,6.0118,6.0118,6.0118,6.0118,6.0118,6.0118,6.0118,6.0118,6.0118,6.0118,6.0118,6.0118,6.0118,6.0118,6.0118,6.0118,6.0118,6.0118,5.9986,5.9815,5.9325,5.889,5.7981,5.6974,5.5799,5.5129,5.4414,5.4472,5.4781,5.4006,5.245,5.3422,5.5147,5.3755,5.2433,5.2165,5.2802,5.3299,5.4191,5.5475,5.6785,5.7188,5.782,5.8506,5.8906,5.3105,5.3105,5.3105,5.322,5.3703,5.4642,5.6111,5.762,5.8143,5.8304,5.8253,5.7978,5.8029,5.8253,5.8029,5.8049,5.8304,5.8304,5.8304,5.8304,5.8304,5.8304,5.8304,5.8355,5.8304,5.8507,5.9176,5.9791,5.956,5.9408,5.9408,5.8304,5.8304,5.8355,5.8304,5.8406,5.8944,5.8994,5.8944,5.8457,5.8355,5.8355,5.8304,5.8324,5.8324,5.821,5.8098,5.8579,5.8489,5.8371,5.9607,5.97,5.9428,6.0003,6.008,5.9986,6.0024,6.0118,6.0118,6.0118,6.0118,6.0118,6.0118,6.0118,6.0118,6.0118,6.0118,6.0118,6.0118,6.0118,6.0118,6.0118,6.0118,6.0118,6.0118,6.0118,6.0118,6.0118,6.0118,6.0118,6.0118,6.0118,6.0118,6.0118,6.0099,6.008,6.0061,5.9985,5.9758,5.9568,5.9211,5.8967,5.8136,5.7397,5.6777,5.615,5.5669,5.5669,5.586,5.5263,5.5147,5.4664,5.3288,5.1669,5.0057,5.124,5.261,5.2642,5.3424,5.5232,5.6842,5.736,5.7992,5.8735,5.9191,5.3105,5.3105,5.3105,5.3105,5.3347,5.4864,5.6654,5.8163,5.8304,5.8304,5.8304,5.7927,5.8029,5.8304,5.7927,5.8029,5.8202,5.8304,5.8304,5.8304,5.8304,5.8304,5.8304,5.8304,5.8304,5.8355,5.8355,5.8589,5.8386,5.8406,5.8406,5.8304,5.8304,5.8304,5.8304,5.8304,5.8355,5.8457,5.8457,5.8304,5.8304,5.8304,5.8304,5.8304,5.8304,5.8049,5.7709,5.7888,5.7945,5.7436,5.8327,5.886,5.848,5.9262,5.9663,5.9663,5.9929,6.0099,6.0118,6.0118,6.0118,6.0118,6.0118,6.0118,6.0099,6.0118,6.0118,6.0118,6.0118,6.0118,6.0118,6.0118,6.0118,6.0118,6.0118,6.0118,6.0118,6.0118,6.0118,6.0118,6.0118,6.0118,6.0118,6.0042,5.9776,5.9928,5.9853,5.9644,5.9435,5.9263,5.9021,5.9061,5.8496,5.819,5.7671,5.7015,5.6785,5.6381,5.5187,5.4431,5.4064,5.3053,5.1492,5.025,4.936,5.0207,5.2006,5.3435,5.4318,5.5901,5.713,5.7648,5.822,5.9152,5.9797,5.3105,5.3105,5.3105,5.3125,5.3408,5.4944,5.6654,5.8224,5.8335,5.8304,5.8304,5.8253,5.8202,5.8304,5.8253,5.8253,5.8304,5.8304,5.8304,5.8304,5.8304,5.8304,5.8304,5.8304,5.8304,5.8304,5.8304,5.8304,5.8304,5.8304,5.8304,5.8304,5.8304,5.8304,5.8304,5.8304,5.8304,5.8304,5.8304,5.8304,5.8304,5.8304,5.8304,5.8304,5.8253,5.8029,5.759,5.7176,5.7266,5.7153,5.6998,5.7409,5.7933,5.8571,5.8692,5.8942,5.9586,5.9776,5.9853,6.0005,6.0061,5.9643,5.9795,5.9948,5.9834,5.9624,5.9529,5.9567,5.9529,5.9738,5.9966,5.9928,5.9909,5.9966,5.9966,6.0004,6.0004,5.9947,5.9947,5.9738,5.97,5.9662,5.9548,5.9662,5.9339,5.932,5.9073,5.8923,5.9056,5.8883,5.8677,5.8758,5.8873,5.8758,5.8432,5.7801,5.7475,5.7245,5.5767,5.488,5.276,5.1685,5.102,5.025,4.8899,4.9191,5.1208,5.2989,5.4698,5.6307,5.7593,5.7955,5.7439,5.8678,5.9986,5.3818,5.3838,5.3838,5.3516,5.3442,5.5508,5.6795,5.7419,5.8063,5.8304,5.8253,5.7927,5.7998,5.8151,5.8029,5.7876,5.8304,5.8304,5.8304,5.8304,5.8304,5.8304,5.8304,5.8304,5.8253,5.8304,5.8304,5.8304,5.8304,5.8304,5.8304,5.8304,5.8304,5.8304,5.8304,5.8304,5.8304,5.8304,5.8304,5.8304,5.8304,5.8253,5.8304,5.8253,5.8151,5.7998,5.7519,5.7046,5.6597,5.646,5.636,5.6504,5.6938,5.7455,5.795,5.7952,5.8351,5.8674,5.9226,5.9549,5.9283,5.875,5.8446,5.8427,5.8427,5.8617,5.8579,5.8541,5.8296,5.8389,5.8484,5.9018,5.9093,5.9321,5.9378,5.9492,5.9473,5.9207,5.9112,5.8503,5.8294,5.8313,5.8313,5.8522,5.8712,5.8446,5.8275,5.8429,5.8638,5.8277,5.8068,5.8397,5.8627,5.8779,5.8681,5.828,5.8106,5.7877,5.7475,5.694,5.4804,5.2006,5.1315,5.0547,4.9653,4.9452,5.0879,5.2323,5.4082,5.5733,5.7251,5.7421,5.6943,5.8184,5.991,5.4675,5.4675,5.4675,5.4401,5.422,5.6111,5.6976,5.7117,5.7861,5.8304,5.8253,5.7978,5.8049,5.8151,5.8029,5.8029,5.8304,5.8304,5.8304,5.8304,5.8304,5.8304,5.8202,5.8151,5.8151,5.8202,5.7825,5.7774,5.8304,5.8049,5.81,5.8304,5.8304,5.8304,5.8304,5.8304,5.8304,5.8304,5.8304,5.8304,5.8304,5.8151,5.8029,5.7998,5.7723,5.7468,5.7141,5.6833,5.6358,5.5996,5.6038,5.5944,5.5976,5.6641,5.7078,5.7116,5.7553,5.7819,5.8332,5.8674,5.8543,5.8085,5.7705,5.7724,5.7572,5.7553,5.7534,5.7629,5.7781,5.7743,5.7648,5.8239,5.8657,5.8866,5.9302,5.9397,5.915,5.8866,5.841,5.7838,5.7553,5.7705,5.7781,5.8066,5.7746,5.7442,5.8161,5.841,5.8733,5.8315,5.8315,5.868,5.8852,5.9004,5.9004,5.8774,5.8563,5.8163,5.7916,5.7705,5.583,5.3145,5.1695,4.9701,4.9665,4.9775,5.0226,5.1014,5.3064,5.4827,5.6105,5.658,5.7535,5.8963,5.9872,5.56,5.56,5.558,5.5648,5.5809,5.6654,5.7057,5.7258,5.7962,5.8304,5.8304,5.8304,5.8304,5.8304,5.8253,5.8253,5.8304,5.8304,5.8304,5.8304,5.8304,5.8304,5.8202,5.7978,5.7978,5.7978,5.7621,5.757,5.8202,5.7876,5.7927,5.8151,5.8304,5.8304,5.8304,5.8304,5.8304,5.8304,5.8304,5.8304,5.8253,5.7978,5.7774,5.7601,5.7294,5.6987,5.6782,5.6525,5.6235,5.579,5.5755,5.5534,5.5292,5.5885,5.6151,5.6208,5.6926,5.7325,5.7477,5.7458,5.7401,5.7154,5.6907,5.7021,5.7287,5.7325,5.7154,5.6869,5.7097,5.723,5.7705,5.8068,5.8448,5.8866,5.9568,5.9777,5.9302,5.8923,5.8258,5.7613,5.7553,5.7439,5.742,5.7325,5.6835,5.7233,5.8011,5.8543,5.8942,5.9092,5.9434,5.9626,5.9626,5.9683,5.957,5.9304,5.8906,5.8374,5.784,5.7209,5.5656,5.481,5.2384,4.8808,4.9178,5.0923,5.0589,4.9906,5.1613,5.3491,5.4796,5.6234,5.8488,5.974,5.9513,5.6554,5.6574,5.6554,5.6916,5.7519,5.7801,5.7922,5.7962,5.8203,5.8304,5.8304,5.8304,5.8304,5.8304,5.8304,5.8304,5.8304,5.8304,5.8304,5.8304,5.8304,5.8304,5.8273,5.8151,5.7856,5.7652,5.7346,5.7294,5.7825,5.7672,5.7876,5.8151,5.8304,5.8304,5.8304,5.8304,5.8304,5.8304,5.8304,5.8304,5.8304,5.808,5.7927,5.7448,5.7243,5.6884,5.6473,5.6235,5.5926,5.5738,5.5479,5.5201,5.5173,5.5183,5.5335,5.543,5.5691,5.6018,5.6246,5.617,5.5753,5.5942,5.5904,5.5919,5.5715,5.5715,5.598,5.5957,5.5919,5.5961,5.6572,5.7442,5.8066,5.8638,5.9378,5.9872,5.9397,5.8638,5.7992,5.748,5.655,5.6071,5.6166,5.6413,5.6455,5.7423,5.8163,5.8733,5.9188,5.9738,6.0118,6.0118,6.0118,6.0118,6.0118,5.9816,5.9513,5.8963,5.8678,5.7629,5.7381,5.7783,5.6119,5.1947,5.0665,5.198,5.1982,5.1247,5.1655,5.2433,5.3263,5.4362,5.65,5.7973,5.8106,5.7479,5.7479,5.7479,5.7801,5.8304,5.8304,5.8304,5.8304,5.8304,5.8304,5.8304,5.8304,5.8304,5.8304,5.8304,5.8304,5.8304,5.8304,5.8304,5.8304,5.8304,5.8304,5.8202,5.808,5.7876,5.755,5.7243,5.7243,5.7499,5.755,5.7876,5.8151,5.8304,5.8304,5.8304,5.8304,5.8304,5.8304,5.8304,5.8304,5.8253,5.8151,5.7723,5.7192,5.7038,5.6544,5.6061,5.5822,5.5686,5.5531,5.5427,5.5272,5.5135,5.5031,5.5069,5.5107,5.5126,5.5373,5.5582,5.5354,5.5012,5.5012,5.5012,5.5069,5.5183,5.505,5.5012,5.5012,5.5107,5.5316,5.5871,5.6797,5.7762,5.8408,5.8961,5.953,5.9226,5.8332,5.7667,5.7461,5.6436,5.5525,5.5563,5.5753,5.6831,5.7689,5.8334,5.8961,5.9511,6.0099,6.0118,6.0118,6.0118,6.0118,6.0118,6.0118,6.0062,5.9986,5.9929,5.9285,5.8924,5.9266,5.7478,5.492,5.2702,5.1636,5.1224,5.1819,5.2229,5.2437,5.281,5.3212,5.4263,5.5732,5.6367,5.8304,5.8304,5.8284,5.8284,5.8304,5.8244,5.8244,5.8304,5.8203,5.8183,5.8284,5.8304,5.8304,5.8304,5.8304,5.8304,5.8304,5.8304,5.8304,5.8304,5.8304,5.8253,5.8029,5.7754,5.7499,5.7212,5.6801,5.6884,5.7294,5.7397,5.7825,5.8151,5.808,5.8253,5.8304,5.8304,5.8304,5.8304,5.8304,5.8304,5.8202,5.7927,5.7346,5.673,5.6132,5.5583,5.5097,5.5427,5.5479,5.5149,5.5356,5.5376,5.5116,5.5012,5.5012,5.5012,5.5012,5.505,5.5164,5.5069,5.5012,5.5012,5.5012,5.5012,5.5012,5.5012,5.5012,5.5012,5.5012,5.5107,5.5658,5.6432,5.7515,5.8351,5.9131,5.9606,5.9416,5.8446,5.7819,5.7515,5.7024,5.6527,5.6451,5.7306,5.8275,5.8638,5.9226,5.934,5.9947,6.0118,6.0118,6.0118,6.0118,6.0118,6.0118,6.0118,6.0118,6.0118,6.0118,6.0043,5.9872,5.7955,5.6349,5.413,5.2861,5.0837,4.9606,5.0471,5.1305,5.2055,5.2567,5.2744,5.3505,5.4205,5.4729,5.8304,5.8304,5.8304,5.8304,5.8264,5.758,5.768,5.8163,5.764,5.77,5.8143,5.8304,5.8304,5.8304,5.8304,5.8304,5.8304,5.8304,5.8304,5.8304,5.8253,5.81,5.7825,5.755,5.7038,5.6203,5.6203,5.6441,5.6884,5.7212,5.7468,5.7723,5.7754,5.7978,5.8202,5.8304,5.8304,5.8304,5.8304,5.8304,5.8304,5.8131,5.7499,5.6833,5.637,5.5977,5.5201,5.522,5.522,5.4993,5.522,5.522,5.5064,5.5012,5.5012,5.5012,5.5012,5.5012,5.5012,5.5012,5.5012,5.5012,5.5012,5.5012,5.5012,5.5012,5.5012,5.5012,5.5012,5.5335,5.5923,5.6778,5.7667,5.8503,5.934,5.9795,5.989,5.8997,5.8258,5.7992,5.7689,5.7306,5.7819,5.8712,5.9244,5.9568,5.9739,5.9871,6.0004,6.0099,6.0118,6.0118,6.0118,6.0118,6.0118,6.0118,6.0118,6.0118,6.0118,5.9986,5.9569,5.8012,5.5754,5.4595,5.3546,5.1947,5.0681,5.0342,5.0164,5.1036,5.1787,5.2097,5.1921,5.2626,5.2802,5.8304,5.8304,5.8304,5.8304,5.8203,5.7338,5.7479,5.7982,5.7379,5.7459,5.8183,5.8304,5.8304,5.8304,5.8304,5.8304,5.8304,5.8304,5.8304,5.8304,5.8049,5.7805,5.7499,5.7192,5.6679,5.6152,5.6255,5.6441,5.6235,5.6596,5.6955,5.709,5.7397,5.7723,5.7876,5.8182,5.8304,5.8304,5.8304,5.8304,5.8273,5.8049,5.7519,5.6647,5.6338,5.5771,5.5201,5.5012,5.5012,5.5012,5.5012,5.5012,5.5012,5.5012,5.5012,5.5012,5.5012,5.5012,5.5012,5.5012,5.5012,5.5012,5.5012,5.5012,5.5012,5.5012,5.5012,5.5012,5.5012,5.5373,5.6113,5.6986,5.7803,5.8693,5.9454,5.9834,5.9928,5.9188,5.8771,5.8562,5.8353,5.8598,5.894,5.9453,5.9719,5.9872,5.9966,6.0023,6.0061,6.0118,6.0118,6.0118,6.0118,6.0118,6.0118,6.0118,6.0118,6.0118,6.0118,5.9929,5.9456,5.7973,5.5714,5.4188,5.261,5.2163,5.2456,5.1386,5.0132,5.0412,5.0885,4.9419,4.8182,4.9077,4.9375,5.8304,5.8304,5.8304,5.8304,5.8183,5.7358,5.7439,5.7982,5.7278,5.7439,5.8042,5.8224,5.8304,5.8304,5.8304,5.8304,5.8304,5.8304,5.8304,5.8253,5.7825,5.7397,5.6987,5.6608,5.6184,5.5201,5.639,5.6493,5.5286,5.5078,5.5596,5.6473,5.7038,5.7499,5.7672,5.81,5.8304,5.8304,5.8304,5.8304,5.8253,5.7805,5.7294,5.6628,5.6081,5.5583,5.5097,5.5012,5.5012,5.5012,5.5012,5.5012,5.5012,5.5012,5.5012,5.5012,5.5012,5.5012,5.5012,5.5012,5.5012,5.5012,5.5012,5.5012,5.5012,5.5012,5.5012,5.5012,5.5012,5.5316,5.5904,5.6891,5.7762,5.8541,5.934,5.9985,6.0042,5.9454,5.9263,5.9073,5.913,5.9453,5.9643,5.9909,6.0118,6.0118,6.0099,6.0099,6.0118,6.0118,6.0118,6.0118,6.0118,6.0118,6.0118,6.0118,6.0118,6.0118,6.0118,6.0043,5.881,5.7209,5.5193,5.3488,5.0799,4.9795,4.9604,4.9616,4.9938,4.9431,4.8525,4.6877,4.5217,4.5156,4.5928,5.8304,5.8304,5.8304,5.8304,5.8163,5.7338,5.7077,5.7177,5.7057,5.7117,5.7338,5.7962,5.8304,5.8304,5.8304,5.8304,5.8304,5.8304,5.8304,5.8202,5.7774,5.6454,5.5713,5.5474,5.5441,5.4123,5.4898,5.4818,5.2913,5.274,5.4085,5.5059,5.6267,5.6987,5.7314,5.757,5.8253,5.8304,5.8304,5.8304,5.8202,5.7774,5.7243,5.6576,5.6048,5.5531,5.5045,5.5012,5.5012,5.5012,5.5012,5.5012,5.5012,5.4993,5.4993,5.5012,5.5012,5.5012,5.5012,5.5012,5.5012,5.5012,5.5012,5.5012,5.5012,5.5012,5.5012,5.5012,5.5031,5.524,5.5734,5.6736,5.7572,5.8199,5.9244,6.0099,5.9967,5.9853,5.9662,5.9681,5.9833,5.9909,5.9928,6.0118,6.0118,6.0118,6.0118,6.0118,6.0118,6.0118,6.0118,6.0118,6.0118,6.0118,6.0118,6.0118,6.0118,5.9929,5.9797,5.9266,5.7859,5.627,5.5558,5.4304,5.1138,4.7613,4.6485,4.6124,4.7028,4.7208,4.6215,4.5459,4.5156,4.4974,4.4914,5.8304,5.8304,5.8304,5.8304,5.8143,5.7358,5.7198,5.7519,5.7157,5.7198,5.764,5.8063,5.8304,5.8304,5.8304,5.8304,5.8304,5.8304,5.8304,5.8202,5.7774,5.6762,5.6229,5.6248,5.478,5.3138,5.2148,5.1201,4.9681,5.0012,5.0911,5.2338,5.2758,5.3943,5.5384,5.5939,5.6679,5.81,5.81,5.8029,5.8202,5.7256,5.6478,5.5833,5.543,5.5286,5.5012,5.5012,5.4941,5.4889,5.4941,5.5012,5.4298,5.332,5.2004,5.3005,5.3233,5.3652,5.4785,5.5012,5.5012,5.5012,5.5012,5.5012,5.5012,5.5012,5.5012,5.5088,5.5202,5.5734,5.6094,5.7366,5.8237,5.8788,5.9454,5.9986,6.0099,6.0099,6.0042,6.0023,6.0042,6.0042,6.0118,6.0118,6.0118,6.0118,6.0118,6.0118,6.0118,6.0118,6.0118,6.0118,6.0118,6.0118,6.0118,6.0118,6.0118,5.9626,5.9191,5.8145,5.6788,5.4862,5.4147,5.3179,5.0412,4.6471,4.5352,4.517,4.5049,4.5095,4.5156,4.5217,4.5035,4.4914,4.4914,5.8304,5.8304,5.8143,5.8063,5.7942,5.7298,5.7258,5.77,5.7338,5.756,5.8022,5.8244,5.8304,5.8304,5.8304,5.7978,5.7275,5.6589,5.6589,5.6557,5.6093,5.5173,5.451,5.4228,5.33,5.1276,4.9298,4.7954,4.7151,4.7305,4.8247,4.8833,4.9385,5.0504,5.2425,5.3073,5.4275,5.6331,5.6373,5.6703,5.7042,5.6615,5.5734,5.5294,5.5141,5.4747,5.4506,5.4298,5.4246,5.3914,5.3843,5.4227,5.4175,5.1845,5.1246,5.2232,5.2795,5.3548,5.4733,5.5012,5.5012,5.5012,5.5012,5.5012,5.5012,5.5012,5.5012,5.5145,5.5582,5.6265,5.723,5.7781,5.8752,5.9492,5.9834,6.0099,6.0118,6.0118,6.0118,6.0118,6.0118,6.0118,6.0118,6.0118,6.0118,6.0118,6.0118,6.0118,6.0118,6.0118,6.0118,6.0118,6.0118,6.0118,6.0062,5.9986,5.9152,5.8431,5.6961,5.5905,5.5036,5.3288,5.1213,4.9479,4.6998,4.5459,4.5217,4.5035,4.4914,4.4914,4.4914,4.4914,4.4914,4.4914,4.4914,5.8304,5.8244,5.7479,5.7177,5.7137,5.7057,5.6735,5.6453,5.7459,5.7458,5.7369,5.8002,5.7621,5.81,5.7978,5.7019,5.5397,5.3873,5.3332,5.3246,5.2845,5.1767,5.0361,5.0236,4.916,4.6569,4.5491,4.5204,4.5015,4.5251,4.599,4.7813,4.8511,4.8889,4.9547,5.0186,5.1438,5.3556,5.3487,5.3803,5.4981,5.5516,5.5347,5.511,5.4983,5.4331,5.311,5.2566,5.1546,4.9244,4.9084,5.1246,5.3581,5.407,5.4227,5.3966,5.3267,5.3424,5.3861,5.4454,5.4558,5.5012,5.4837,5.4785,5.4785,5.4681,5.4785,5.4965,5.5221,5.5658,5.636,5.7499,5.8258,5.8904,5.9682,5.9986,6.0118,6.0118,6.0118,6.0118,6.0118,6.0118,6.0118,6.0118,6.0118,6.0118,6.0118,6.0118,6.0118,6.0118,6.0118,6.0118,6.0118,6.0118,5.9872,5.9702,5.7381,5.6021,5.4047,5.3405,5.2936,5.0918,4.8735,4.6471,4.5686,4.5277,4.4974,4.4914,4.4914,4.4914,4.4857,4.4715,4.4757,4.4899,4.4501,5.8304,5.8264,5.7861,5.768,5.768,5.768,5.7439,5.7078,5.6703,5.62,5.5762,5.4896,5.4724,5.4724,5.4672,5.4218,5.2913,5.1897,5.1457,5.1281,5.1123,5.0225,4.9022,4.6541,4.4323,4.2829,4.2297,4.2271,4.2436,4.2723,4.3702,4.4893,4.4713,4.5754,4.6943,4.6721,4.8003,4.9816,5.0688,5.0981,5.1789,5.3069,5.4161,5.3627,5.4436,5.4629,5.3215,5.3215,5.2601,5.084,4.7182,4.5516,4.7306,4.7614,4.8276,4.9188,4.9545,4.9919,5.1088,5.1299,5.1423,5.1211,5.1246,5.1916,5.2795,5.311,5.3634,5.4629,5.5003,5.551,5.6778,5.7936,5.8847,5.9454,5.9815,6.008,6.0118,6.0118,6.0118,6.0118,5.9759,5.9816,6.0043,6.0118,5.9986,5.9228,5.9228,5.9513,5.9569,5.9399,5.9569,5.9171,5.9513,5.9456,5.9228,5.7801,5.5384,5.3797,5.198,5.1289,5.0563,4.8556,4.6471,4.5867,4.5263,4.4914,4.4778,4.4914,4.4914,4.4711,4.4494,4.4413,4.4299,4.4203,4.3875,5.7064,5.6994,5.6442,5.6141,5.6161,5.6141,5.5981,5.5751,5.4228,5.3562,5.3295,5.1949,5.1288,5.1236,5.1372,5.0732,5.0207,5.012,4.998,4.9769,4.9629,4.9195,4.7367,4.3662,4.0996,4.0765,4.0284,4.0394,4.079,4.1474,4.1549,4.2049,4.2268,4.232,4.4024,4.3609,4.4326,4.6413,4.7634,4.7632,4.7951,5.0041,5.0949,5.0495,5.2144,5.3037,5.2934,5.2777,5.3039,5.1758,4.7182,4.3836,4.4165,4.3851,4.4768,4.6099,4.6169,4.6533,4.7742,4.8424,4.8102,4.8495,4.8692,4.8816,5.0628,5.0734,5.1652,5.2934,5.3548,5.4034,5.5849,5.8287,5.9436,5.9871,6.0005,5.9626,5.8621,5.822,5.7973,5.8049,5.8049,5.8335,5.8202,5.7859,5.7992,5.8392,5.8449,5.881,5.8678,5.8506,5.7801,5.6806,5.6864,5.6518,5.6096,5.4862,5.3329,5.2198,5.0385,4.9272,4.8077,4.635,4.5807,4.5277,4.4796,4.4643,4.4493,4.454,4.4285,4.4232,4.4045,4.3927,4.3733,4.3477,4.3193,5.3094,5.285,5.0335,4.9265,4.9608,4.9332,5.0075,4.9667,5.0108,5.0177,5.0094,4.9884,4.9318,4.9798,4.9098,4.8529,4.6734,4.6834,4.5731,4.4858,4.4392,4.4041,4.3368,4.1412,4.1026,4.1198,4.044,4.0714,4.1192,4.1169,4.1215,4.1142,4.1129,4.1189,4.1083,4.0892,4.1581,4.2985,4.3358,4.3811,4.4819,4.6365,4.718,4.7162,4.8512,4.8628,4.7382,4.6695,4.7074,4.8692,4.7958,4.6462,4.6663,4.7004,4.7112,4.6895,4.6625,4.6895,4.7742,4.7295,4.7618,4.7403,4.751,4.821,4.8226,4.8404,4.8726,4.9582,4.8816,5.069,5.3207,5.6579,5.8254,5.8984,5.9532,5.765,5.463,5.3212,5.3229,5.3271,5.3371,5.3271,5.3271,5.3271,5.3446,5.5344,5.5905,5.5905,5.5616,5.6021,5.5732,5.492,5.4397,5.3872,5.302,5.2257,5.1695,5.1299,4.9701,4.7731,4.6594,4.5355,4.4942,4.4668,4.431,4.4088,4.4052,4.3819,4.3531,4.3395,4.3398,4.3319,4.3208,4.2851,4.2382,5.1319,5.0682,4.9487,4.8994,4.8994,4.9012,4.9012,4.8866,4.8042,4.7503,4.7198,4.6243,4.5626,4.5643,4.5678,4.5076,4.4264,4.4145,4.3625,4.2771,4.2724,4.2049,4.1171,4.0552,4.0581,4.1031,4.0074,4.0225,4.0762,4.0406,4.0081,4.0123,4.0067,3.9808,3.931,3.9235,3.9484,3.9795,4.0709,4.0728,4.096,4.3627,4.4588,4.4568,4.6309,4.7469,4.6793,4.6587,4.5555,4.433,4.4111,4.4056,4.4056,4.4071,4.4056,4.4071,4.4056,4.4111,4.4056,4.4071,4.4056,4.4111,4.4056,4.4698,4.5773,4.6083,4.6895,4.7635,4.7995,4.8952,5.0803,5.2581,5.4242,5.548,5.4977,5.3637,5.1742,5.1196,5.1358,5.1459,5.1634,5.1934,5.1918,5.2393,5.2501,5.2593,5.3119,5.2885,5.2434,5.3371,5.3738,5.3505,5.3095,5.2476,5.1707,5.1472,5.1104,5.1276,4.987,4.7205,4.5661,4.3985,4.379,4.3759,4.3641,4.3511,4.3504,4.342,4.3042,4.2756,4.2692,4.2595,4.2425,4.2169,4.16,4.9153,4.8338,4.7588,4.7186,4.7237,4.7219,4.7102,4.6918,4.5268,4.4543,4.4319,4.2914,4.2373,4.2229,4.2317,4.2208,4.227,4.2234,4.2208,4.2208,4.2193,4.1524,4.0694,4.0241,4.0456,4.0896,4.0282,3.9912,4.022,3.9902,3.9502,3.9285,3.9371,3.9083,3.8566,3.8589,3.8124,3.7915,3.9144,3.9068,3.869,4.1687,4.2894,4.2357,4.4308,4.5588,4.6127,4.6261,4.4494,4.1494,4.123,4.123,4.1494,4.1494,4.1646,4.1605,4.1438,4.1327,4.1383,4.1438,4.1327,4.123,4.1702,4.1994,4.3702,4.3757,4.4604,4.5664,4.6261,4.6713,4.8161,4.8956,5.0212,5.1313,5.0072,4.8575,4.8332,4.8577,4.8561,4.8666,4.8829,4.8854,4.8924,4.921,4.948,4.9672,5.0165,5.0425,4.9364,4.9687,4.9998,5.0373,5.0391,5.0316,5.0316,5.0316,5.029,5.0221,4.8526,4.5676,4.4458,4.318,4.3079,4.3036,4.3046,4.2873,4.2894,4.2782,4.2654,4.2325,4.2168,4.1955,4.1756,4.1699,4.1173,4.5583,4.5176,4.2408,4.1559,4.1625,4.1675,4.1822,4.1444,4.121,4.1306,4.1225,4.1068,4.0906,4.0794,4.0999,4.0948,4.0779,4.0902,4.0948,4.0968,4.0937,4.0856,4.0655,4.0559,4.0747,4.1167,4.0748,4.063,4.0503,3.9954,3.9749,3.9168,3.9072,3.8969,3.848,3.8437,3.8096,3.7597,3.7714,3.8167,3.8521,3.9498,3.9974,4.0622,4.1457,4.2055,4.2198,4.2151,4.1697,4.1299,4.1059,4.1031,4.1159,4.116,4.1102,4.1145,4.1146,4.1173,4.1216,4.123,4.123,4.123,4.123,4.1383,4.1661,4.1883,4.2075,4.2352,4.2242,4.3157,4.5375,4.6147,4.7414,4.9321,4.6604,4.4338,4.3689,4.3877,4.4178,4.4036,4.366,4.3718,4.4283,4.4254,4.4298,4.4588,4.6092,4.6152,4.5662,4.613,4.5891,4.5634,4.5525,4.5759,4.6552,4.6552,4.6567,4.6316,4.5171,4.3732,4.3011,4.278,4.2766,4.2666,4.2636,4.2351,4.2154,4.1899,4.1712,4.1797,4.1669,4.1385,4.1301,4.1372,4.1145,4.3543,4.2296,4.1107,4.0624,4.0624,4.0624,4.0624,4.0624,4.0624,4.0624,4.0624,4.0624,4.0624,4.0624,4.0624,4.0624,4.0624,4.0624,4.0624,4.0624,4.0624,4.0624,4.0624,4.0624,4.0644,4.0425,3.9986,3.9563,3.9274,3.8761,3.8364,3.8224,3.8158,3.8096,3.7911,3.7919,3.7797,3.7569,3.7526,3.7825,3.8432,3.8694,3.9239,4.0095,4.045,4.0832,4.1089,4.0379,3.9981,3.9981,3.9981,3.9981,3.9981,4.0024,4.0166,4.0464,4.0606,4.0763,4.1173,4.1159,4.123,4.123,4.123,4.1216,4.123,4.123,4.123,4.123,4.123,4.165,4.2774,4.325,4.375,4.467,4.2902,4.2097,4.1927,4.1927,4.1941,4.197,4.1955,4.1941,4.1941,4.1927,4.1927,4.2069,4.3094,4.3298,4.327,4.3732,4.395,4.3703,4.2979,4.2923,4.3036,4.3051,4.3051,4.278,4.2453,4.2339,4.2226,4.224,4.2211,4.2083,4.2055,4.1814,4.095,4.0771,4.0254,4.1174,4.1357,4.0756,4.0129,4.0408,4.0268,4.2904,4.1587,4.0908,4.0624,4.0624,4.0624,4.0624,4.0624,4.0624,4.0624,4.0624,4.0624,4.0624,4.0624,4.0624,4.0624,4.0624,4.0609,4.031,3.991,3.991,3.956,3.926,3.9595,3.971,3.9375,3.931,3.8958,3.8384,3.7995,3.7663,3.7512,3.754,3.7512,3.754,3.7512,3.7512,3.7512,3.7512,3.7825,3.8446,3.8518,3.8964,3.9797,3.9939,4.0123,4.0507,3.9754,3.9314,3.9328,3.9285,3.9285,3.93,3.9285,3.9498,3.9868,3.9925,4.0152,4.0576,4.0564,4.0521,4.0647,4.0818,4.0917,4.0876,4.1088,4.123,4.123,4.123,4.123,4.1287,4.1643,4.0981,3.9162,3.9626,3.9974,4.0029,4.0729,4.1034,4.0988,4.0946,4.0832,4.0732,4.0862,4.0933,4.1031,4.1556,4.2025,4.1927,4.2354,4.251,4.2524,4.2524,4.2354,4.2226,4.214,4.2155,4.1998,4.1785,4.1643,4.1557,4.15,4.1458,4.1401,4.1387,4.0981,4.0002,3.9164,3.8197,3.8366,3.8593,3.8705,3.8844,3.871,3.8384,4.3591,4.3035,4.1423,4.047,4.0439,4.0424,4.0547,4.0455,4.0486,4.0409,4.0347,4.0501,4.0474,4.0563,4.0551,4.0432,4.0092,3.9931,3.93,3.8251,3.8145,3.7391,3.6203,3.7485,3.8036,3.8051,3.9135,3.8985,3.7901,3.775,3.7707,3.7512,3.7512,3.7512,3.7512,3.7512,3.7512,3.7512,3.7512,3.7839,3.838,3.8518,3.8793,3.9257,3.9257,3.9243,3.9271,3.9229,3.9129,3.9158,3.9172,3.9257,3.9129,3.8917,3.9016,3.8765,3.9006,3.9073,3.9037,3.9054,3.9057,3.8831,3.968,3.9787,3.9516,4.0002,4.0351,4.0212,4.0393,4.07,4.0575,4.0533,3.8994,3.5167,3.6368,3.7665,3.8141,3.9738,4.0947,4.0422,4.022,3.9967,3.9655,3.9811,4.0152,4.0308,4.0777,4.1174,4.1203,4.1415,4.1344,4.1358,4.1543,4.1714,4.1486,4.1217,4.126,4.1106,4.0687,4.0031,3.9626,3.922,3.894,3.9052,3.894,3.863,3.7661,3.6897,3.5966,3.5536,3.4807,3.4896,3.5295,3.5689,3.5712,4.1501,4.0309,3.9605,3.9317,3.9317,3.9284,3.9269,3.9333,3.9269,3.9333,3.9317,3.9317,3.9547,3.9918,3.993,3.8741,3.6411,3.6299,3.5992,3.5552,3.5552,3.521,3.4867,3.5308,3.5503,3.5468,3.4853,3.479,3.5093,3.5134,3.5968,3.7368,3.7512,3.7512,3.7512,3.7512,3.7512,3.7512,3.7512,3.7825,3.838,3.8518,3.8765,3.9058,3.8499,3.8059,3.811,3.8073,3.8124,3.8073,3.8087,3.8073,3.7919,3.6667,3.5348,3.4304,3.4143,3.4294,3.4848,3.6214,3.6362,3.5045,3.629,3.6611,3.5257,3.53,3.5388,3.5489,3.5636,3.5777,3.5853,3.6086,3.5564,3.4417,3.4531,3.5677,3.7284,3.8197,3.9061,3.9666,3.9344,3.9123,3.9214,3.9115,3.9204,3.9555,4.0123,4.0507,4.0606,4.0917,4.123,4.123,4.123,4.1174,4.0492,4.0212,4.024,3.9093,3.8422,3.7284,3.6538,3.6073,3.5847,3.6029,3.5929,3.5682,3.5151,3.4446,3.3982,3.3717,3.2817,3.1963,3.2415,3.2547,3.3003,4.1485,3.969,3.8983,3.87,3.87,3.87,3.8321,3.7847,3.7862,3.7562,3.7119,3.7071,3.7294,3.7694,3.7457,3.6179,3.4338,3.4228,3.389,3.3358,3.3372,3.3019,3.2644,3.3129,3.3213,3.2812,3.2216,3.2018,3.2201,3.2115,3.3015,3.4503,3.5357,3.5894,3.6225,3.6769,3.7298,3.7483,3.7512,3.7711,3.8067,3.8138,3.8309,3.8585,3.7874,3.7512,3.7512,3.7512,3.7512,3.7512,3.7526,3.7158,3.6332,3.4957,3.3405,3.1685,3.1418,3.1571,3.212,3.3362,3.3456,3.2309,3.3575,3.3806,3.2649,3.2534,3.264,3.2789,3.3047,3.2036,3.1258,3.0909,3.1241,3.1345,3.1965,3.3176,3.46,3.5734,3.6548,3.7298,3.707,3.6564,3.6549,3.7363,3.7884,3.839,3.9677,4.0495,4.0704,4.0946,4.123,4.123,4.1174,4.0603,3.9234,3.8633,3.824,3.6807,3.6036,3.5038,3.4815,3.4531,3.4043,3.4289,3.4341,3.39,3.2185,3.1447,3.0673,3.0402,2.9757,2.9263,3.0188,2.8963,2.9512,4.2958,4.098,3.9156,3.8168,3.8355,3.8309,3.7536,3.6057,3.6224,3.5461,3.4352,3.4222,3.4071,3.3885,3.3273,3.3314,3.3728,3.3618,3.2834,3.17,3.1628,3.0814,2.9393,3.0839,3.1021,3.007,3.0435,3.0241,2.9227,2.9323,2.9395,2.9847,3.2055,3.3131,3.3885,3.5697,3.6835,3.7341,3.7412,3.7498,3.754,3.7512,3.7483,3.754,3.7512,3.7512,3.7512,3.7512,3.7411,3.7309,3.7208,3.6281,3.4317,3.3856,3.2765,3.0959,3.0544,3.0492,3.0423,3.0718,3.0654,3.0574,3.1009,3.14,3.0839,3.1107,3.1432,3.2046,3.196,3.0536,2.6891,2.7054,2.7287,2.7297,2.8958,3.0159,3.0552,3.2708,3.3377,3.3571,3.3659,3.353,3.2657,3.4652,3.6017,3.691,3.8828,4.0366,4.006,4.0366,4.031,4.0254,4.0017,3.9193,3.507,3.4727,3.4449,3.3511,3.3326,3.3253,3.3516,3.3448,3.2977,3.2634,3.1972,3.0924,2.9471,2.8484,2.7903,2.7359,2.6794,2.6371,2.6905,2.5581,2.601,3.6864,3.6181,3.4697,3.402,3.4112,3.5142,3.4743,3.3603,3.4499,3.4144,3.2861,3.2815,3.1623,2.9724,2.9379,2.9366,2.9549,2.9561,2.929,2.896,2.8925,2.8275,2.7242,2.7622,2.7267,2.6446,2.6028,2.5492,2.5226,2.6127,2.7692,2.9725,3.21,3.3226,3.3238,3.5362,3.6657,3.6764,3.6828,3.7056,3.7333,3.707,3.6842,3.6885,3.727,3.7512,3.7512,3.7512,3.6803,3.5263,3.5148,3.4112,3.1917,3.0273,2.9141,2.8474,2.6946,2.5948,2.6001,2.7522,2.7784,2.6369,2.7722,2.8027,2.6622,2.6384,2.6453,2.6596,2.7148,2.7317,2.559,2.6188,2.6639,2.6676,2.7122,2.8447,2.9929,3.0782,3.1731,3.2846,3.2677,3.2789,3.2361,3.3003,3.4101,3.4445,3.534,3.5859,3.5847,3.6061,3.5992,3.5847,3.5891,3.4963,3.3496,3.2652,3.1964,3.1191,3.038,2.9845,2.8043,2.7895,2.771,2.9065,2.7958,2.7098,2.6783,2.6445,2.5997,2.5562,2.5322,2.5045,2.4409,2.4486,2.4687,3.5038,3.4647,3.3573,3.2826,3.2415,3.3132,3.2721,3.1393,3.2237,3.1792,3.0577,3.0439,2.9455,2.784,2.784,2.784,2.784,2.784,2.7361,2.6555,2.6508,2.5664,2.4299,2.4686,2.445,2.3306,2.3326,2.3098,2.29,2.361,2.4812,2.6499,2.8748,2.99,3.0083,3.3006,3.4689,3.4972,3.5734,3.5903,3.5639,3.5917,3.6124,3.6167,3.6543,3.6382,3.5623,3.5524,3.4513,3.2483,3.2332,3.1323,2.9081,2.7777,2.667,2.5693,2.4351,2.3709,2.3874,2.5292,2.5547,2.4174,2.5441,2.5599,2.4227,2.4068,2.3513,2.2599,2.2941,2.3377,2.3427,2.3963,2.4315,2.4432,2.5025,2.6008,2.7549,2.8302,2.9075,2.9971,3.0363,3.014,2.98,3.0079,3.0963,3.2219,3.3393,3.3958,3.3702,3.3577,3.3495,3.3174,3.1491,3.0388,2.9734,2.9706,2.9058,2.7968,2.7517,2.7361,2.5979,2.5516,2.5322,2.534,2.4864,2.4479,2.4654,2.4182,2.3145,2.3538,2.3338,2.2706,2.3008,2.3433,2.3062,3.5309,3.4647,3.3831,3.3041,3.1819,3.1957,3.1163,2.9871,2.9918,2.9093,2.7825,2.7641,2.7733,2.7723,2.7711,2.7746,2.7793,2.7595,2.6497,2.489,2.4456,2.3087,2.1237,2.2235,2.2092,2.0961,2.1883,2.2044,2.1521,2.1586,2.1682,2.1997,2.3809,2.528,2.6057,2.9512,3.1744,3.2346,3.4009,3.3981,3.2426,3.4194,3.5231,3.5197,3.5411,3.4738,3.3328,3.2728,3.1755,2.9762,2.9405,2.8272,2.6272,2.5913,2.5065,2.319,2.2788,2.2874,2.3204,2.3444,2.3449,2.359,2.3484,2.3468,2.3415,2.3371,2.219,2.0167,1.984,2.0298,2.0235,2.0762,2.1272,2.1432,2.2503,2.3391,2.3749,2.5087,2.6129,2.5774,2.6568,2.6418,2.6533,2.6759,2.7598,2.9535,3.1042,3.1996,3.1794,3.1715,3.1624,3.0582,2.7871,2.524,2.4936,2.488,2.4827,2.4808,2.4807,2.4514,2.4304,2.4267,2.4679,2.3251,2.2765,2.2285,2.2336,2.146,1.9906,2.1071,2.0718,1.9701,2.0981,2.2,2.1791,3.0854,3.0577,2.9674,2.913,2.8898,3.001,2.9628,2.8446,2.9442,2.8663,2.6756,2.6575,2.6843,2.7183,2.7207,2.7418,2.7513,2.6122,2.5125,2.4514,2.2709,2.1104,1.9912,1.9721,1.9099,1.8108,1.83,1.9027,1.9858,1.9954,2.0575,2.1881,2.4264,2.5242,2.4964,2.7917,2.9465,2.961,2.9565,2.9309,2.8981,3.1304,3.2522,3.2704,3.446,3.5392,3.4882,3.3469,3.1645,2.9491,2.7865,2.6002,2.3915,2.3664,2.3464,2.2921,2.1813,2.1208,2.1183,2.0238,1.9596,1.9604,1.9748,1.9902,1.985,1.905,1.8271,1.7929,1.8152,1.843,1.8533,1.9482,2.0381,2.0389,2.0786,2.1035,2.1133,2.2555,2.3594,2.3712,2.4813,2.5615,2.5635,2.5672,2.5989,2.6495,2.6997,2.7304,2.7261,2.7232,2.623,2.4409,2.2118,2.0859,2.0504,2.0635,2.0697,2.0504,2.0635,2.089,2.0828,2.0635,2.0511,2.068,2.0089,2.0112,2.0136,1.9388,1.9205,1.9358,1.9098,1.8992,1.948,1.9907,1.9573,2.8914,2.8779,2.7873,2.7431,2.751,2.7997,2.7816,2.718,2.7906,2.7018,2.5108,2.4997,2.4697,2.4206,2.4172,2.431,2.4555,2.3589,2.2644,2.1672,2.0484,1.8908,1.7092,1.738,1.7003,1.6184,1.6714,1.7539,1.8316,1.8364,1.9131,2.0727,2.2105,2.3006,2.3468,2.5713,2.6878,2.6903,2.6218,2.5837,2.5883,2.8447,2.9828,2.9828,3.182,3.2282,3.0658,2.9577,2.7706,2.4949,2.3703,2.274,2.1928,2.1869,2.2034,2.2334,2.0946,2.0132,2.0347,1.8881,1.8045,1.8299,1.8424,1.7432,1.4832,1.4778,1.4886,1.5076,1.5915,1.6363,1.6419,1.7107,1.7645,1.7645,1.8357,1.8839,1.9117,2.0458,2.1422,2.1659,2.2473,2.3031,2.3087,2.3773,2.4219,2.4274,2.5062,2.5433,2.5322,2.3807,2.1993,2.0664,1.9647,1.9098,1.9091,1.903,1.9038,1.9038,1.9038,1.9038,1.9038,1.9098,1.9098,1.9045,1.8357,1.8277,1.9046,1.7922,1.7298,1.7446,1.7399,1.7225,1.7768,1.7875,1.7074,2.7519,2.7431,2.6532,2.6268,2.6488,2.6047,2.6003,2.618,2.5533,2.4378,2.2904,2.2904,2.2105,2.0704,2.0659,2.0732,2.0806,2.0868,1.9918,0.0,1.8006,1.6314,1.3673,1.5077,1.5138,1.4197,1.5653,1.6569,1.6769,1.6769,1.7587,1.8948,1.9331,2.0145,2.1473,2.3343,2.4233,2.4027,2.3366,2.308,2.3239,2.5764,2.7071,2.7,2.857,2.7955,2.4897,2.456,2.2947,2.001,1.9597,1.9714,2.0297,2.0209,2.0394,2.0911,1.9436,1.8676,1.8995,1.752,1.6744,1.7142,1.7101,1.5019,1.0159,1.0977,1.1776,1.1871,1.2936,1.3788,1.4018,1.4186,1.4483,1.4702,1.5812,1.6704,1.6964,1.835,1.9435,1.9538,1.9854,2.0095,2.0327,2.1297,2.2125,2.2405,2.3095,2.4251,2.3325,2.1172,1.9188,1.8713,1.8538,1.835,1.7961,1.8289,1.8029,1.835,1.8129,1.7915,1.7861,1.7922,1.7922,1.8182,1.7017,1.6787,1.7714,1.5895,1.5164,1.5769,1.5272,1.458,1.5442,1.5875,1.4988,2.3423,2.3334,2.2319,2.2765,2.4133,2.4044,2.4864,2.5945,0.0,0.0,0.0,1.9968,2.0046,2.0198,2.0119,2.0427,2.0689,1.9201,1.8282,1.7836,1.5379,1.3116,1.122,1.2374,1.2045,1.0461,1.2313,1.3913,1.517,1.517,1.5991,1.7491,1.8804,1.9562,1.9954,2.1473,2.182,2.0903,2.0714,2.0915,2.1631,2.3661,2.44,2.3783,2.5909,2.6458,2.5181,2.3654,2.2457,2.1829,2.0338,1.9302,1.8993,1.8298,1.7761,1.7391,1.5298,1.4165,1.4515,1.2437,1.1338,1.185,1.1471,1.0674,0.9401,0.8831,0.867,0.8879,0.9328,1.005,1.101,1.2016,1.3043,1.3979,1.4371,1.4572,1.4725,1.61,1.7036,1.7061,1.8051,1.8902,1.8886,1.9158,1.946,1.9691,2.0204,2.0151,1.999,1.9373,1.8248,1.7032,1.5936,1.5011,1.4915,1.507,1.4926,1.5149,1.5005,1.4872,1.4872,1.4872,1.4872,1.4988,1.471,1.4543,1.4776,1.4317,1.4182,1.4403,1.4128,1.3795,1.3138,1.3322,1.3294,2.1197,0.0,2.0329,2.0546,0.0,2.136,2.19,2.2516,2.0228,1.8706,1.7867,1.7867,1.7499,1.6904,1.6904,1.6991,1.7201,1.5419,1.4504,1.4248,1.1934,1.011,0.8798,1.0349,1.0404,0.9321,1.1219,1.2541,1.3295,1.3295,1.4234,1.6009,1.6229,1.7285,1.9001,1.911,1.9112,1.904,1.9487,1.9935,2.0295,2.155,2.2017,2.1714,0.0,0.0,0.0,0.0,0.0,0.0,0.0,0.0,0.0,0.0,0.0,1.4934,1.2692,1.115,1.0456,0.8608,0.7767,0.8546,0.8406,0.7746,0.6478,0.7103,0.7136,0.6131,0.7854,0.8937,0.8991,1.0165,1.1408,1.2384,1.2638,1.2962,1.36,1.4459,1.501,1.5158,1.5755,1.6229,1.6104,1.676,1.7388,1.7419,1.8172,1.8926,1.8746,1.7318,1.5909,1.4977,1.4037,1.3637,1.3613,1.3631,1.3611,1.3611,1.3611,1.3616,1.3611,1.2759,1.2017,1.1964,1.1116,1.0857,1.171,1.2026,1.2352,1.3281,1.3615,1.2617,0.9214,0.8789,0.8859,1.9001,1.8917,1.8443,1.8409,1.8688,1.8243,1.8056,1.8065,1.8065,1.7235,1.5863,1.5828,1.5026,1.3719,1.3687,1.3542,1.3164,1.1937,1.1038,1.0335,0.8925,0.7593,0.6561,0.8303,0.8872,0.8636,1.0396,1.1504,1.1876,1.1876,1.2847,1.4707,1.4216,1.5405,1.8113,0.0,0.0,0.0,1.8856,1.9391,1.9553,2.0064,2.0252,2.0119,2.144,0.0,2.0076,1.9948,1.9358,1.8152,1.8018,0.0,0.0,0.0,0.0,0.0,0.0,0.0,0.0,0.0,0.0,0.0,0.5947,0.5234,0.3842,0.5484,0.5853,0.394,0.668,0.8308,0.7506,0.8604,0.9945,1.1077,1.1433,1.1938,1.2904,1.3257,1.3442,1.3674,1.369,1.3632,1.3651,1.4675,1.5495,1.5426,1.668,1.7438,1.6921,1.397,1.209,1.2029,1.1819,1.1933,1.2025,1.1899,1.1707,1.2029,1.2034,1.1936,1.174,1.0492,0.9553,0.9509,0.8153,0.7689,0.9178,0.9523,1.006,1.1651,1.1966,1.0619,0.6078,0.5037,0.4621,1.5263,1.5228,1.4735,1.5448,1.6723,1.4696,1.3816,1.3816,1.3816,1.3694,1.3498,1.3498,1.3383,1.3152,1.3361,1.2588,1.1115,1.1091,1.0244,0.8634,0.7656,0.6239,0.4547,0.5715,0.6312,0.6326,0.8455,1.0304,1.183,1.1876,1.2571,1.3962,1.5179,1.6316,1.7215,1.6129,1.6354,1.8073,1.8509,1.9169,1.991,2.0043,1.9686,1.8964,1.9534,1.9383,1.8436,1.835,1.828,1.8073,1.7713,1.6913,1.5513,1.3782,1.1827,0.0,0.7548,0.0,0.0,0.0,0.0,0.0,0.0,0.0,0.0,0.3851,0.3761,0.2801,0.4876,0.6407,0.6721,0.7823,0.9371,1.1494,1.1808,1.199,1.2441,1.2579,1.2611,1.2637,1.2642,1.2721,1.2919,1.3294,1.3617,1.366,1.3992,1.3427,1.1295,0.9325,0.811,0.7792,0.7775,0.8231,0.814,0.7956,0.7986,0.7886,0.8031,0.7792,0.7986,0.7629,0.7375,0.732,0.6897,0.6896,0.7313,0.7399,0.748,0.786,0.78,0.7012,0.5144,0.4504,0.4821,1.3706,1.3665,1.3451,1.3859,1.4541,1.3498,1.3067,1.3067,1.3067,1.3067,1.3067,1.3067,1.3067,1.3034,1.3159,1.2721,1.1937,1.1051,0.9971,0.8637,0.7386,0.5541,0.3299,0.4916,0.5761,0.5812,0.7778,0.9612,1.1356,1.145,1.1927,1.2858,1.3657,1.4693,1.5865,1.5547,1.6289,1.8082,1.8234,1.8792,1.9677,1.9714,1.9538,1.9146,1.9335,1.921,1.8861,1.8549,1.839,1.838,1.8045,1.6955,1.5144,1.348,1.1167,0.0,0.0,0.0,0.0,0.0,0.0,0.0,0.0,0.0,0.0,0.0,0.1673,0.0,0.3432,0.0,0.3036,0.4803,0.6708,0.8559,0.8284,0.8869,1.1114,1.1076,1.1143,1.1646,1.1927,1.2074,1.21,1.2306,1.2496,1.2683,1.0942,0.9241,0.7948,0.7158,0.6561,0.6569,0.6598,0.659,0.6552,0.6589,0.6567,0.657,0.657,0.657,0.657,0.5618,0.4764,0.4363,0.3411,0.2946,0.3798,0.3978,0.446,0.4986,0.3917,0.2239,0.153,0.1406,0.1297,1.2698,1.2954,1.1988,1.1823,1.217,1.2176,1.2449,1.2816,1.2823,1.2737,1.2618,1.2803,1.2704,1.2446,1.2512,1.2345,1.1996,1.07,0.9543,0.8516,0.721,0.5517,0.3519,0.4895,0.5747,0.6175,0.7501,0.917,1.0884,1.0821,1.1167,1.1968,1.2215,1.3014,1.4333,1.5061,1.6249,1.7789,1.8082,1.854,1.922,1.9247,1.9289,1.9247,1.9188,1.9299,1.9664,1.896,1.8721,1.9018,1.7972,1.649,1.4643,1.2943,0.0,0.0,0.0,0.0,0.0,0.0,0.0,0.0,0.0,0.1215,0.061,0.0,0.0423,0.0,0.2357,0.206,0.03,0.2262,0.0,0.0,0.5219,0.6043,0.899,0.9266,0.9484,1.0248,1.0986,1.1365,1.1244,1.1168,1.1193,1.131,0.8171,0.5716,0.5493,0.5107,0.4727,0.4649,0.4636,0.4737,0.4629,0.4773,0.463,0.476,0.47,0.4784,0.4736,0.3385,0.2225,0.179,0.0436,0.0,0.1016,0.1069,0.1559,0.2294,0.0379,-0.1831,-0.1759,-0.1637,-0.1788,1.1718,1.2683,0.9041,0.8381,0.9768,0.9809,1.0742,1.2267,1.2312,1.2007,1.1465,1.2029,1.1715,1.0687,1.0951,0.0,0.9274,0.9374,0.8749,0.7497,0.7017,0.6454,0.5933,0.5615,0.6149,0.7416,0.758,0.8645,1.0437,1.0076,1.0525,1.1851,1.1889,1.2141,1.2707,1.4654,1.6138,1.7028,1.8082,1.8614,1.871,1.876,1.876,1.871,1.8384,1.889,2.0207,1.8931,1.8803,2.0037,1.7047,1.4656,1.3356,0.0,0.0,0.0,0.0,0.0,0.0,0.0,0.0,0.0,0.0,0.0,0.0,0.0,0.0,0.0,0.1957,0.0,0.0426,0.174,0.0,0.0,0.0,0.5153,0.5936,0.7019,0.7848,0.8176,0.0,0.0,1.0534,0.0,0.8972,0.9027,0.5775,0.3388,0.3385,0.1789,0.0476,0.0,0.0,0.0,0.0,0.0,0.0,0.0,0.0471,0.0698,0.0651,0.0373,0.0326,0.0187,0.0093,-0.0047,0.0093,-0.0283,-0.0914,-0.1853,-0.2484,-0.2793,-0.2689,-0.2601,-0.2563,0.8904,0.9221,0.7671,0.7394,0.7967,0.8006,0.898,1.0609,1.0579,1.0851,1.1293,1.1531,1.1257,1.0494,1.0607,0.0,0.0,0.0,0.9667,0.9022,0.9047,0.8278,0.6947,0.6802,0.705,0.7578,0.7578,0.8556,1.0476,1.0296,0.9899,0.9271,0.0,0.0,1.1061,1.3009,1.4729,1.6203,1.757,1.8289,1.8329,1.8329,1.8298,1.8289,1.8173,1.8776,2.0331,1.9578,1.9196,1.9328,1.7755,1.5775,0.0,0.0,0.0,0.0,0.0,0.0,0.0,0.0,0.0,0.0,0.0,0.189,0.0,0.0,0.0,0.0,0.0064,-0.0289,-0.0417,0.0659,0.0,0.0,0.0,0.0,0.0,0.0,0.0,0.5572,0.6417,0.7392,0.8517,0.6859,0.5656,0.6075,0.3299,0.1247,0.124,0.0,0.0,0.0,0.0,0.0,0.0,0.0,0.0,0.0,-0.0265,-0.0446,-0.0492,-0.0684,-0.0926,-0.1205,-0.1298,-0.1425,-0.1706,-0.168,-0.1796,-0.2335,-0.2647,-0.277,-0.2822,-0.2727,-0.2603,0.5314,0.0,0.0,0.0,0.0,0.6714,0.7912,0.9793,0.9828,1.0192,1.0792,1.1255,0.0,0.0,0.0,0.0,0.0,0.0,1.0377,1.0268,1.0585,0.9845,0.817,0.8205,0.8114,0.7988,0.7891,0.8534,0.9838,0.9882,0.9099,0.7578,0.0,0.0,0.0,0.0,1.3374,1.5026,1.6921,1.7917,1.7917,1.8027,1.8036,1.7917,1.7798,1.8656,2.063,1.9701,1.9118,1.9131,1.766,0.0,0.0,0.0,0.0,0.0,0.0,0.0,0.0,0.0,0.0,0.0,0.0,0.0,0.0,0.0,0.0,0.0,0.0,0.0,-0.09,-0.0254,0.0448,0.0,0.0,0.0,0.0,0.0,0.0,0.0,0.0,0.0,0.6287,0.4266,0.3155,0.0,0.0,0.0959,0.0421,0.0589,0.0612,0.0077,0.0,0.0,0.0,0.0,0.0,0.0,-0.0336,-0.056,-0.0557,-0.0782,-0.11,-0.1407,-0.1643,-0.1936,-0.2429,-0.2257,-0.204,-0.2078,-0.224,-0.2421,-0.2465,-0.2468,-0.2478,0.0,0.0,0.0,0.0,0.0,0.0,0.0,0.0,1.0468,1.0133,0.0,1.1311,0.0,0.0,0.0,0.0,0.0,0.0,0.0,0.0,1.1069,1.0954,0.9969,0.9699,0.9416,0.9092,0.8531,0.8356,0.8438,0.8433,0.0,0.0,0.0,0.0,0.0,0.0,1.2367,1.3333,1.6025,1.7523,1.7484,1.788,1.785,1.7523,1.7166,1.8388,2.1236,1.8894,1.8312,2.0173,1.6168,0.0,0.0,0.0,0.0,0.0,0.0,0.0,0.0,0.0,0.0,0.0,0.0,0.0,0.0,0.0,0.0,0.0,0.0,0.0,0.0,-0.0782,0.0,0.0,0.0,0.0,0.0,0.0,0.0,0.0,0.0,0.0,0.4121,0.2427,0.2157,0.4559,0.0,0.0,0.0,0.0,0.1992,0.0,0.0,0.0,0.0,0.0,0.0,0.0,0.0,0.0,-0.0041,-0.004,-0.0116,-0.0077,-0.0599,-0.1039,-0.1672,-0.1759,-0.1732,-0.1771,-0.1731,-0.1762,-0.1819,-0.2085,-0.2292,0.0,0.0,0.0,0.0,0.0,0.0,0.0,0.0,0.0,1.0617,0.0,1.1418,0.0,0.0,0.0,0.0,0.0,0.0,0.0,0.0,0.9566,0.9431,0.9213,0.8964,0.8769,0.0,0.8471,0.8047,0.0,0.0,0.0,0.0,0.0,0.0,0.0,0.0,1.0892,1.1296,1.4349,1.6003,1.6003,1.6842,1.7229,1.7101,1.6955,1.796,2.0221,1.9625,1.9277,0.0,0.0,0.0,0.0,0.0,0.0,0.0,0.0,0.0,0.0,0.0,0.0,0.0,0.0,0.0,0.0,0.0,0.0,0.0,0.0,0.0,0.0,0.0,0.195,0.0,0.0,0.0,0.0,0.0,0.0,0.0,0.0,0.0,0.482,0.4123,0.4072,0.5756,0.4868,0.3952,0.3631,0.0,0.0,0.0,0.0,0.0,0.0,0.0,0.0,0.0,0.0,-0.0069,-0.0425,-0.0721,-0.0909,-0.091,0.0,0.0,-0.1147,-0.0712,-0.0598,-0.1335,-0.0882,-0.0599,-0.1351,-0.1553,-0.158,0.0,0.0,0.0,0.0,0.0,0.0,0.0,0.0,0.0,1.0754,1.1146,0.0,0.0,0.0,0.0,0.0,0.0,0.0,0.0,0.0,0.0,0.0,0.8397,0.821,0.0,0.0,0.0,0.0,0.0,0.0,0.0,0.0,0.0,0.0,0.0,0.0,1.0645,1.0675,1.3943,1.57,1.558,1.6439,1.6918,1.6909,1.7184,1.7825,1.8812,0.0,0.0,0.0,0.0,0.0,0.0,0.0,0.0,0.0,0.0,0.0,0.0,0.0,0.0,0.0,0.0,0.0,0.0,0.0,0.0,0.0,0.0,0.0,0.0,0.0,0.3089,0.0,0.0,0.0,0.0,0.0,0.0,0.0,0.0,0.0,0.0,0.0,0.5059,0.6162,0.581,0.5336,0.5086,0.4118,0.3225,0.0,0.0,0.0,0.0,0.0,0.0,0.0,0.0,0.0,0.0,0.0,0.0,0.0,0.0,0.0,0.0446,0.0933,0.1055,0.0296,0.0,0.0,0.0,0.0,0.0,0.0,0.0,0.0,0.0,0.0,0.0,0.0,0.0,0.0,0.0,0.0,0.0,0.0,1.0687,0.0,0.0,0.0,0.0,0.0,0.0,0.0,0.0,0.0,0.0,0.0,0.0,0.0,0.0,0.0,0.0,0.0,0.0,0.0,0.0,0.0,0.0,1.1549,1.1274,1.4845,1.6616,1.6268,1.6689,1.6872,1.6974,1.7756,1.7975,1.7425,0.0,0.0,0.0,0.0,0.0,0.0,0.0,0.0,0.0,0.0,0.0,0.0,0.0,0.0,0.0,0.0,0.0,0.0,0.0,0.0,0.0,0.0,0.0,0.0,0.0,0.0,0.2519,0.3054,0.3681,0.0,0.0,0.0,0.0,0.0,0.0,0.0,0.0,0.0,0.0,0.7132,0.7523,0.5801,0.5361,0.4567,0.2945,0.119,0.0,0.0,0.0,0.0,0.0,0.0,0.0,0.0,0.0,0.0,0.0,0.0,0.0,0.0,0.0,0.0,0.0,0.0,0.0,0.0,0.0,0.0,0.0,0.0,0.0,0.0,0.0,0.0,0.0,0.0,0.0,0.0,0.0,0.0,0.0,0.0,0.0,0.0,0.0,0.0,0.0,0.0,0.0,0.0,0.0,0.0,0.0,0.0,0.0,0.0,0.0,0.0,0.0,0.0,0.0,0.0,0.0,0.0,1.0172,1.0067,1.3234,1.4816,1.4679,1.5614,1.6556,1.7411,1.7275,1.765,0.0,0.0,0.0,0.0,0.0,0.0,0.0,0.0,0.0,0.0,0.0,0.0,0.0,0.0,0.0,0.0,0.0,0.0,0.0,0.0,0.0,0.0,0.0,0.0,0.0,0.0,0.0,0.0,0.5974,0.6576,0.6521,0.0,0.0,0.0,0.0,0.0,0.0,0.0,0.0,0.0,0.0,0.8225,0.8043,0.6299,0.5094,0.5373,0.3352,0.2061,0.2785,0.3176,0.3278,0.2936,0.0,0.0,0.0,0.0,0.0,0.0,0.0,0.0,0.0,0.0,0.0,0.0,0.0,0.0,0.0,0.0,0.0,0.0,0.0,0.0,0.0,0.0,0.0,0.0,0.0,0.0,0.0,0.0,0.0,0.0,0.0,0.0,0.0,0.0,0.0,0.0,0.0,0.0,0.0,0.0,0.0,0.0,0.0,0.0,0.0,0.0,0.0,0.0,0.0,0.0,0.0,0.0,0.0,1.0123,1.0022,1.3096,1.4562,1.4476,1.529,1.6382,1.7636,1.7377,1.8061,0.0,0.0,0.0,0.0,0.0,0.0,0.0,0.0,0.0,0.0,0.0,0.0,0.0,0.0,0.0,0.0,0.0,0.0,0.0,0.0,0.0,0.0,0.0,0.0,0.0,0.0,0.0,0.0,0.766,0.8097,0.7632,0.0,0.0,0.0,0.0,0.0,0.0,0.0,0.0,0.0,0.0,0.797,0.8351,0.6054,0.0,0.0,0.4034,0.276,0.3817,0.4299,0.4278,0.3463,0.3708,0.0,0.0,0.0,0.0,0.0,0.0,0.0,0.0,0.0,0.0,0.0,0.0,0.0,0.0,0.0,0.0,0.0,0.0,0.0,0.0,0.0,0.0,0.0,0.0,0.0,0.0,0.0,0.0,0.0,0.0,0.0,0.0,0.0,0.0,0.0,0.0,0.0,0.0,0.0,0.0,0.0,0.0,0.0,0.0,0.0,0.0,0.0,0.0,0.0,0.0,0.0,0.0,0.0,1.0791,1.398,1.5473,1.5142,1.5532,1.6432,1.7702,1.7989,1.8981,0.0,0.0,0.0,0.0,0.0,0.0,0.0,0.0,0.0,0.0,0.0,0.0,0.0,0.0,0.0,0.0,0.0,0.0,0.0,0.0,0.0,0.0,0.0,0.0,0.0,0.0,0.0,0.0,0.0,0.0,0.0,0.0,0.0,0.0,0.0,0.0,0.0,0.0,0.0,0.0,0.0,0.7205,0.7388,0.5311,0.4252,0.0,0.0,0.2833,0.4046,0.4354,0.3982,0.2718,0.0,0.0,0.0,0.0,0.0,0.0,0.0,0.0,0.0,0.0,0.0,0.0,0.0,0.0,0.0,0.0,0.0,0.0,0.0,0.0,0.0,0.0,0.0,0.0,0.0,0.0,0.0,0.0,0.0,0.0,0.0,0.0,0.0,0.0,0.0,0.0,0.0,0.0,0.0,0.0,0.0,0.0,0.0,0.0,0.0,0.0,0.0,0.0,0.0,0.0,0.0,0.0,0.0,0.0,1.0776,1.3429,1.4815,1.4755,1.5739,1.6976,1.821,1.8431,0.0,0.0,0.0,0.0,0.0,0.0,0.0,0.0,0.0,0.0,0.0,0.0,0.0,0.0,0.0,0.0,0.0,0.0,0.0,0.0,0.0,0.0,0.0,0.0,0.0,0.0,0.0,0.7807,0.0,0.0,0.0,0.0,0.0,0.0,0.0,0.0,0.0,0.0,0.0,0.0,0.0,0.0,0.8705,0.9419,0.7746,0.7051,0.0,0.0,0.5767,0.7418,0.7641,0.7273,0.0,0.0,0.0,0.0,0.0,0.0,0.0,0.0,0.0,0.0,0.0,0.0,0.0,0.0,0.0,0.0,0.0,0.0,0.0,0.0,0.0,0.0,0.0,0.0,0.0,0.0,0.0,0.0,0.0,0.0,0.0,0.0,0.0,0.0,0.0,0.0,0.0,0.0,0.0,0.0,0.0,0.0,0.0,0.0,0.0,0.0,0.0,0.0,0.0,0.0,0.0,0.0,0.0,0.0,1.1205,1.1363,1.3275,1.4422,1.4611,1.5275,1.6597,1.8397,1.8044,1.9044,0.0,0.0,0.0,0.0,0.0,0.0,0.0,0.0,0.0,0.0,0.0,0.0,0.0,0.0,0.0,0.0,0.0,0.0,0.0,0.0,0.0,0.0,0.0,0.0,0.0,0.0,0.0,0.0,0.0,0.0,0.0,0.0,0.0,0.0,0.0,0.0,0.0,0.0,0.0,0.0,0.0,0.0,0.9849,0.8385,0.0,0.0,0.0,0.7819,0.9352,0.0,0.0,0.0,0.0,0.0,0.0,0.0,0.0,0.0,0.0,0.0,0.0,0.0,0.0,0.0,0.0,0.0,0.0,0.0,0.0,0.0,0.0,0.0,0.0,0.0,0.0,0.0,0.0,0.0,0.0,0.0,0.0,0.0,0.0,0.0,0.0,0.0,0.0,0.0,0.0,0.0,0.0,0.0,0.0,0.0,0.0,0.0,0.0,0.0,0.0,0.0,0.0,0.0,0.0,0.0,0.0,0.0,1.2078,1.3344,1.4169,1.457,1.4905,1.6116,1.8365,1.7816,1.9057,0.0,0.0,0.0,0.0,0.0,0.0,0.0,0.0,0.0,0.0,0.0,0.0,0.0,0.0,0.0,0.0,0.0,0.0,0.0,0.0,0.0,0.0,0.0,0.0,0.0,0.0,0.0,0.0,0.0,0.0,0.0,0.0,0.0,0.0,0.0,0.0,0.0,0.0,0.0,0.0,0.0,0.934,1.0225,0.889,0.8294,0.0,0.0,0.9659,1.084,1.1097,0.0,0.0,0.0,0.0,0.0,0.0,0.0,0.0,0.0,0.0,0.0,0.0,0.0,0.0,0.0,0.0,0.0,0.0,0.0,0.0,0.0,0.0,0.0,0.0,0.0,0.0,0.0,0.0,0.0,0.0,0.0,0.0,0.0,0.0,0.0,0.0,0.0,0.0,0.0,0.0,0.0,0.0,0.0,0.0,0.0,0.0,0.0,0.0,0.0,0.0,0.0,0.0,0.0,0.0,0.0,0.0,1.2078,1.3344,1.4191,1.4665,1.6628,1.791,1.849,2.0735,2.1833,0.0,0.0,0.0,0.0,0.0,0.0,0.0,0.0,0.0,0.0,0.0,0.0,0.0,0.0,0.0,0.0,0.0,0.0,0.0,0.0,0.0,0.0,0.0,0.0,0.0,0.0,0.0,0.0,0.0,0.0,0.0,0.0,0.0,0.0,0.0,0.0,0.0,0.0,0.0,0.0,0.0,1.3521,1.4912,1.3769,0.0,0.0,0.0,0.0,1.4027,1.3391,0.0,0.0,0.0,0.0,0.0,0.0,0.0,0.0,0.0,0.0,0.0,0.0,0.0,0.0,0.0,0.0,0.0,0.0,0.0,0.0,0.0,0.0,0.0,0.0,0.0,0.0,0.0,0.0,0.0,0.0,0.0,0.0,0.0,0.0,0.0,0.0,0.0,0.0,0.0,0.0,0.0,0.0,0.0,0.0,0.0,0.0,0.0,0.0,0.0,0.0,0.0,0.0,0.0,0.0,0.0,0.0,1.33,1.3527,1.4249,1.5508,1.6817,1.7817,1.8521,2.1021,2.2016,0.0,0.0,0.0,0.0,0.0,0.0,0.0,0.0,0.0,0.0,0.0,0.0,0.0,0.0,0.0,0.0,0.0,0.0,0.0,0.0,0.0,0.0,0.0,0.0,0.0,0.0,0.0,0.0,0.0,0.0,0.0,0.0,0.0,0.0,0.0,0.0,0.0,0.0,0.0,0.0,1.5374,1.5542,1.6146,0.0,0.0,0.0,0.0,0.0,0.0,1.5198,1.4517,0.0,0.0,0.0,0.0,0.0,0.0,0.0,0.0,0.0,0.0,0.0,0.0,0.0,0.0,0.0,0.0,0.0,0.0,0.0,0.0,0.0,0.0,0.0,0.0,0.0,0.0,0.0,0.0,0.0,0.0,0.0,0.0,0.0,0.0,0.0,0.0,0.0,0.0,0.0,0.0,0.0,0.0,0.0,0.0,0.0,0.0,0.0,0.0,0.0,0.0,0.0,0.0,0.0,0.0,0.0,1.4789,1.4172,1.4631,1.6305,1.6899,1.7567,1.849,2.0604,2.1633,2.1501,0.0,0.0,0.0,0.0,0.0,0.0,0.0,0.0,0.0,0.0,0.0,0.0,0.0,0.0,0.0,0.0,0.0,0.0,0.0,0.0,0.0,0.0,0.0,0.0,0.0,0.0,0.0,0.0,0.0,0.0,0.0,0.0,0.0,0.0,0.0,0.0,0.0,0.0,0.0,1.7192,1.7308,0.0,0.0,0.0,0.0,0.0,0.0,0.0,0.0,1.7161,0.0,0.0,0.0,0.0,0.0,0.0,0.0,0.0,0.0,0.0,0.0,0.0,0.0,0.0,0.0,0.0,0.0,0.0,0.0,0.0,0.0,0.0,0.0,0.0,0.0,0.0,0.0,0.0,0.0,0.0,0.0,0.0,0.0,0.0,0.0,0.0,0.0,0.0,0.0,0.0,0.0,0.0,0.0,0.0,0.0,0.0,0.0,0.0,0.0,0.0,0.0,0.0,0.0,0.0,0.0,0.0,1.5934,1.615,1.5846,1.8401,1.9381,1.854,2.1649,2.2997,2.2233,0.0,0.0,0.0,0.0,0.0,0.0,0.0,0.0,0.0,0.0,0.0,0.0,0.0,0.0,0.0,0.0,0.0,0.0,0.0,0.0,0.0,0.0,0.0,0.0,0.0,0.0,0.0,0.0,0.0,0.0,0.0,0.0,0.0,0.0,0.0,0.0,0.0,0.0,2.0888,2.0917,0.0,0.0,0.0,0.0,0.0,0.0,0.0,0.0,2.1272,0.0,0.0,0.0,0.0,0.0,0.0,0.0,0.0,0.0,0.0,0.0,0.0,0.0,0.0,0.0,0.0,0.0,0.0,0.0,0.0,0.0,0.0,0.0,0.0,0.0,0.0,0.0,0.0,0.0,0.0,0.0,0.0,0.0,0.0,0.0,0.0,0.0,0.0,0.0,0.0,0.0,0.0,0.0,0.0,0.0,0.0,0.0,0.0,0.0,0.0,0.0,0.0,0.0,0.0,0.0,0.0,0.0,0.0,1.6844,1.7745,1.9507,2.0103,1.9628,2.1788,2.3111,0.0,0.0,0.0,0.0,0.0,0.0,0.0,0.0,0.0,0.0,0.0,0.0,0.0,0.0,0.0,0.0,0.0,0.0,0.0,0.0,0.0,0.0,0.0,0.0,0.0,0.0,0.0,0.0,0.0,0.0,0.0,0.0,0.0,0.0,0.0,0.0,0.0,0.0,0.0,0.0,0.0,0.0,0.0,0.0,0.0,0.0,0.0,0.0,0.0,0.0,0.0,0.0,0.0,0.0,0.0,0.0,0.0,0.0,0.0,0.0,0.0,0.0,0.0,0.0,0.0,0.0,0.0,0.0,0.0,0.0,0.0,0.0,0.0,0.0,0.0,0.0,0.0,0.0,0.0,0.0,0.0,0.0,0.0,0.0,0.0,0.0,0.0,0.0,0.0,0.0,0.0,0.0,0.0,0.0,0.0,0.0,0.0,0.0,0.0,0.0,0.0,0.0,0.0,0.0,0.0,0.0,0.0,0.0,1.7719,1.9377,2.0351,2.0828,2.0832,2.182,2.2891,0.0,0.0,0.0,0.0,0.0,0.0,0.0,0.0,0.0,0.0,0.0,0.0,0.0,0.0,0.0,0.0,0.0,0.0,0.0,0.0,0.0,0.0,0.0,0.0,0.0,0.0,0.0,0.0,0.0,0.0,0.0,0.0,0.0,0.0,0.0,0.0,0.0,0.0,0.0,0.0,0.0,0.0,0.0,0.0,0.0,0.0,0.0,0.0,2.6003,0.0,0.0,0.0,0.0,0.0,0.0,0.0,0.0,0.0,0.0,0.0,0.0,0.0,0.0,0.0,0.0,0.0,0.0,0.0,0.0,0.0,0.0,0.0,0.0,0.0,0.0,0.0,0.0,0.0,0.0,0.0,0.0,0.0,0.0,0.0,0.0,0.0,0.0,0.0,0.0,0.0,0.0,0.0,0.0,0.0,0.0,0.0,0.0,0.0,0.0,0.0,0.0,0.0,0.0,0.0,0.0,0.0,0.0,0.0,1.9688,1.8808,2.1076,2.2261,2.2164,2.2263,2.259,0.0,0.0,0.0,0.0,0.0,0.0,0.0,0.0,0.0,0.0,0.0,0.0,0.0,0.0,0.0,0.0,0.0,0.0,0.0,0.0,0.0,0.0,0.0,0.0,0.0,0.0,0.0,0.0,0.0,0.0,0.0,0.0,0.0,0.0,0.0,0.0,0.0,0.0,0.0,0.0,0.0,0.0,0.0,0.0,0.0,0.0,0.0,0.0,0.0,0.0,0.0,0.0,0.0,0.0,0.0,0.0,0.0,0.0,0.0,0.0,0.0,0.0,0.0,0.0,0.0,0.0,0.0,0.0,0.0,0.0,0.0,0.0,0.0,0.0,0.0,0.0,0.0,0.0,0.0,0.0,0.0,0.0,0.0,0.0,0.0,0.0,0.0,0.0,0.0,0.0,0.0,0.0,0.0,0.0,0.0,0.0,0.0,0.0,0.0,0.0,0.0,0.0,0.0,0.0,0.0,0.0,0.0,0.0,2.0189,2.0689,2.1617,2.2538,2.3458,2.2963,2.3113,0.0,0.0,0.0,0.0,0.0,0.0,0.0,0.0,0.0,0.0,0.0,0.0,0.0,0.0,0.0,0.0,0.0,0.0,0.0,0.0,0.0,0.0,0.0,0.0,0.0,0.0,0.0,0.0,0.0,0.0,0.0,0.0,0.0,0.0,0.0,0.0,0.0,0.0,0.0,0.0,0.0,0.0,0.0,0.0,0.0,0.0,0.0,0.0,0.0,0.0,0.0,0.0,0.0,0.0,0.0,0.0,0.0,0.0,0.0,0.0,0.0,0.0,0.0,0.0,0.0,0.0,0.0,0.0,0.0,0.0,0.0,0.0,0.0,0.0,0.0,0.0,0.0,0.0,0.0,0.0,0.0,0.0,0.0,0.0,0.0,0.0,0.0,0.0,0.0,0.0,0.0,0.0,0.0,0.0,0.0,0.0,0.0,0.0,0.0,0.0,0.0,0.0,0.0,0.0,0.0,0.0,0.0,0.0,0.0,2.2305,2.2241,2.2669,2.3597,2.3164,2.354,0.0,0.0,0.0,0.0,0.0,0.0,0.0,0.0,0.0,0.0,0.0,0.0,0.0,0.0,0.0,0.0,0.0,0.0,0.0,0.0,0.0,0.0,0.0,0.0,0.0,0.0,0.0,0.0,0.0,0.0,0.0,0.0,0.0,0.0,0.0,0.0,0.0,0.0,0.0,0.0,0.0,0.0,0.0,0.0,0.0,0.0,0.0,0.0,0.0,0.0,0.0,0.0,0.0,0.0,0.0,0.0,0.0,0.0,0.0,0.0,0.0,0.0,0.0,0.0,0.0,0.0,0.0,0.0,0.0,0.0,0.0,0.0,0.0,0.0,0.0,0.0,0.0,0.0,0.0,0.0,0.0,0.0,0.0,0.0,0.0,0.0,0.0,0.0,0.0,0.0,0.0,0.0,0.0,0.0,0.0,0.0,0.0,0.0,0.0,0.0,0.0,0.0,0.0,0.0,0.0,0.0,0.0,0.0,0.0,2.3077,2.3167,2.2855,2.2041,2.2615,2.3489,0.0,0.0,0.0,0.0,0.0,0.0,0.0,0.0,0.0,0.0,0.0,0.0,0.0,0.0,0.0,0.0,0.0,0.0,0.0,0.0,0.0,0.0,0.0,0.0,0.0,0.0,0.0,0.0,0.0,0.0,0.0,0.0,0.0,0.0,0.0,0.0,0.0,0.0,0.0,0.0,0.0,0.0,0.0,0.0,0.0,0.0,0.0,0.0,0.0,0.0,0.0,0.0,0.0,0.0,0.0,0.0,0.0,0.0,0.0,0.0,0.0,0.0,0.0,0.0,0.0,0.0,0.0,0.0,0.0,0.0,0.0,0.0,0.0,0.0,0.0,0.0,0.0,0.0,0.0,0.0,0.0,0.0,0.0,0.0,0.0,0.0,0.0,0.0,0.0,0.0,0.0,0.0,0.0,0.0,0.0,0.0,0.0,0.0,0.0,0.0,0.0,0.0,0.0,0.0,0.0,0.0,0.0,0.0,0.0,2.6467,2.4979,2.4022,2.3982,2.4166,2.4375,2.4735,0.0,0.0,0.0,0.0,0.0,0.0,0.0,0.0,0.0,0.0,0.0,0.0,0.0,0.0,0.0,0.0,0.0,0.0,0.0,0.0,0.0,0.0,0.0,0.0,0.0,0.0,0.0,0.0,0.0,0.0,0.0,0.0,0.0,0.0,0.0,0.0,0.0,0.0,0.0,0.0,0.0,0.0,0.0,0.0,0.0,0.0,0.0,0.0,0.0,0.0,0.0,0.0,0.0,0.0,0.0,0.0,0.0,0.0,0.0,0.0,0.0,0.0,0.0,0.0,0.0,0.0,0.0,0.0,0.0,0.0,0.0,0.0,0.0,0.0,0.0,0.0,0.0,0.0,0.0,0.0,0.0,0.0,0.0,0.0,0.0,0.0,0.0,0.0,0.0,0.0,0.0,0.0,0.0,0.0,0.0,0.0,0.0,0.0,0.0,0.0,0.0,0.0,0.0,0.0,0.0,0.0,0.0,0.0,2.8368,2.661,2.5609,2.5388,2.4993,2.5013,0.0,0.0,0.0,0.0,0.0,0.0,0.0,0.0,0.0,0.0,0.0,0.0,0.0,0.0,0.0,0.0,0.0,0.0,0.0,0.0,0.0,0.0,0.0,0.0,0.0,0.0,0.0,0.0,0.0,0.0,0.0,0.0,0.0,0.0,0.0,0.0,0.0,0.0,0.0,0.0,0.0,0.0,0.0,0.0,0.0,0.0,0.0,0.0,0.0,0.0,0.0,0.0,0.0,0.0,0.0,0.0,0.0,0.0,0.0,0.0,0.0,0.0,0.0,0.0,0.0,0.0,0.0,0.0,0.0,0.0,0.0,0.0,0.0,0.0,0.0,0.0,0.0,0.0,0.0,0.0,0.0,0.0,0.0,0.0,0.0,0.0,0.0,0.0,0.0,0.0,0.0,0.0,0.0,0.0,0.0,0.0,0.0,0.0,0.0,0.0,0.0,0.0,0.0,0.0,0.0,0.0,0.0,0.0,3.0607,2.7871,2.8193,2.7561,2.5752,2.4826,2.5196,0.0,0.0,0.0,0.0,0.0,0.0,0.0,0.0,0.0,0.0,0.0,0.0,0.0,0.0,0.0,0.0,0.0,0.0,0.0,0.0,0.0,0.0,0.0,0.0,0.0,0.0,0.0,0.0,0.0,0.0,0.0,0.0,0.0,0.0,0.0,0.0,0.0,0.0,0.0,0.0,0.0,0.0,0.0,0.0,0.0,0.0,0.0,0.0,0.0,0.0,0.0,0.0,0.0,0.0,0.0,0.0,0.0,0.0,0.0,0.0,0.0,0.0,0.0,0.0,0.0,0.0,0.0,0.0,0.0,0.0,0.0,0.0,0.0,0.0,0.0,0.0,0.0,0.0,0.0,0.0,0.0,0.0,0.0,0.0,0.0,0.0,0.0,0.0,0.0,0.0,0.0,0.0,0.0,0.0,0.0,0.0,0.0,0.0,0.0,0.0,0.0,0.0,0.0,0.0,0.0,0.0,0.0,0.0,0.0,3.2869,0.0,3.0768,0.0,2.7926,2.732,0.0,0.0,0.0,0.0,0.0,0.0,0.0,0.0,0.0,0.0,0.0,0.0,0.0,0.0,0.0,0.0,0.0,0.0,0.0,0.0,0.0,0.0,0.0,0.0,0.0,0.0,0.0,0.0,0.0,0.0,0.0,0.0,0.0,0.0,0.0,0.0,0.0,0.0,0.0,0.0,0.0,0.0,0.0,0.0,0.0,0.0,0.0,0.0,0.0,0.0,0.0,0.0,0.0,0.0,0.0,0.0,0.0,0.0,0.0,0.0,0.0,0.0,0.0,0.0,0.0,0.0,0.0,0.0,0.0,0.0,0.0,0.0,0.0,0.0,0.0,0.0,0.0,0.0,0.0,0.0,0.0,0.0,0.0,0.0,0.0,0.0,0.0,0.0,0.0,0.0,0.0,0.0,0.0,0.0,0.0,0.0,0.0,0.0,0.0,0.0,0.0,0.0,0.0,0.0,0.0,0.0,0.0,0.0,0.0,3.6078,3.4698,3.3568,3.2703,3.1022,2.9938,0.0,0.0,0.0,0.0,0.0,0.0,0.0,0.0,0.0,0.0,0.0,0.0,0.0,0.0,0.0,0.0,0.0,0.0,0.0,0.0,0.0,0.0,0.0,0.0,0.0,0.0,0.0,0.0,0.0,0.0,0.0,0.0,0.0,0.0,0.0,0.0,0.0,0.0,0.0,0.0,0.0,0.0,0.0,0.0,0.0,0.0,0.0,0.0,0.0,0.0,0.0,0.0,0.0,0.0,0.0,0.0,0.0,0.0,0.0,0.0,0.0,0.0,0.0,0.0,0.0,0.0,0.0,0.0,0.0,0.0,0.0,0.0,0.0,0.0,0.0,0.0,0.0,0.0,0.0,0.0,0.0,0.0,0.0,0.0,0.0,0.0,0.0,0.0,0.0,0.0,0.0,0.0,0.0,0.0,0.0,0.0,0.0,0.0,0.0,0.0,0.0,0.0,0.0,0.0,0.0,0.0,0.0,0.0,0.0,0.0,3.6886,3.5925,3.4821,3.3673,3.2828,0.0,0.0,0.0,0.0,0.0,0.0,0.0,0.0,0.0,0.0,0.0,0.0,0.0,0.0,0.0,0.0,0.0,0.0,0.0,0.0,0.0,0.0,0.0,0.0,0.0,0.0,0.0,0.0,0.0,0.0,0.0,0.0,0.0,0.0,0.0,0.0,0.0,0.0,0.0,0.0,0.0,0.0,0.0,0.0,0.0,0.0,0.0,0.0,0.0,0.0,0.0,0.0,0.0,0.0,0.0,0.0,0.0,0.0,0.0,0.0,0.0,0.0,0.0,0.0,0.0,0.0,0.0,0.0,0.0,0.0,0.0,0.0,0.0,0.0,0.0,0.0,0.0,0.0,0.0,0.0,0.0,0.0,0.0,0.0,0.0,0.0,0.0,0.0,0.0,0.0,0.0,0.0,0.0,0.0,0.0,0.0,0.0,0.0,0.0,0.0,0.0,0.0,0.0,0.0,0.0,0.0,0.0,0.0,0.0,0.0,3.8965,0.0,3.7253,3.5281,3.4003,3.3615,0.0,0.0,0.0,0.0,0.0,0.0,0.0,0.0,0.0,0.0,0.0,0.0,0.0,0.0,0.0,0.0,0.0,0.0,0.0,0.0,0.0,0.0,0.0,0.0,0.0,0.0,0.0,0.0,0.0,0.0,0.0,0.0,0.0,0.0,0.0,0.0,0.0,0.0,0.0,0.0,0.0,0.0,0.0,0.0,0.0,0.0,0.0,0.0,0.0,0.0,0.0,0.0,0.0,0.0,0.0,0.0,0.0,0.0,0.0,0.0,0.0,0.0,0.0,0.0,0.0,0.0,0.0,0.0,0.0,0.0,0.0,0.0,0.0,0.0,0.0,0.0,0.0,0.0,0.0,0.0,0.0,0.0,0.0,0.0,0.0,0.0,0.0,0.0,0.0,0.0,0.0,0.0,0.0,0.0,0.0,0.0,0.0,0.0,0.0,0.0,0.0,0.0,0.0,0.0,0.0,0.0,0.0,0.0,0.0,0.0,0.0,3.9405,3.7821,3.6635,0.0,0.0,0.0,0.0,0.0,0.0,0.0,0.0,0.0,0.0,0.0,0.0,0.0,0.0,0.0,0.0,0.0,0.0,0.0,0.0,0.0,0.0,0.0,0.0,0.0,0.0,0.0,0.0,0.0,0.0,0.0,0.0,0.0,0.0,0.0,0.0,0.0,0.0,0.0,0.0,0.0,0.0,0.0,0.0,0.0,0.0,0.0,0.0,0.0,0.0,0.0,0.0,0.0,0.0,0.0,0.0,0.0,0.0,0.0,0.0,0.0,0.0,0.0,0.0,0.0,0.0,0.0,0.0,0.0,0.0,0.0,0.0,0.0,0.0,0.0,0.0,0.0,0.0,0.0,0.0,0.0,0.0,0.0,0.0,0.0,0.0,0.0,0.0,0.0,0.0,0.0,0.0,0.0,0.0,0.0,0.0,0.0,0.0,0.0,0.0,0.0,0.0,0.0,0.0,0.0,0.0,0.0,0.0,0.0,0.0,0.0,4.0974,4.0943,4.0548,0.0,3.8747,0.0,0.0,0.0,0.0,0.0,0.0,0.0,0.0,0.0,0.0,0.0,0.0,0.0,0.0,0.0,0.0,0.0,0.0,0.0,0.0,0.0,0.0,0.0,0.0,0.0,0.0,0.0,0.0,0.0,0.0,0.0,0.0,0.0,0.0,0.0,0.0,0.0,0.0,0.0,0.0,0.0,0.0,0.0,0.0,0.0,0.0,0.0,0.0,0.0,0.0,0.0,0.0,0.0,0.0,0.0,0.0,0.0,0.0,0.0,0.0,0.0,0.0,0.0,0.0,0.0,0.0,0.0,0.0,0.0,0.0,0.0,0.0,0.0,0.0,0.0,0.0,0.0,0.0,0.0,0.0,0.0,0.0,0.0,0.0,0.0,0.0,0.0,0.0,0.0,0.0,0.0,0.0,0.0,0.0,0.0,0.0,0.0,0.0,0.0,0.0,0.0,0.0,0.0,0.0,0.0,0.0,0.0,0.0,0.0,0.0,0.0,0.0,4.0068,3.9881,3.9975,0.0,0.0,0.0,0.0,0.0,0.0,0.0,0.0,0.0,0.0,0.0,0.0,0.0,0.0,0.0,0.0,0.0,0.0,0.0,0.0,0.0,0.0,0.0,0.0,0.0,0.0,0.0,0.0,0.0,0.0,0.0,0.0,0.0,0.0,0.0,0.0,0.0,0.0,0.0,0.0,0.0,0.0,0.0,0.0,0.0,0.0,0.0,0.0,0.0,0.0,0.0,0.0,0.0,0.0,0.0,0.0,0.0,0.0,0.0,0.0,0.0,0.0,0.0,0.0,0.0,0.0,0.0,0.0,0.0,0.0,0.0,0.0,0.0,0.0,0.0,0.0,0.0,0.0,0.0,0.0,0.0,0.0,0.0,0.0,0.0,0.0,0.0,0.0,0.0,0.0,0.0,0.0,0.0,0.0,0.0,0.0,0.0,0.0,0.0,0.0,0.0,0.0,0.0,0.0,0.0,0.0,0.0,0.0,0.0,0.0,4.1083,4.088,4.0294,4.0132,4.039,0.0,0.0,0.0,0.0,0.0,0.0,0.0,0.0,0.0,0.0,0.0,0.0,0.0,0.0,0.0,0.0,0.0,0.0,0.0,0.0,0.0,0.0,0.0,0.0,0.0,0.0,0.0,0.0,0.0,0.0,0.0,0.0,0.0,0.0,0.0,0.0,0.0,0.0,0.0,0.0,0.0,0.0,0.0,0.0,0.0,0.0,0.0,0.0,0.0,0.0,0.0,0.0,0.0,0.0,0.0,0.0,0.0,0.0,0.0,0.0,0.0,0.0,0.0,0.0,0.0,0.0,0.0,0.0,0.0,0.0,0.0,0.0,0.0,0.0,0.0,0.0,0.0,0.0,0.0,0.0,0.0,0.0,0.0,0.0,0.0,0.0,0.0,0.0,0.0,0.0,0.0,0.0,0.0,0.0,0.0,0.0,0.0,0.0,0.0,0.0,0.0,0.0,0.0,0.0,0.0,0.0,0.0,0.0,0.0,0.0,0.0,0.0,0.0,0.0,4.0467,0.0,0.0,0.0,0.0,0.0,0.0,0.0,0.0,0.0,0.0,0.0,0.0,0.0,0.0,0.0,0.0,0.0,0.0,0.0,0.0,0.0,0.0,0.0,0.0,0.0,0.0,0.0,0.0,0.0,0.0,0.0,0.0,0.0,0.0,0.0,0.0,0.0,0.0,0.0,0.0,0.0,0.0,0.0,0.0,0.0,0.0,0.0,0.0,0.0,0.0,0.0,0.0,0.0,0.0,0.0,0.0,0.0,0.0,0.0,0.0,0.0,0.0,0.0,0.0,0.0,0.0,0.0,0.0,0.0,0.0,0.0,0.0,0.0,0.0,0.0,0.0,0.0,0.0,0.0,0.0,0.0,0.0,0.0,0.0,0.0,0.0,0.0,0.0,0.0,0.0,0.0,0.0,0.0,0.0,0.0,0.0,0.0,0.0,0.0,0.0,0.0,0.0,0.0,0.0,0.0,0.0,0.0,0.0,0.0,0.0,0.0,0.0,0.0,0.0,0.0,0.0,0.0,0.0,0.0,0.0,0.0,0.0,0.0,0.0,0.0,0.0,0.0,0.0,0.0,0.0,0.0,0.0,0.0,0.0,0.0,0.0,0.0,0.0,0.0,0.0,0.0,0.0,0.0,0.0,0.0,0.0,0.0,0.0,0.0,0.0,0.0,0.0,0.0,0.0,0.0,0.0,0.0,0.0,0.0,0.0,0.0,0.0,0.0,0.0,0.0,0.0,0.0,0.0,0.0,0.0,0.0,0.0,0.0,0.0,0.0,0.0,0.0,0.0,0.0,0.0,0.0,0.0,0.0,0.0,0.0,0.0,0.0,0.0,0.0,0.0,0.0,0.0,0.0,0.0,0.0,0.0,0.0,0.0,0.0,0.0,0.0,0.0,0.0,0.0,0.0,0.0,0.0,0.0,0.0,0.0,0.0,0.0,0.0,0.0,0.0,0.0,0.0,0.0,0.0,0.0,0.0,0.0,0.0,0.0,0.0,0.0,0.0,0.0,0.0,0.0,0.0,0.0,0.0,0.0,0.0,0.0,0.0,0.0,0.0,0.0,0.0,0.0,0.0,0.0,0.0,0.0,0.0,0.0,0.0,0.0,0.0,0.0,0.0,0.0,0.0,0.0,0.0,0.0,0.0,0.0,0.0,0.0,0.0,0.0,0.0,0.0,0.0,0.0,0.0,0.0,0.0,0.0,0.0,0.0,0.0,0.0,0.0,0.0,0.0,0.0,0.0,0.0,0.0,0.0,0.0,0.0,0.0,0.0,0.0,0.0,0.0,0.0,0.0,0.0,0.0,0.0,0.0,0.0,0.0,0.0,0.0,0.0,0.0,0.0,0.0,0.0,0.0,0.0,0.0,0.0,0.0,0.0,0.0,0.0,0.0,0.0,0.0,0.0,0.0,0.0,0.0,0.0,0.0,0.0,0.0,0.0,0.0,0.0,0.0,0.0,0.0,0.0,0.0,0.0,0.0,0.0,0.0,0.0,0.0,0.0,0.0,0.0,0.0,0.0,0.0,0.0,0.0,0.0,0.0,0.0,0.0,0.0,0.0,0.0,0.0,0.0,0.0,0.0,0.0,0.0,0.0,0.0,0.0,0.0,0.0,0.0,0.0,0.0,0.0,0.0,0.0,0.0,0.0,0.0,0.0,0.0,0.0,0.0,0.0,0.0,0.0,0.0,0.0,0.0,0.0,0.0,0.0,0.0,0.0,0.0,0.0,0.0,0.0,0.0,0.0,0.0,0.0,0.0,0.0,0.0,0.0,0.0,0.0,0.0,0.0,0.0,0.0,0.0,0.0,0.0,0.0,0.0,0.0,0.0,0.0,0.0,0.0,0.0,0.0,0.0,0.0,0.0,0.0,0.0,0.0,0.0,0.0,0.0,0.0,0.0,0.0,0.0,0.0,0.0,0.0,0.0,0.0,0.0,0.0,0.0,0.0,0.0,0.0,0.0,0.0,0.0,0.0,0.0,0.0,0.0,0.0,0.0,0.0,0.0,0.0,0.0,0.0,0.0,0.0,0.0,0.0,0.0,0.0,0.0,0.0,0.0,0.0,0.0,0.0,0.0,0.0,0.0,0.0,0.0,0.0,0.0,0.0,0.0,0.0,0.0,0.0,0.0,0.0,0.0,0.0,0.0,0.0,0.0,0.0,0.0,0.0,0.0,0.0,0.0,0.0,0.0,0.0,0.0,0.0,0.0,0.0,0.0,0.0,0.0,0.0,0.0,0.0,0.0,0.0,0.0,0.0,0.0,0.0,0.0,0.0,0.0,0.0,0.0,0.0,0.0,0.0,0.0,0.0,0.0,0.0,0.0,0.0,0.0,0.0,0.0,0.0,0.0,0.0,0.0,0.0,0.0,0.0,0.0,0.0,0.0,0.0,0.0,0.0,0.0,0.0,0.0,0.0,0.0,0.0,0.0,0.0,0.0,0.0,0.0,0.0,0.0,0.0,0.0,0.0,0.0,0.0,0.0,0.0,0.0,0.0,0.0,0.0,0.0,0.0,0.0,0.0,0.0,0.0,0.0,0.0,0.0,0.0,0.0,0.0,0.0,0.0,0.0,0.0,0.0,0.0,0.0,0.0,0.0,0.0,0.0,0.0,0.0,0.0,0.0,0.0,0.0,0.0,0.0,0.0,0.0,0.0,0.0,0.0,0.0,0.0,0.0,0.0,0.0,0.0,0.0,0.0,0.0,0.0,0.0,0.0,0.0,0.0,0.0,0.0,0.0,0.0,0.0,0.0,0.0,0.0,0.0,0.0,0.0,0.0,0.0,0.0,0.0,0.0,0.0,0.0,0.0,0.0,0.0,0.0,0.0,0.0,0.0,0.0,0.0,0.0,0.0,0.0,0.0,0.0,0.0,0.0,0.0,0.0,0.0,0.0,0.0,0.0,0.0,0.0,0.0,0.0,0.0,0.0,0.0,0.0,0.0,0.0,0.0,0.0,0.0,0.0,0.0,0.0,0.0,0.0,0.0,0.0,0.0,0.0,0.0,0.0,0.0,0.0,0.0,0.0,0.0,0.0,0.0,0.0,0.0,0.0,0.0,0.0,0.0,0.0,0.0,0.0,0.0,0.0,0.0,0.0,0.0,0.0,0.0,0.0,0.0,0.0,0.0,0.0,0.0,0.0,0.0,0.0,0.0,0.0,0.0,0.0,0.0,0.0,0.0,0.0,0.0,0.0,0.0,0.0,0.0,0.0,0.0,0.0,0.0,0.0,0.0,0.0,0.0,0.0,0.0,0.0,0.0,0.0,0.0,0.0,0.0,0.0,0.0,0.0,0.0,0.0,0.0,0.0,0.0,0.0,0.0,0.0,0.0,0.0,0.0,0.0,0.0,0.0,0.0,0.0,0.0,0.0,0.0,0.0,0.0,0.0,0.0,0.0,0.0,0.0,0.0,0.0,0.0,0.0,0.0,0.0,0.0,0.0,0.0,0.0,0.0,0.0,0.0,0.0,0.0,0.0,0.0,0.0,0.0,0.0,0.0,0.0,0.0,0.0,0.0,0.0,0.0,0.0,0.0,0.0,0.0,0.0,0.0,0.0,0.0,0.0,0.0,0.0,0.0,0.0,0.0,0.0,0.0,0.0,0.0,0.0,0.0,0.0,0.0,0.0,0.0,0.0,0.0,0.0,0.0,0.0,0.0,0.0,0.0,0.0,0.0,0.0,0.0,0.0,0.0,0.0,0.0,0.0,0.0,0.0,0.0,0.0,0.0,0.0,0.0,0.0,0.0,0.0,0.0,0.0,0.0,0.0,0.0,0.0,0.0,0.0,0.0,0.0,0.0,0.0,0.0,0.0,0.0,0.0,0.0,0.0,0.0,0.0,0.0,0.0,0.0,0.0,0.0,0.0,0.0,0.0,0.0,0.0,0.0,0.0,0.0,0.0,0.0,0.0,0.0,0.0,0.0,0.0,0.0,0.0,0.0,0.0,0.0,0.0,0.0,0.0,0.0,0.0,0.0,0.0,0.0,0.0,0.0,0.0,0.0,0.0,0.0,0.0,0.0,0.0,0.0,0.0,0.0,0.0,0.0,0.0,0.0,0.0,0.0,0.0,0.0,0.0,0.0,0.0,0.0,0.0,0.0,0.0,0.0,0.0,0.0,0.0,0.0,0.0,0.0,0.0,0.0,0.0,0.0,0.0,0.0,0.0,0.0,0.0,0.0,0.0,0.0,0.0,0.0,0.0,0.0,0.0,0.0,0.0,0.0,0.0,0.0,0.0,0.0,0.0,0.0,0.0,0.0,0.0,0.0,0.0,0.0,0.0,0.0,0.0,0.0,0.0,0.0,0.0,0.0,0.0,0.0,0.0,0.0,0.0,0.0,0.0,0.0,0.0,0.0,0.0,0.0]}],[{"header":{"parameterUnit":"kt","parameterCategory":2,"dx":1,"dy":1,"la1":29.587661999999998,"la2":31.0,"lo1":-88.76705300000003,"lo2":-86.6583820000003,"nx":115,"ny":88,"refTime":"2022-09-30T06:00:00:Z","depth":0,"parameterNumber":2,"parameterNumberName":"V-component_of_WINDS"},"data":[8.478,8.478,8.478,8.478,8.478,8.478,8.5112,8.5848,8.7263,8.8839,9.0434,9.2049,9.3071,9.3651,9.3684,9.34,9.2762,9.2049,9.1523,9.1159,8.9844,8.8656,8.7765,8.7368,8.6255,8.5575,8.5152,8.4771,8.5076,8.4924,8.481,8.5387,8.5312,8.5274,8.5198,8.5198,8.5462,8.5583,8.6477,8.7646,8.8743,9.0626,9.3659,9.4781,9.5291,9.6486,9.7844,9.929,10.0323,10.1581,10.3003,10.3767,10.3997,10.3997,10.3997,10.3997,10.3997,10.3997,10.3997,10.3997,10.3997,10.3997,10.3997,10.3997,10.3997,10.3997,10.3997,10.3997,10.3997,10.3997,10.3997,10.3997,10.3997,10.3997,10.3997,10.3997,10.3997,10.3997,10.3997,10.3997,10.3997,10.3997,10.3997,10.3997,10.3997,10.3997,10.3997,10.3997,10.3997,10.429,10.4514,10.4802,10.5088,10.5495,10.6197,10.8358,10.9204,10.9916,11.0589,11.0838,11.0604,10.9751,10.9062,10.8525,10.726,10.6264,10.6051,10.6173,10.5805,10.5713,10.5558,10.5306,10.5024,10.4738,10.445,8.478,8.478,8.478,8.478,8.478,8.478,8.5598,8.6952,8.7685,8.9425,9.1838,9.3362,9.3797,9.3777,9.3684,9.3496,9.321,9.273,9.2826,9.2407,9.1293,9.0319,8.9599,8.9077,8.8266,8.7543,8.6705,8.6366,8.6218,8.6262,8.6778,8.798,8.823,8.8189,8.8261,8.8047,8.7362,8.7077,8.8021,8.9151,9.0248,9.1618,9.3627,9.4851,9.5653,9.6873,9.8645,10.0103,10.099,10.2118,10.3238,10.3767,10.3931,10.3997,10.3997,10.3997,10.3997,10.3997,10.3997,10.3997,10.3997,10.3997,10.3997,10.3997,10.3997,10.3997,10.3997,10.3997,10.3997,10.3997,10.3997,10.3997,10.3997,10.3997,10.3997,10.3997,10.3997,10.3997,10.3997,10.3997,10.3997,10.3997,10.3997,10.3997,10.3997,10.3997,10.3997,10.3997,10.403,10.4224,10.4482,10.4802,10.5119,10.6103,10.7114,10.8085,10.8442,10.9178,10.976,10.9708,10.9603,10.9223,10.8628,10.7659,10.6942,10.6264,10.5962,10.5962,10.5962,10.59,10.5682,10.5464,10.5151,10.4802,10.4546,8.478,8.478,8.478,8.478,8.4909,8.5611,8.6434,8.7537,8.9266,9.1142,9.2961,9.3763,9.4058,9.3715,9.3684,9.3526,9.3338,9.3306,9.3306,9.3242,9.2439,9.1819,9.1092,9.0251,8.9771,8.8898,8.8016,8.7765,8.7765,8.7873,8.7909,8.8479,8.8722,8.8651,8.8686,8.8722,8.8301,8.7909,8.974,9.0387,9.0486,9.1917,9.3661,9.4304,9.498,9.5913,9.7622,9.9205,10.0254,10.1501,10.2779,10.3306,10.3899,10.3964,10.3997,10.3997,10.3997,10.3997,10.3997,10.3997,10.3997,10.3997,10.3997,10.3997,10.3997,10.3997,10.3997,10.3997,10.3997,10.3997,10.3997,10.3997,10.3997,10.3997,10.3997,10.3997,10.3997,10.3997,10.3997,10.3997,10.3997,10.3997,10.3997,10.3997,10.3997,10.3997,10.3997,10.3997,10.3997,10.4095,10.4451,10.4803,10.5119,10.5953,10.6937,10.7492,10.783,10.8386,10.907,10.9178,10.9258,10.8826,10.8191,10.7172,10.6382,10.6051,10.602,10.5962,10.5962,10.5931,10.5777,10.5591,10.5214,10.4866,10.4611,8.478,8.478,8.478,8.5002,8.5421,8.6448,8.7369,8.8454,9.1035,9.2651,9.3523,9.384,9.3809,9.359,9.3559,9.3496,9.3338,9.3306,9.3306,9.3242,9.321,9.2503,9.1722,9.1623,9.1059,9.0077,8.9491,8.9321,8.9321,8.9391,8.9491,8.994,9.018,9.0382,9.0382,9.0316,9.0043,8.946,9.0925,9.1623,9.1621,9.2697,9.3338,9.3725,9.4143,9.498,9.627,9.7819,9.9024,10.0654,10.1893,10.2878,10.38,10.3931,10.3997,10.3997,10.3997,10.3997,10.3997,10.3997,10.3997,10.3997,10.3997,10.3997,10.3997,10.3997,10.3997,10.3997,10.3997,10.3997,10.3997,10.3997,10.3997,10.3997,10.3997,10.3997,10.3997,10.3997,10.3997,10.3997,10.3997,10.3997,10.3997,10.3997,10.3997,10.3997,10.3997,10.3964,10.3997,10.3865,10.4221,10.451,10.4891,10.5455,10.6315,10.6942,10.7318,10.783,10.7944,10.8386,10.8881,10.8163,10.7347,10.6469,10.6375,10.6637,10.6756,10.6308,10.592,10.587,10.5713,10.5495,10.5182,10.4834,10.4578,8.478,8.478,8.478,8.5421,8.6606,8.6867,8.8442,9.0922,9.2371,9.3209,9.3337,9.3369,9.3432,9.3401,9.3465,9.3401,9.3338,9.3306,9.3306,9.3306,9.3306,9.321,9.289,9.3051,9.2407,9.2244,9.1753,9.0858,9.0824,9.0891,9.1457,9.2922,9.2665,9.2341,9.2211,9.2211,9.172,9.1191,9.1951,9.273,9.2955,9.3115,9.3338,9.337,9.366,9.4142,9.5367,9.6498,9.7534,9.9711,10.1277,10.2127,10.3045,10.3701,10.3931,10.3997,10.3997,10.3997,10.3997,10.3997,10.3997,10.3997,10.3997,10.3997,10.3997,10.3997,10.3997,10.3997,10.3997,10.3997,10.3997,10.3997,10.3997,10.3997,10.3997,10.3997,10.3997,10.3997,10.3997,10.3997,10.3997,10.3997,10.3997,10.3997,10.3997,10.3997,10.3997,10.3997,10.3898,10.3602,10.3796,10.4087,10.4466,10.4932,10.5776,10.6469,10.6794,10.6764,10.6649,10.7001,10.7688,10.7294,10.6503,10.7084,10.7653,10.7699,10.7219,10.6464,10.5927,10.5861,10.5682,10.5464,10.5119,10.4738,10.4514,8.478,8.478,8.478,8.5067,8.5839,8.7446,8.9797,9.2211,9.3048,9.3306,9.3338,9.3464,9.3432,9.3338,9.3432,9.3465,9.3306,9.3306,9.3306,9.3306,9.3306,9.3306,9.3306,9.3274,9.3306,9.3179,9.2665,9.2179,9.2374,9.2471,9.2471,9.3306,9.3306,9.3274,9.3306,9.3242,9.2858,9.2826,9.2858,9.321,9.3274,9.3274,9.3306,9.3338,9.3338,9.3723,9.4461,9.5592,9.6624,9.8112,10.0689,10.1604,10.2159,10.3406,10.3931,10.3898,10.3964,10.3997,10.3997,10.3997,10.3997,10.3997,10.3997,10.3997,10.3997,10.3997,10.3997,10.3997,10.3997,10.3997,10.3997,10.3997,10.3997,10.3997,10.3997,10.3997,10.3997,10.3997,10.3997,10.3997,10.3997,10.3997,10.3997,10.3997,10.3964,10.3931,10.3898,10.3767,10.3504,10.3175,10.3205,10.3695,10.4076,10.4485,10.5254,10.602,10.6231,10.6231,10.6173,10.6443,10.6503,10.6709,10.7318,10.8022,10.8737,10.8185,10.7567,10.6748,10.5848,10.5817,10.5651,10.537,10.5024,10.4611,10.4353,8.478,8.478,8.478,8.478,8.5166,8.78,9.0666,9.3081,9.3306,9.3306,9.3306,9.3496,9.3432,9.3306,9.3496,9.3432,9.337,9.3306,9.3306,9.3306,9.3306,9.3306,9.3306,9.3306,9.3306,9.3274,9.3274,9.3083,9.321,9.3242,9.3242,9.3306,9.3306,9.3306,9.3306,9.3306,9.3274,9.321,9.321,9.3306,9.3306,9.3306,9.3306,9.3306,9.3306,9.3465,9.3943,9.4812,9.5844,9.6901,9.902,10.0425,10.0909,10.2387,10.3339,10.3339,10.38,10.3964,10.3997,10.3997,10.3997,10.3997,10.3997,10.3997,10.3964,10.3997,10.3997,10.3997,10.3997,10.3997,10.3997,10.3997,10.3997,10.3997,10.3997,10.3997,10.3997,10.3997,10.3997,10.3997,10.3997,10.3997,10.3997,10.3866,10.3405,10.3668,10.3668,10.3306,10.2945,10.2518,10.2614,10.3335,10.3787,10.4306,10.4984,10.5558,10.5682,10.5898,10.6439,10.6828,10.6971,10.7434,10.8107,10.869,10.9097,10.8751,10.7819,10.6736,10.5606,10.5551,10.5495,10.5214,10.4898,10.4419,10.4095,8.478,8.478,8.478,8.4813,8.5263,8.7929,9.0666,9.3177,9.3242,9.3306,9.3306,9.3338,9.337,9.3306,9.3338,9.3338,9.3306,9.3306,9.3306,9.3306,9.3306,9.3306,9.3306,9.3306,9.3306,9.3306,9.3306,9.3306,9.3306,9.3306,9.3306,9.3306,9.3306,9.3306,9.3306,9.3306,9.3306,9.3306,9.3306,9.3306,9.3306,9.3306,9.3306,9.3306,9.3338,9.3432,9.3748,9.4223,9.5189,9.6186,9.7247,9.8194,9.9339,10.0813,10.1401,10.209,10.3077,10.3405,10.3668,10.3931,10.3898,10.3175,10.3438,10.3832,10.3635,10.3142,10.2978,10.3044,10.2978,10.334,10.3734,10.3668,10.3635,10.3734,10.3734,10.38,10.38,10.3701,10.3701,10.334,10.3274,10.3208,10.3011,10.3208,10.2649,10.2617,10.2189,10.2057,10.2287,10.1861,10.176,10.2546,10.3398,10.3987,10.4606,10.5086,10.5308,10.5433,10.6136,10.6555,10.7578,10.8057,10.8331,10.869,10.9346,10.8882,10.7359,10.6279,10.5495,10.5205,10.5114,10.4958,10.5241,10.4643,10.403,8.6126,8.6158,8.6158,8.5643,8.5421,8.8831,9.0891,9.1889,9.292,9.3306,9.3338,9.3496,9.3496,9.3401,9.3432,9.3527,9.3306,9.3306,9.3306,9.3306,9.3306,9.3306,9.3306,9.3306,9.3338,9.3306,9.3306,9.3306,9.3306,9.3306,9.3306,9.3306,9.3306,9.3306,9.3306,9.3306,9.3306,9.3306,9.3306,9.3306,9.3306,9.3338,9.3306,9.3338,9.3401,9.3496,9.3747,9.4125,9.4661,9.5493,9.6521,9.7623,9.8249,9.9265,10.012,10.025,10.094,10.1499,10.2583,10.3142,10.2682,10.163,10.1105,10.1072,10.1072,10.14,10.1335,10.1269,10.0972,10.1006,10.117,10.2221,10.2353,10.2747,10.2846,10.3043,10.3011,10.255,10.2386,10.1203,10.0842,10.0874,10.0874,10.1236,10.1565,10.1105,10.0809,10.1202,10.1564,10.0939,10.0577,10.1659,10.2577,10.3496,10.4249,10.4734,10.4961,10.5088,10.5308,10.5555,10.6552,10.7819,10.8191,10.8552,10.8797,10.8513,10.6969,10.6101,10.5855,10.5511,10.517,10.5208,10.5424,10.4831,10.4029,8.7605,8.7605,8.7605,8.706,8.677,8.9797,9.1181,9.1406,9.2598,9.3306,9.3338,9.3464,9.3465,9.3401,9.3432,9.3432,9.3306,9.3306,9.3306,9.3306,9.3306,9.3306,9.337,9.3401,9.3401,9.337,9.3559,9.359,9.3306,9.3465,9.3433,9.3306,9.3306,9.3306,9.3306,9.3306,9.3306,9.3306,9.3306,9.3306,9.3306,9.3401,9.3432,9.3496,9.3622,9.3779,9.3934,9.412,9.4494,9.5062,9.561,9.6412,9.6832,9.7982,9.8738,9.8804,9.956,10.002,10.0907,10.1499,10.1399,10.048,9.9823,9.9856,9.9593,9.956,9.9527,9.9691,9.9954,9.9888,9.9724,10.0873,10.1597,10.1958,10.2715,10.2879,10.2452,10.1958,10.1169,10.0053,9.956,9.9823,9.9954,10.0447,10.0019,9.9492,10.0612,10.1169,10.1728,10.1005,10.1005,10.2022,10.258,10.3367,10.3892,10.4414,10.4706,10.4929,10.5023,10.5182,10.5975,10.7177,10.7926,10.89,10.8666,10.8282,10.7403,10.6653,10.6284,10.6027,10.5657,10.5576,10.5145,10.4482,10.4095,8.9086,8.9086,8.9054,8.9056,8.9314,9.0666,9.131,9.1632,9.2759,9.3306,9.3306,9.3306,9.3306,9.3306,9.3338,9.3338,9.3306,9.3306,9.3306,9.3306,9.3306,9.3306,9.337,9.3464,9.3464,9.3464,9.3685,9.3716,9.337,9.3527,9.3496,9.3401,9.3306,9.3306,9.3306,9.3306,9.3306,9.3306,9.3306,9.3306,9.3338,9.3464,9.359,9.3652,9.384,9.4027,9.4151,9.4306,9.4523,9.4831,9.5247,9.5464,9.5648,9.6796,9.7257,9.7355,9.8475,9.9165,9.9428,9.9395,9.9297,9.8869,9.8442,9.8639,9.91,9.9165,9.8869,9.8376,9.8771,9.9001,9.9823,10.0577,10.1235,10.1958,10.3175,10.3537,10.2715,10.2057,10.0906,9.9788,9.956,9.9362,9.933,9.9165,9.844,9.9131,10.0479,10.1399,10.209,10.2222,10.2814,10.3405,10.3405,10.3897,10.3962,10.4289,10.4514,10.4769,10.5021,10.5366,10.6066,10.642,10.7551,10.9303,10.9012,10.8124,10.7568,10.7175,10.7755,10.8022,10.711,10.5761,10.4705,10.4127,10.4257,9.0505,9.0537,9.0505,9.1084,9.205,9.2501,9.2694,9.2759,9.3145,9.3306,9.3306,9.3306,9.3306,9.3306,9.3306,9.3306,9.3306,9.3306,9.3306,9.3306,9.3306,9.3306,9.337,9.3401,9.3495,9.3621,9.3809,9.384,9.3559,9.3653,9.3527,9.3401,9.3306,9.3306,9.3306,9.3306,9.3306,9.3306,9.3306,9.3306,9.3306,9.3401,9.3496,9.3746,9.3872,9.4089,9.4337,9.4523,9.4707,9.4861,9.5013,9.5131,9.5322,9.558,9.5843,9.6007,9.6339,9.7027,9.7421,9.729,9.6566,9.6895,9.6829,9.6733,9.65,9.65,9.6961,9.6799,9.6733,9.6928,9.811,9.9492,10.0447,10.1564,10.2846,10.3701,10.2879,10.1564,10.0446,9.9558,9.7947,9.6996,9.716,9.7588,9.7783,9.946,10.0742,10.1728,10.2517,10.334,10.3997,10.3997,10.3997,10.3997,10.3997,10.4128,10.4257,10.4482,10.4643,10.518,10.5272,10.5053,10.5822,10.7847,10.8497,10.7915,10.7619,10.7593,10.845,10.9467,10.8304,10.6692,10.5705,10.4991,10.4961,9.1986,9.1986,9.1986,9.2501,9.3306,9.3306,9.3306,9.3306,9.3306,9.3306,9.3306,9.3306,9.3306,9.3306,9.3306,9.3306,9.3306,9.3306,9.3306,9.3306,9.3306,9.3306,9.337,9.3401,9.3527,9.3684,9.3872,9.3872,9.3715,9.3684,9.3527,9.3401,9.3306,9.3306,9.3306,9.3306,9.3306,9.3306,9.3306,9.3306,9.3338,9.3401,9.3622,9.3903,9.3996,9.4338,9.4582,9.4768,9.4891,9.4982,9.5043,9.5134,9.5257,9.5317,9.5383,9.5448,9.5481,9.5909,9.627,9.5876,9.5284,9.5284,9.5284,9.5383,9.558,9.535,9.5284,9.5284,9.5448,9.581,9.6893,9.8375,9.9921,10.1039,10.2123,10.3109,10.2583,10.0907,9.9757,9.9525,9.775,9.6172,9.6237,9.6566,9.8311,9.992,10.1038,10.2123,10.3076,10.3964,10.3997,10.3997,10.3997,10.3997,10.3997,10.3997,10.403,10.403,10.4062,10.4387,10.4547,10.4354,10.5176,10.6492,10.7607,10.7954,10.815,10.8035,10.8132,10.8411,10.7977,10.7313,10.6785,10.6069,10.5733,9.3306,9.3306,9.3274,9.3274,9.3306,9.3209,9.3209,9.3306,9.3145,9.3113,9.3274,9.3306,9.3306,9.3306,9.3306,9.3306,9.3306,9.3306,9.3306,9.3306,9.3306,9.3338,9.3432,9.3558,9.3715,9.3935,9.4184,9.4089,9.384,9.3778,9.3559,9.3401,9.3401,9.3338,9.3306,9.3306,9.3306,9.3306,9.3306,9.3306,9.337,9.3496,9.3809,9.4182,9.4584,9.4952,9.5191,9.5043,9.5013,9.5161,9.504,9.5073,9.5224,9.5284,9.5284,9.5284,9.5284,9.535,9.5547,9.5383,9.5284,9.5284,9.5284,9.5284,9.5284,9.5284,9.5284,9.5284,9.5284,9.5448,9.6402,9.762,9.9494,10.094,10.2419,10.3241,10.2912,10.1105,10.002,9.9494,9.8769,9.7785,9.7653,9.9132,10.0809,10.1564,10.2583,10.278,10.3701,10.3997,10.3997,10.3997,10.3997,10.3997,10.3997,10.3997,10.3997,10.3997,10.3997,10.3997,10.4095,10.4958,10.5699,10.6811,10.7487,10.8249,10.8693,10.8545,10.8322,10.7921,10.763,10.7544,10.7167,10.6815,10.6548,9.3306,9.3306,9.3306,9.3306,9.3242,9.2147,9.2308,9.3081,9.2243,9.234,9.3048,9.3306,9.3306,9.3306,9.3306,9.3306,9.3306,9.3306,9.3306,9.3306,9.3338,9.3433,9.3559,9.3684,9.3996,9.4586,9.4586,9.44,9.4089,9.3935,9.3779,9.3622,9.3558,9.3464,9.337,9.3306,9.3306,9.3306,9.3306,9.3306,9.3306,9.3369,9.3715,9.412,9.4398,9.4676,9.5131,9.5164,9.5164,9.5251,9.5164,9.5164,9.5254,9.5284,9.5284,9.5284,9.5284,9.5284,9.5284,9.5284,9.5284,9.5284,9.5284,9.5284,9.5284,9.5284,9.5284,9.5284,9.5284,9.5843,9.6862,9.8342,9.9757,10.1203,10.278,10.3438,10.3603,10.2058,10.0906,10.0446,9.992,9.9132,10.002,10.1565,10.2485,10.3175,10.3471,10.357,10.38,10.3964,10.3997,10.3997,10.3997,10.3997,10.3997,10.3997,10.3997,10.3997,10.3997,10.403,10.4225,10.4926,10.5972,10.6573,10.7104,10.7847,10.8531,10.8731,10.8813,10.8365,10.7966,10.7859,10.7944,10.7602,10.7515,9.3306,9.3306,9.3306,9.3306,9.3145,9.1761,9.1986,9.2791,9.1825,9.1954,9.3113,9.3306,9.3306,9.3306,9.3306,9.3306,9.3306,9.3306,9.3306,9.3306,9.3465,9.3526,9.3715,9.3903,9.4213,9.4617,9.4556,9.44,9.4523,9.4308,9.4091,9.3965,9.3778,9.3622,9.3527,9.3337,9.3306,9.3306,9.3306,9.3306,9.337,9.3465,9.3747,9.4277,9.4462,9.4798,9.5131,9.5284,9.5284,9.5284,9.5284,9.5284,9.5284,9.5284,9.5284,9.5284,9.5284,9.5284,9.5284,9.5284,9.5284,9.5284,9.5284,9.5284,9.5284,9.5284,9.5284,9.5284,9.5284,9.5909,9.7191,9.8703,10.0117,10.1532,10.2978,10.3635,10.3668,10.2517,10.1794,10.1432,10.1071,10.1368,10.1959,10.2847,10.3307,10.3701,10.3734,10.3833,10.3898,10.3997,10.3997,10.3997,10.3997,10.3997,10.3997,10.3997,10.3997,10.3997,10.3997,10.4062,10.429,10.4991,10.6036,10.6781,10.7567,10.7995,10.8149,10.8493,10.8744,10.8573,10.8352,10.907,10.9664,10.9266,10.9132,9.3306,9.3306,9.3306,9.3306,9.3113,9.1793,9.1922,9.2791,9.1664,9.1922,9.2887,9.3177,9.3306,9.3306,9.3306,9.3306,9.3306,9.3306,9.3306,9.3338,9.3559,9.3778,9.4027,9.4212,9.4554,9.5131,9.4431,9.4369,9.5038,9.5158,9.4856,9.4337,9.3996,9.3715,9.3653,9.3433,9.3306,9.3306,9.3306,9.3306,9.3338,9.3526,9.384,9.4244,9.4615,9.4952,9.5191,9.5284,9.5284,9.5284,9.5284,9.5284,9.5284,9.5284,9.5284,9.5284,9.5284,9.5284,9.5284,9.5284,9.5284,9.5284,9.5284,9.5284,9.5284,9.5284,9.5284,9.5284,9.5284,9.581,9.6829,9.8539,9.9921,10.1269,10.278,10.3767,10.3866,10.2978,10.2518,10.2189,10.2288,10.2847,10.3175,10.3635,10.3997,10.3997,10.3964,10.3964,10.3997,10.3997,10.3997,10.3997,10.3997,10.3997,10.3997,10.3997,10.3997,10.3997,10.3997,10.3997,10.4612,10.5366,10.6308,10.7133,10.8476,10.9108,10.932,10.9189,10.8792,10.8939,10.9471,11.0269,11.1042,11.1067,11.0709,9.3306,9.3306,9.3306,9.3306,9.3081,9.1761,9.1342,9.1503,9.131,9.1406,9.1761,9.2759,9.3306,9.3306,9.3306,9.3306,9.3306,9.3306,9.3306,9.337,9.359,9.4304,9.47,9.4884,9.4947,9.5661,9.5087,9.5308,9.6075,9.6257,9.5595,9.5125,9.446,9.4027,9.3873,9.3716,9.3338,9.3306,9.3306,9.3306,9.337,9.359,9.3872,9.4275,9.4678,9.4982,9.5221,9.5284,9.5284,9.5284,9.5284,9.5284,9.5284,9.5251,9.5251,9.5284,9.5284,9.5284,9.5284,9.5284,9.5284,9.5284,9.5284,9.5284,9.5284,9.5284,9.5284,9.5284,9.5317,9.5678,9.6533,9.8146,9.9593,10.0677,10.2485,10.3964,10.3865,10.3668,10.3208,10.3241,10.3504,10.3635,10.3668,10.3997,10.3997,10.3997,10.3997,10.3997,10.3997,10.3997,10.3997,10.3997,10.3997,10.3997,10.3997,10.3997,10.3997,10.4062,10.4095,10.4354,10.5054,10.5828,10.616,10.6722,10.8275,10.9995,11.0517,11.0669,11.0122,11.0045,11.0548,11.0943,11.1067,11.1141,11.1165,9.3306,9.3306,9.3306,9.3306,9.3048,9.1793,9.1535,9.205,9.1471,9.1535,9.2243,9.292,9.3306,9.3306,9.3306,9.3306,9.3306,9.3306,9.3306,9.337,9.359,9.4119,9.4394,9.4427,9.5242,9.5864,9.5672,9.5666,9.6592,9.7105,9.7151,9.652,9.629,9.5588,9.4849,9.4611,9.4213,9.3433,9.3433,9.3432,9.337,9.275,9.2959,9.3614,9.4337,9.5038,9.5284,9.5284,9.5281,9.5311,9.5281,9.5284,9.5606,9.6068,9.6657,9.6242,9.6159,9.5926,9.5371,9.5284,9.5284,9.5284,9.5284,9.5284,9.5284,9.5284,9.5284,9.5415,9.5613,9.6533,9.7158,9.9361,10.0743,10.1696,10.2978,10.3898,10.3964,10.3964,10.3866,10.3833,10.3866,10.3866,10.3997,10.3997,10.3997,10.3997,10.3997,10.3997,10.3997,10.3997,10.3997,10.3997,10.3997,10.3997,10.3997,10.3997,10.3997,10.4192,10.4353,10.4896,10.555,10.6522,10.6845,10.7245,10.8573,11.0482,11.1028,11.1102,11.1151,11.1091,11.1067,11.1042,11.1116,11.1165,11.1165,9.3306,9.3306,9.3048,9.292,9.2726,9.1696,9.1632,9.234,9.1761,9.2115,9.2855,9.3209,9.3306,9.3306,9.3306,9.3464,9.3808,9.4179,9.4179,9.4243,9.4519,9.4488,9.4653,9.464,9.5296,9.6056,9.6234,9.6444,9.7346,9.8073,9.8375,9.8212,9.7978,9.7406,9.6429,9.6117,9.5444,9.4333,9.3821,9.3444,9.2971,9.2387,9.23,9.3404,9.4551,9.5305,9.5487,9.5606,9.5635,9.5779,9.5775,9.5602,9.5632,9.6742,9.7018,9.6577,9.6357,9.5984,9.5401,9.5284,9.5284,9.5284,9.5284,9.5284,9.5284,9.5284,9.5284,9.5514,9.627,9.7454,9.9001,9.9954,10.1761,10.3043,10.3635,10.3964,10.3997,10.3997,10.3997,10.3997,10.3997,10.3997,10.3997,10.3997,10.3997,10.3997,10.3997,10.3997,10.3997,10.3997,10.3997,10.3997,10.3997,10.3997,10.403,10.403,10.4419,10.4737,10.5457,10.5978,10.6432,10.7318,10.8281,10.9043,11.0218,11.0943,11.1042,11.1116,11.1165,11.1165,11.1165,11.1165,11.1165,11.1165,11.1165,9.3306,9.3209,9.1986,9.1503,9.1439,9.131,9.0795,9.0344,9.1954,9.2625,9.1921,9.2823,9.3685,9.3433,9.3464,9.3964,9.4753,9.5584,9.5844,9.5935,9.62,9.5965,9.5467,9.5104,9.5451,9.6952,9.7002,9.8056,9.9062,9.9871,9.9617,9.8713,9.8371,9.8057,9.7769,9.7442,9.6486,9.5022,9.4058,9.3308,9.253,9.2166,9.2799,9.3909,9.4994,9.5543,9.6184,9.6439,9.6945,9.7964,9.8045,9.7018,9.5922,9.5691,9.5602,9.575,9.6097,9.6009,9.5808,9.5517,9.5457,9.5284,9.5341,9.5371,9.5371,9.543,9.5371,9.5443,9.5646,9.6402,9.7618,9.9591,10.0906,10.2024,10.3372,10.3898,10.3997,10.3997,10.3997,10.3997,10.3997,10.3997,10.3997,10.3997,10.3997,10.3997,10.3997,10.3997,10.3997,10.3997,10.3997,10.3997,10.3997,10.3997,10.4095,10.4193,10.5272,10.5917,10.6937,10.726,10.7492,10.842,10.9461,11.0482,11.0809,11.1018,11.1141,11.1165,11.1165,11.1165,11.1024,11.0672,11.0778,11.113,11.0144,9.3306,9.3242,9.2598,9.2308,9.2308,9.2308,9.1922,9.1789,9.3444,9.3881,9.3612,9.4605,9.5143,9.5143,9.5173,9.5345,9.6075,9.6585,9.6777,9.6828,9.6911,9.6482,9.5565,9.4898,9.4782,9.5633,9.6699,9.8241,9.9822,10.0649,10.0807,10.0241,10.028,9.9391,9.7868,9.7679,9.6675,9.481,9.3355,9.2805,9.2357,9.1803,9.2177,9.4065,9.5002,9.546,9.6126,9.6126,9.6377,9.7274,9.9058,9.9876,9.9041,9.8851,9.8572,9.812,9.7897,9.7707,9.7101,9.699,9.6967,9.7079,9.7018,9.6747,9.6357,9.6184,9.5893,9.546,9.5508,9.6268,9.8342,10.0347,10.1925,10.2978,10.3602,10.3931,10.3997,10.3997,10.3997,10.3997,10.416,10.4128,10.3997,10.3997,10.403,10.4419,10.4419,10.4257,10.4225,10.4322,10.4225,10.4452,10.4257,10.429,10.4419,10.5086,10.6251,10.7021,10.7915,10.8288,10.8587,10.954,11.0482,11.0734,11.0982,11.1165,11.1179,11.1165,11.1165,11.0838,11.0475,11.0098,10.9816,10.9405,10.8595,9.2779,9.2778,9.2671,9.2631,9.2664,9.2631,9.2595,9.2556,9.3808,9.419,9.4559,9.5305,9.5576,9.5604,9.5359,9.6044,9.5934,9.6023,9.6395,9.6504,9.6619,9.5775,9.4616,9.4168,9.4284,9.5169,9.6362,9.8125,10.0014,10.1375,10.1877,10.1672,10.1417,10.0613,9.8301,9.8236,9.6705,9.3988,9.2735,9.2608,9.2358,9.1805,9.2389,9.3976,9.5415,9.6051,9.6237,9.6324,9.6179,9.6832,9.9058,10.0666,10.0522,10.0701,10.0255,9.9567,9.9576,9.9365,9.8705,9.833,9.8488,9.8337,9.8197,9.8178,9.7385,9.7329,9.6888,9.6237,9.5984,9.7104,9.909,10.1853,10.3076,10.357,10.3931,10.4192,10.4675,10.4898,10.4991,10.4993,10.4993,10.4834,10.4864,10.5054,10.5024,10.4802,10.477,10.4612,10.4643,10.4738,10.5086,10.5584,10.5553,10.5738,10.592,10.6522,10.7255,10.7768,10.8669,10.922,10.9751,11.0533,11.0759,11.1018,11.1049,11.1192,11.1171,11.1111,11.0477,11.0171,10.9878,10.9066,10.8243,10.761,10.6906,9.1042,9.0964,9.069,9.0498,9.0657,9.0505,9.0921,9.0884,9.2287,9.2897,9.2985,9.2839,9.3614,9.28,9.3815,9.3598,9.4507,9.4839,9.5207,9.5789,9.588,9.5122,9.3802,9.3562,9.4353,9.5603,9.6585,9.8445,10.0219,10.1418,10.185,10.151,10.1638,10.0835,9.9031,9.9028,9.7958,9.5146,9.3514,9.2631,9.2275,9.274,9.335,9.4464,9.6377,9.7933,9.8921,9.9288,9.9109,9.8197,9.86,9.9356,9.922,9.9101,9.9049,9.9152,9.9279,9.9152,9.8705,9.8878,9.8723,9.8826,9.8774,9.8435,9.8469,9.8424,9.8265,9.7836,9.8178,9.8421,9.9544,10.0901,10.2702,10.4121,10.4028,10.5082,10.6641,10.7313,10.7347,10.7284,10.7192,10.7284,10.7284,10.7284,10.7197,10.6315,10.5978,10.5978,10.613,10.5917,10.6069,10.6492,10.676,10.7026,10.7366,10.7739,10.7926,10.8157,10.89,10.9447,10.9935,10.9836,11.0539,11.0732,11.0017,10.9983,11.0243,11.0009,10.9633,10.9115,10.8092,10.7387,10.6777,10.6061,10.4899,9.1402,9.1669,9.1501,9.1421,9.1421,9.1455,9.1455,9.1662,9.2781,9.3356,9.3511,9.4029,9.433,9.4364,9.4305,9.4636,9.5061,9.5074,9.5314,9.5783,9.5679,9.4443,9.288,9.2572,9.347,9.4931,9.5421,9.6962,9.8712,9.9228,9.9359,9.9465,9.9324,9.8528,9.7296,9.6958,9.5913,9.4179,9.2793,9.2287,9.2268,9.2634,9.3481,9.517,9.6277,9.7867,9.9075,9.9339,9.9817,10.045,10.0546,10.057,10.057,10.0605,10.057,10.0605,10.057,10.0546,10.057,10.0605,10.057,10.0546,10.057,10.0245,9.9717,9.9532,9.9152,9.8757,9.854,9.9128,10.0112,10.1547,10.3507,10.5172,10.4493,10.3864,10.4779,10.5258,10.501,10.5214,10.572,10.6334,10.63,10.7124,10.7494,10.7533,10.6978,10.7094,10.7357,10.7192,10.705,10.7167,10.7371,10.7295,10.7499,10.7612,10.7745,10.7957,10.8488,10.8889,10.8722,10.8018,10.8384,10.8479,10.8526,10.8374,10.7845,10.7469,10.7376,10.6999,10.6166,10.5427,10.5005,10.4371,10.2963,9.112,9.1512,9.1905,9.2111,9.2086,9.2052,9.2069,9.2206,9.2942,9.3124,9.3441,9.4303,9.4339,9.457,9.4489,9.4662,9.4385,9.4443,9.4662,9.4662,9.4628,9.3263,9.1804,9.1589,9.249,9.3913,9.4467,9.5324,9.68,9.7383,9.7464,9.7388,9.7599,9.6733,9.5304,9.5212,9.4213,9.2822,9.1939,9.2178,9.3119,9.3357,9.4395,9.6548,9.7506,9.8464,9.9344,9.9491,10.0377,10.19,10.2048,10.2048,10.19,10.19,10.1797,10.1855,10.1923,10.1968,10.1945,10.1923,10.1968,10.2048,10.1774,10.1695,10.0807,10.0784,10.0329,9.9767,9.9491,10.0035,10.1115,10.2208,10.3667,10.5792,10.5125,10.4319,10.439,10.4025,10.3991,10.4067,10.5164,10.5822,10.6124,10.6745,10.7331,10.7284,10.697,10.6764,10.6925,10.6858,10.6462,10.6957,10.7451,10.7445,10.7445,10.7445,10.7541,10.7699,10.7724,10.7933,10.7332,10.6706,10.6624,10.6519,10.7047,10.6953,10.6167,10.5229,10.4748,10.4595,10.4044,10.3843,10.335,10.321,10.1907,8.9221,8.9386,9.0815,9.1457,9.1469,9.1447,9.1505,9.1468,9.1615,9.1697,9.165,9.197,9.1876,9.176,9.2084,9.2107,9.1725,9.2002,9.2107,9.2015,9.1945,9.1898,9.1447,9.1365,9.2196,9.3421,9.3853,9.4855,9.6147,9.6458,9.7159,9.6944,9.686,9.6451,9.5092,9.4987,9.4142,9.291,9.2617,9.3293,9.4748,9.5948,9.7558,9.9139,10.0397,10.1218,10.1405,10.1137,10.1448,10.1897,10.1626,10.1555,10.1872,10.2035,10.1731,10.1837,10.2,10.1907,10.2013,10.2048,10.2048,10.2048,10.2048,10.1945,10.1832,10.1741,10.1579,10.1464,10.151,10.1826,10.2063,10.2591,10.2849,10.3548,10.4674,10.5572,10.6294,10.6093,10.5515,10.5822,10.6388,10.6528,10.6089,10.6183,10.6452,10.6331,10.5688,10.5827,10.6123,10.6251,10.5858,10.6217,10.6925,10.699,10.7062,10.7062,10.7096,10.6998,10.6415,10.6399,10.5956,10.5885,10.585,10.5767,10.5861,10.5485,10.4828,10.3702,10.2918,10.2965,10.2812,10.2272,10.2224,10.24,10.1837,8.9897,9.0575,9.1121,9.1378,9.1378,9.1378,9.1378,9.1378,9.1378,9.1378,9.1378,9.1378,9.1378,9.1378,9.1378,9.1378,9.1378,9.1378,9.1378,9.1378,9.1378,9.1378,9.1378,9.1378,9.1826,9.242,9.2652,9.3205,9.3945,9.4158,9.4361,9.4459,9.4445,9.4142,9.3685,9.3558,9.3403,9.284,9.2734,9.3474,9.4825,9.562,9.712,9.9395,10.0275,10.1062,10.1859,10.0099,9.9113,9.9113,9.9113,9.9113,9.9113,9.9219,9.9571,10.031,10.0662,10.1049,10.1907,10.1872,10.2048,10.2048,10.2048,10.2013,10.2048,10.2048,10.2048,10.2048,10.2048,10.2123,10.2317,10.2982,10.3224,10.2581,10.3415,10.3704,10.3773,10.3773,10.3808,10.3878,10.3843,10.3808,10.3808,10.3773,10.3773,10.3961,10.4198,10.4853,10.5111,10.5578,10.6104,10.6493,10.6378,10.6237,10.6519,10.6554,10.6554,10.5885,10.5075,10.4794,10.4512,10.4547,10.4477,10.4324,10.4253,10.3819,10.3958,10.2682,10.2355,10.2071,10.2201,10.2156,10.2364,10.2254,10.1901,9.0204,9.086,9.121,9.1378,9.1378,9.1378,9.1378,9.1378,9.1378,9.1378,9.1378,9.1378,9.1378,9.1378,9.1378,9.1378,9.1378,9.1343,9.1476,9.1651,9.1651,9.1802,9.1931,9.1746,9.1738,9.1923,9.191,9.2059,9.2383,9.2584,9.2638,9.2699,9.277,9.2699,9.277,9.2699,9.2699,9.2699,9.2699,9.3474,9.486,9.5036,9.6289,9.8655,9.9007,9.9465,10.0416,9.855,9.7458,9.7493,9.7388,9.7388,9.7423,9.7388,9.7916,9.8831,9.8972,9.9535,10.0429,10.0557,10.0451,10.0605,10.1027,10.1274,10.1331,10.1696,10.2048,10.2048,10.2048,10.2048,10.2189,10.3069,10.3375,10.2859,10.256,10.2628,10.2769,10.2413,10.1882,10.145,10.1344,10.1062,10.0816,10.1296,10.1472,10.1555,10.2694,10.3528,10.3773,10.4337,10.5216,10.5251,10.5251,10.4829,10.4512,10.4301,10.4336,10.3949,10.3421,10.3069,10.2858,10.2717,10.2611,10.247,10.2435,10.2394,10.2699,10.2696,10.3019,10.2956,10.2709,10.2667,10.2696,10.2341,10.1815,8.9747,8.9847,9.0894,9.1031,9.0962,9.0927,9.1205,9.0996,9.1066,9.0892,9.0754,9.1101,9.0905,9.1239,9.1078,9.1214,9.1115,9.102,9.1336,9.178,9.1948,9.2257,9.2648,9.2055,9.1828,9.1863,9.1778,9.1842,9.2212,9.2274,9.2456,9.2699,9.2699,9.2699,9.2699,9.2699,9.2699,9.2699,9.2699,9.3509,9.4846,9.5036,9.5867,9.7317,9.7317,9.7282,9.7353,9.7247,9.7,9.7071,9.7106,9.7317,9.7,9.7086,9.7332,9.7474,9.7459,9.7473,9.7692,9.789,9.8052,9.8264,9.8989,9.9886,10.0157,10.1067,10.1786,10.176,10.1892,10.2015,10.2024,10.2408,10.2923,10.3972,10.3598,10.3134,10.304,10.2516,10.1507,10.0204,9.9549,9.9078,9.8303,9.869,9.9535,9.9923,10.1085,10.2071,10.2141,10.2506,10.233,10.2365,10.2822,10.3245,10.2682,10.2176,10.2282,10.2384,10.2307,10.2443,10.256,10.2675,10.2781,10.2739,10.2781,10.2979,10.3297,10.3653,10.39,10.3204,10.3653,10.3543,10.2685,10.1664,10.1374,8.713,8.7688,8.8049,8.8178,8.8178,8.8234,8.82,8.8213,8.82,8.8213,8.8178,8.8178,8.8824,8.9656,8.9817,8.9633,8.9417,8.9422,8.9505,8.9681,8.9681,8.9816,8.9949,8.9777,8.97,8.9755,8.9914,9.063,9.1571,9.1677,9.2046,9.2635,9.2699,9.2699,9.2699,9.2699,9.2699,9.2699,9.2699,9.3474,9.4846,9.5036,9.5796,9.6824,9.5289,9.4198,9.4177,9.4233,9.4213,9.4233,9.4269,9.4233,9.4296,9.4748,9.5653,9.704,9.7258,9.7688,9.8579,9.8328,9.8233,9.8791,9.8867,9.9072,9.9562,10.003,10.0281,10.0567,10.1159,10.1915,10.213,10.2973,10.3837,10.4183,10.4145,10.3798,10.3313,10.3019,10.1923,10.0057,9.8305,9.729,9.7212,9.6965,9.7339,9.8057,9.9465,10.0416,10.0662,10.1274,10.2048,10.2048,10.2048,10.2071,10.2303,10.2413,10.2483,10.2845,10.2936,10.3313,10.3539,10.3661,10.374,10.3717,10.3792,10.3997,10.4298,10.4653,10.4006,10.2815,10.2906,10.2936,10.1839,10.0919,10.0452,8.541,8.6217,8.6539,8.6666,8.6666,8.6666,8.6834,8.7042,8.7077,8.7165,8.7314,8.7334,8.7858,8.8802,8.8243,8.8159,8.8444,8.8446,8.8576,8.8778,8.8813,8.8904,8.9083,8.8904,8.8832,8.8941,8.9118,8.9794,9.0777,9.0847,9.1171,9.1673,9.151,9.1709,9.2109,9.2016,9.2171,9.2629,9.2699,9.3192,9.4072,9.4248,9.467,9.5501,9.3741,9.2699,9.2699,9.2699,9.2699,9.2699,9.2734,9.2842,9.3127,9.3652,9.466,9.6089,9.6337,9.6806,9.7585,9.7408,9.7336,9.7802,9.7857,9.8179,9.865,9.9207,9.9532,9.9803,10.0957,10.1799,10.224,10.3931,10.5258,10.5188,10.4961,10.4625,10.4162,10.3779,10.2851,10.0761,9.8983,9.7632,9.8245,9.7653,9.7575,9.856,9.9767,10.0543,10.0746,10.1344,10.2048,10.2048,10.2071,10.2258,10.271,10.2816,10.2963,10.3403,10.3554,10.3776,10.4051,10.4145,10.3427,10.3226,10.3008,10.2994,10.2469,10.2857,10.2932,10.2022,10.2093,10.1841,10.0501,10.0387,9.9831,8.4423,8.5317,8.6169,8.6487,8.6528,8.6424,8.6845,8.7183,8.7319,8.7631,8.7909,8.8001,8.8181,8.8131,8.682,8.6927,8.8151,8.8152,8.8406,8.89,8.9006,8.9492,9.0128,8.9564,8.93,8.9224,8.902,8.9246,8.9783,8.9912,8.9968,9.0019,8.9741,8.9956,9.0932,9.0767,9.1171,9.2277,9.2453,9.2664,9.277,9.2699,9.2629,9.277,9.2699,9.2699,9.2699,9.2699,9.274,9.2781,9.2822,9.3147,9.3808,9.3975,9.4321,9.4929,9.5063,9.508,9.5221,9.5246,9.5227,9.5333,9.6509,9.7181,9.744,9.847,9.9124,9.9366,10.0788,10.1863,10.214,10.4609,10.6469,10.6506,10.5988,10.5613,10.546,10.4732,10.3684,10.2183,10.1515,10.0757,9.9766,10.0457,10.0662,10.1066,10.1646,10.2148,10.2187,10.2148,10.2333,10.2355,10.2407,10.2604,10.3684,10.3039,10.3332,10.3521,10.3141,10.3883,10.4117,10.4099,10.3214,10.2526,10.2376,10.1944,10.1109,10.0997,10.1474,10.1662,10.1773,10.1059,9.9975,9.9813,9.9231,8.341,8.3709,8.4417,8.4733,8.4696,8.4191,8.4398,8.4899,8.4457,8.4642,8.5189,8.5207,8.5575,8.6173,8.593,8.5894,8.6274,8.6309,8.6442,8.6553,8.6605,8.6859,8.7228,8.7109,8.7141,8.7354,8.7519,8.7637,8.7793,8.8559,8.9355,8.9979,9.049,9.0366,8.9795,9.0205,9.0588,9.0995,9.101,9.1573,9.2403,9.1608,9.1045,9.1151,9.2101,9.2699,9.2699,9.2699,9.2983,9.3537,9.354,9.3882,9.4531,9.511,9.5503,9.5743,9.6145,9.6419,9.6405,9.5982,9.5906,9.6305,9.628,9.6547,9.7023,9.7403,9.7659,9.7974,10.0224,10.1948,10.216,10.479,10.6594,10.6742,10.6551,10.6165,10.5678,10.5393,10.4398,10.2419,10.2274,10.148,10.0341,10.1011,10.2288,10.3133,10.3553,10.3776,10.374,10.3625,10.3609,10.374,10.3684,10.2999,10.1209,10.1245,10.1185,10.1426,10.1949,10.2186,10.242,10.2539,10.2078,10.178,10.1892,10.1574,10.0833,10.1118,10.1666,10.158,10.0858,9.9753,9.905,9.821,9.7651,8.267,8.2876,8.3358,8.3736,8.3896,8.3575,8.3737,8.4244,8.3843,8.4053,8.4583,8.4633,8.4941,8.5523,8.5523,8.5523,8.5523,8.5523,8.5638,8.5852,8.5866,8.6122,8.6517,8.6447,8.6514,8.679,8.6863,8.6963,8.7173,8.773,8.8345,8.8924,8.914,8.9201,8.8939,8.8869,8.9204,8.9786,8.9568,8.9991,9.0911,9.0026,8.9411,8.9516,9.0306,9.0903,9.1162,9.1201,9.1548,9.2207,9.226,9.2608,9.3296,9.3772,9.4172,9.4443,9.4798,9.5313,9.5976,9.6279,9.6605,9.6957,9.6633,9.6591,9.6944,9.6984,9.7471,9.8622,10.1387,10.3312,10.3534,10.5632,10.7187,10.7161,10.7063,10.6789,10.6284,10.6086,10.5286,10.3455,10.3538,10.3406,10.2239,10.2988,10.4113,10.4566,10.4516,10.3934,10.3339,10.334,10.3087,10.2672,10.3002,10.2383,10.119,10.0486,10.0715,10.1063,10.1147,10.1229,10.1827,10.1866,10.1562,10.0931,10.0893,10.0753,10.028,10.0005,10.025,9.9963,9.9113,9.8598,9.7475,9.7139,9.7228,8.2555,8.2876,8.3212,8.3611,8.4124,8.4072,8.4329,8.4795,8.4779,8.4945,8.4849,8.5069,8.5039,8.5322,8.5286,8.5394,8.5539,8.5563,8.583,8.627,8.6354,8.673,8.7202,8.6953,8.6989,8.7308,8.716,8.7197,8.7328,8.739,8.7366,8.7209,8.6771,8.7264,8.8144,8.7409,8.7512,8.8869,8.8165,8.8094,8.8638,8.8215,8.7888,8.7942,8.8061,8.8329,8.8992,8.9012,8.9364,8.9927,9.0164,9.0526,9.1245,9.1308,9.1545,9.2155,9.2255,9.2821,9.4381,9.5808,9.651,9.6632,9.6658,9.6818,9.6831,9.6881,9.782,9.9962,10.2967,10.4425,10.5017,10.6191,10.6942,10.6833,10.6729,10.6888,10.6575,10.6541,10.5782,10.4345,10.485,10.571,10.3998,10.4645,10.5526,10.4724,10.4169,10.3443,10.2392,10.2139,10.165,10.0223,10.0499,10.1231,10.1188,10.1437,10.0981,10.1142,10.1377,10.1135,10.0991,10.1078,10.1095,9.9718,9.9597,9.9239,9.8215,9.7555,9.8116,9.8339,9.8259,9.7926,9.7659,9.7474,9.7287,8.4483,8.4583,8.4824,8.5052,8.5131,8.4746,8.484,8.5324,8.4905,8.3687,8.2043,8.1942,8.2614,8.3661,8.3733,8.4383,8.5469,8.5945,8.6202,8.6378,8.683,8.7273,8.7553,8.7596,8.7734,8.8021,8.7982,8.7866,8.776,8.7738,8.7594,8.7356,8.7867,8.767,8.6881,8.7214,8.7585,8.7857,8.6629,8.6034,8.6146,8.6743,8.6983,8.7036,8.7622,8.8151,8.8272,8.8777,8.9363,9.0096,9.0612,9.1243,9.1852,9.1917,9.1968,9.2144,9.2412,9.2787,9.3143,9.3703,9.3955,9.3992,9.5203,9.5947,9.5958,9.6042,9.6812,9.8535,10.0694,10.1917,10.2169,10.3229,10.3945,10.3982,10.3903,10.3969,10.3872,10.3611,10.3224,10.2963,10.286,10.2976,10.258,10.2727,10.3039,10.291,10.2544,10.2345,10.1963,10.1853,10.0743,9.905,9.8498,9.8927,9.8846,9.8935,9.8961,9.8846,9.8935,9.9076,9.905,9.8935,9.8612,9.8616,9.8467,9.8307,9.8147,9.8027,9.7947,9.7878,9.7967,9.7988,9.7931,9.7845,9.7564,8.2797,8.2844,8.3153,8.334,8.3274,8.3072,8.3133,8.3343,8.3102,8.2237,8.1173,8.1127,8.1735,8.2713,8.2762,8.3236,8.4074,8.506,8.563,8.5921,8.6992,8.7775,8.8186,8.8129,8.8242,8.8395,8.8297,8.8175,8.8056,8.8046,8.7882,8.7598,8.8043,8.7773,8.6825,8.6979,8.7063,8.6976,8.4763,8.353,8.3516,8.2035,8.126,8.126,8.1561,8.1951,8.241,8.2805,8.3409,8.4394,8.4752,8.5801,8.754,8.7711,8.8374,8.9786,9.0276,9.0811,9.1541,9.1777,9.2293,9.3056,9.396,9.4342,9.3979,9.6715,9.8503,9.8666,10.0841,10.2231,10.2222,10.2917,10.3366,10.3366,10.2471,10.2267,10.2833,10.2265,10.1874,10.2445,10.2425,10.2301,10.2288,10.2209,10.2104,10.2091,10.1939,10.1534,10.0858,10.0368,9.9459,9.827,9.7936,9.7967,9.793,9.7903,9.7941,9.7941,9.7941,9.7941,9.7941,9.7967,9.7967,9.7978,9.8148,9.8317,9.8558,9.8498,9.8417,9.8314,9.8361,9.8314,9.8256,9.8237,9.7454,8.0347,8.0377,8.0758,8.0845,8.0773,8.0916,8.093,8.0873,8.0522,8.0522,8.0875,8.0875,8.1255,8.1897,8.1908,8.2007,8.2302,8.3696,8.459,0.0,8.6569,8.7754,8.8511,8.8321,8.8388,8.8698,8.8491,8.8324,8.8325,8.8325,8.8166,8.7961,8.7877,8.7694,8.734,8.674,8.6102,8.5371,8.2678,8.1496,8.1885,7.8133,7.5919,7.546,7.5408,7.5395,7.5781,7.601,7.6394,7.7372,7.7517,7.8701,8.1216,8.1434,8.2562,8.5054,8.5676,8.6699,8.8417,8.8837,8.9797,9.1654,9.255,9.2218,9.0931,9.6341,9.9497,9.8453,10.0807,10.2993,10.3,10.2977,10.3051,10.2982,10.1626,10.1175,10.2402,10.116,10.0571,10.1401,10.1843,10.1602,10.1324,10.1279,10.1102,10.1584,10.104,10.0769,9.9545,9.855,9.8143,9.8274,9.8229,9.811,9.8105,9.8083,9.817,9.811,9.8113,9.8152,9.8162,9.819,9.819,9.8103,9.8389,9.8659,9.8883,9.8961,9.8883,9.8866,9.8867,9.8664,9.8187,9.781,9.7028,8.1517,8.1542,8.1865,8.1742,8.1309,8.1336,8.1168,8.0749,0.0,0.0,0.0,7.8088,7.8931,8.0263,8.0322,8.0988,8.2214,8.2964,8.3327,8.3462,8.4258,8.5524,8.7057,8.7015,8.7789,8.9215,8.9017,8.8781,8.8575,8.8575,8.843,8.8185,8.7992,8.7787,8.7738,8.734,8.5139,8.1376,8.0641,8.1608,8.4208,8.3028,8.1071,7.8402,7.9005,7.8222,7.5807,7.6178,7.6579,7.676,7.7247,7.7239,7.6533,7.6585,7.6361,7.5706,7.604,7.761,8.0518,8.1096,8.2636,8.567,8.978,8.9764,8.414,8.8667,9.2153,9.3278,9.6324,9.8198,9.8057,9.92,9.9913,9.9863,9.95,9.9356,9.9641,9.9197,9.8501,9.7379,9.7394,9.6961,9.7158,9.7143,9.7277,9.8431,9.8753,9.8493,9.8254,9.7952,9.7859,9.8155,9.8185,9.86,9.8691,9.8629,9.8766,9.8425,9.8562,9.8774,9.8774,9.8774,9.8774,9.8449,9.8798,9.8785,9.8865,9.8741,9.8952,9.8959,9.896,9.8547,9.7334,9.593,9.4592,7.9455,0.0,7.9681,7.9625,0.0,7.9372,7.9303,7.9012,7.7865,7.7541,7.7778,7.7778,7.8328,7.9313,7.9313,7.9722,8.0492,8.1702,8.2255,8.2377,8.3588,8.4631,8.5503,8.5444,8.5896,8.686,8.6674,8.6492,8.638,8.638,8.5345,8.3329,8.3248,8.2647,8.149,8.0568,7.8849,7.6365,7.7975,7.9585,8.1021,7.9045,7.7101,7.5569,0.0,0.0,0.0,0.0,0.0,0.0,0.0,0.0,0.0,0.0,0.0,7.5726,7.4593,7.4609,7.6204,7.6664,7.7556,7.923,8.1688,8.1372,7.7445,8.1698,8.5315,8.6991,8.9216,9.125,9.2847,9.3757,9.4188,9.4064,9.4797,9.5634,9.6389,9.7109,9.7524,9.7425,9.7407,9.6982,9.6234,9.5967,9.5856,9.5734,9.6289,9.6802,9.6721,9.637,9.6035,9.6262,9.6442,9.7036,9.8419,9.7765,9.6464,9.6464,9.6464,9.6502,9.6464,9.6504,9.6561,9.6568,9.6631,9.6698,9.6675,9.6636,9.7093,9.8388,9.7652,9.5834,9.355,9.1799,9.0457,7.747,7.749,7.7565,7.7612,7.7468,7.691,7.6682,7.6718,7.6718,7.6948,7.732,7.7366,7.7526,7.7806,7.812,7.83,7.8403,8.0173,8.1106,8.1237,8.2741,8.3636,8.3952,8.3836,8.3968,8.4374,8.429,8.4185,8.4171,8.4171,8.2569,7.9595,7.9607,7.8341,7.581,0.0,0.0,0.0,7.5628,7.7412,7.788,7.5042,7.3181,7.2548,7.2525,0.0,7.2087,7.2083,7.2244,7.2634,7.2433,0.0,0.0,0.0,0.0,0.0,0.0,0.0,0.0,0.0,0.0,0.0,7.2042,7.1488,7.1082,7.4896,7.818,8.0201,8.2571,8.4827,8.6883,8.7354,8.7708,8.8223,8.9479,9.106,9.2921,9.4329,9.5645,9.6915,9.7028,9.6615,9.5615,9.5694,9.5141,9.4075,9.4902,9.5538,9.5052,9.4533,9.4217,9.4149,9.4137,9.5041,9.7937,9.604,9.4495,9.4149,9.4186,9.4237,9.4338,9.4371,9.4356,9.4437,9.4373,9.4412,9.3706,9.4054,9.5219,9.7524,9.5726,9.2752,8.9735,8.786,8.6362,7.8524,7.8569,7.8547,7.8333,7.7838,7.5385,7.4316,7.4316,7.4316,7.4339,7.4413,7.4413,7.4473,7.4591,7.6019,7.6766,7.6955,7.8608,7.9488,7.9641,7.997,8.0968,8.245,8.2377,8.3095,8.4503,8.4431,8.4302,8.4178,8.4171,8.3802,8.3158,8.2906,8.1102,7.7653,7.1827,7.0139,7.2654,7.458,7.6881,7.9669,7.9284,7.769,7.5014,7.6044,7.5456,7.2759,7.2585,7.2641,7.2654,7.1374,7.028,6.9436,6.5189,6.2483,0.0,5.882,0.0,0.0,0.0,0.0,0.0,0.0,0.0,0.0,6.7811,7.0288,7.3334,7.9008,8.1412,7.8796,7.9877,8.1851,8.4454,8.5024,8.634,8.9229,8.9862,9.0087,9.0275,9.0313,9.0877,9.1923,9.348,9.4277,9.3849,9.4683,9.442,9.2825,9.3119,9.3881,9.4403,9.3567,9.3489,9.5441,9.5113,9.4235,9.4281,9.4155,9.4403,9.4235,9.4302,9.4361,9.4327,9.4206,9.3483,9.1014,9.2721,9.439,9.4588,9.326,9.1,8.8044,8.595,8.4906,7.6035,7.6042,7.6042,7.593,7.5686,7.4413,7.3873,7.3873,7.3873,7.3873,7.3873,7.3873,7.3873,7.3918,7.4628,7.5012,7.5102,7.5928,7.6384,7.6547,7.7593,7.8622,7.9546,8.0375,8.1118,8.1838,8.1712,8.1593,8.1446,8.1471,8.0405,7.8415,7.8203,7.5811,7.138,6.9234,6.9687,7.2691,7.3475,7.537,7.8554,7.8701,7.8001,7.6612,7.7191,7.687,7.5471,7.457,7.4101,7.4064,7.2544,7.0622,6.8312,6.4631,6.1563,0.0,0.0,0.0,0.0,0.0,0.0,0.0,0.0,0.0,0.0,0.0,6.3874,0.0,7.1445,0.0,7.3211,7.4524,7.5253,7.476,7.7196,7.9386,8.0674,8.4127,8.5726,8.3859,8.5199,8.6252,8.6095,8.7561,8.8915,8.9885,8.8316,8.6563,8.5472,8.7294,8.894,8.9053,9.0117,9.1374,9.2252,9.2059,9.1756,9.1794,9.1794,9.1794,9.1794,9.1857,9.1867,9.1887,9.1927,9.1526,9.0392,9.1107,9.1807,9.1323,8.9703,8.733,8.4991,8.3171,8.1995,7.3899,7.37,7.1401,7.089,7.1524,7.1562,7.1977,7.2684,7.2721,7.2235,7.1562,7.2378,7.1817,7.0359,7.0733,7.1379,7.217,7.268,7.3415,7.4382,7.5741,7.6492,7.6762,7.7942,7.8493,7.846,7.8345,7.8205,7.8062,7.7304,7.5566,7.2982,7.2749,7.0218,6.5497,6.7242,6.9345,7.1512,7.2691,7.4533,7.6907,7.7018,7.7007,7.7018,7.6602,7.6339,7.6207,7.5172,7.4566,7.4373,7.2249,7.003,6.78,6.3618,0.0,0.0,0.0,0.0,0.0,0.0,0.0,0.0,0.0,5.5682,5.3262,0.0,5.9642,0.0,6.5448,6.8649,6.8755,6.9098,0.0,0.0,6.9205,7.131,7.1917,7.6855,7.9391,7.719,7.9427,8.0869,8.0005,8.1395,8.2924,8.4134,8.1598,7.9256,7.8549,8.1314,8.3238,8.2672,8.408,8.59,8.6514,8.7419,8.8339,8.8978,8.8753,8.8521,8.8523,8.8623,8.866,8.867,8.8763,8.8802,8.872,8.9061,8.932,8.9456,8.6789,8.3922,8.267,8.1116,7.9936,7.3984,7.3093,6.4327,6.2348,6.4873,6.4906,6.6643,6.935,6.938,6.7661,6.5019,6.8004,6.6016,6.0415,6.191,0.0,6.7323,6.888,7.1258,7.4454,7.4577,7.4704,7.4861,7.5,7.4996,7.4881,7.4865,7.4788,7.4559,7.1696,6.9904,6.9422,6.9415,6.756,6.4246,6.6787,6.8201,6.8297,7.2691,7.518,7.5391,7.5417,7.5417,7.5391,7.3907,7.2878,7.2405,7.271,7.2704,7.2098,6.8371,6.6281,6.6014,0.0,0.0,0.0,0.0,0.0,0.0,0.0,0.0,0.0,0.0,0.0,0.0,0.0,0.0,0.0,6.4056,0.0,6.5148,6.2543,0.0,0.0,0.0,6.2012,6.4992,6.7137,6.888,7.0065,0.0,0.0,7.466,0.0,7.7616,7.7725,7.8871,7.8592,7.5628,7.8075,7.9309,7.6539,7.5324,7.5665,7.9158,8.1816,8.4474,8.6524,8.6333,8.5344,8.5306,8.5384,8.5384,8.5536,8.5347,8.5385,8.5347,8.6561,8.8151,8.939,8.5918,8.2566,8.2152,8.0787,7.9611,6.7066,6.4838,6.1101,6.0217,6.1292,6.1326,6.3147,6.6049,6.6092,6.5278,6.4047,6.5393,6.3437,5.9138,5.9773,0.0,0.0,0.0,6.4927,6.8238,6.9307,7.0932,7.2982,7.4025,7.4497,7.4446,7.4446,7.4378,7.4247,7.2969,6.827,6.0456,0.0,0.0,5.9498,6.3411,6.6265,6.8147,7.1801,7.3696,7.3686,7.3686,7.3733,7.3696,7.3059,7.2436,7.1937,7.12,6.9809,6.7683,6.5126,6.2114,0.0,0.0,0.0,0.0,0.0,0.0,0.0,0.0,0.0,0.0,0.0,5.2472,0.0,0.0,0.0,0.0,5.8505,5.8922,5.8845,6.04,0.0,0.0,0.0,0.0,0.0,0.0,0.0,6.0641,6.5519,6.9236,6.968,6.8871,6.8523,6.944,6.9475,6.9276,6.8896,0.0,7.4261,7.4944,7.464,7.5438,7.8551,7.8665,7.8703,7.9804,8.0942,8.1853,8.1966,8.3635,8.4886,8.4959,8.4957,8.4272,8.2292,8.3242,8.4416,8.391,8.2229,8.0591,7.9564,7.8086,7.695,6.036,0.0,0.0,0.0,0.0,5.808,5.9845,6.2719,6.2713,6.2155,6.1206,6.2048,0.0,0.0,0.0,0.0,0.0,0.0,6.0391,6.2835,6.5899,6.8162,6.9683,7.0979,7.1562,7.15,7.0632,7.0137,7.0004,7.0036,6.4741,5.4564,0.0,0.0,0.0,0.0,6.3257,6.5576,6.981,7.2028,7.2028,7.247,7.2507,7.2028,7.1549,7.1016,7.0349,6.8563,6.64,6.3943,6.121,0.0,0.0,0.0,0.0,0.0,0.0,0.0,0.0,0.0,0.0,0.0,0.0,0.0,0.0,0.0,0.0,0.0,0.0,0.0,5.5005,5.8163,5.8731,0.0,0.0,0.0,0.0,0.0,0.0,0.0,0.0,0.0,6.4196,6.3487,6.3514,0.0,0.0,6.5142,6.4312,6.75,7.012,7.0654,0.0,0.0,0.0,7.4223,7.3767,7.4223,7.7032,7.9042,7.8587,7.9686,8.0669,8.0589,8.142,8.0654,7.6766,7.6619,7.7917,7.9359,7.7455,7.5209,7.4068,7.2966,7.2092,0.0,0.0,0.0,0.0,0.0,0.0,0.0,0.0,5.9181,5.7467,0.0,5.7517,0.0,0.0,0.0,0.0,0.0,0.0,0.0,0.0,6.5704,6.7262,6.4535,6.4653,6.4695,6.4435,6.1676,6.0168,6.0041,6.0003,0.0,0.0,0.0,0.0,0.0,0.0,5.8813,5.9225,6.6589,7.0444,7.0453,7.188,7.1927,7.0444,6.885,6.759,6.6591,6.4172,6.2444,6.1628,5.6385,0.0,0.0,0.0,0.0,0.0,0.0,0.0,0.0,0.0,0.0,0.0,0.0,0.0,0.0,0.0,0.0,0.0,0.0,0.0,0.0,5.5159,0.0,0.0,0.0,0.0,0.0,0.0,0.0,0.0,0.0,0.0,5.8017,6.176,6.4809,6.4685,0.0,0.0,0.0,0.0,6.7625,6.1732,6.1998,6.3175,6.3365,6.7161,7.0616,7.2135,0.0,0.0,7.54,7.2552,7.0654,7.054,7.3271,7.3228,6.6647,6.5809,6.9,7.7316,7.2114,6.5923,6.5389,6.5875,6.5641,0.0,0.0,0.0,0.0,0.0,0.0,0.0,0.0,0.0,5.2623,0.0,5.1639,0.0,0.0,0.0,0.0,0.0,0.0,0.0,0.0,5.8333,5.997,6.0964,6.1116,6.1183,0.0,6.0036,5.7259,0.0,0.0,0.0,0.0,0.0,0.0,0.0,0.0,5.895,5.9144,6.5572,6.8974,6.8974,6.9321,6.9265,6.8749,6.8159,6.6447,6.3527,6.0289,5.7405,0.0,0.0,0.0,0.0,0.0,0.0,0.0,0.0,0.0,0.0,0.0,0.0,0.0,0.0,0.0,0.0,0.0,0.0,0.0,0.0,0.0,0.0,0.0,5.4142,0.0,0.0,0.0,0.0,0.0,0.0,0.0,0.0,0.0,5.5791,5.8055,6.0608,6.2645,6.3634,6.404,6.3945,0.0,0.0,0.0,0.0,0.0,0.0,0.0,6.2985,6.1352,6.2074,6.3403,6.4996,6.6056,6.6661,6.6699,0.0,0.0,5.6823,6.2146,6.8525,6.992,6.7345,6.4615,6.3502,6.327,6.2965,0.0,0.0,0.0,0.0,0.0,0.0,0.0,0.0,0.0,4.8014,4.6989,0.0,0.0,0.0,0.0,0.0,0.0,0.0,0.0,0.0,0.0,0.0,5.6825,5.7504,0.0,0.0,0.0,0.0,0.0,0.0,0.0,0.0,0.0,0.0,0.0,0.0,5.8686,5.8488,6.4727,6.7836,6.7318,6.7661,6.7855,6.7819,6.7201,6.5382,6.2136,0.0,0.0,0.0,0.0,0.0,0.0,0.0,0.0,0.0,0.0,0.0,0.0,0.0,0.0,0.0,0.0,0.0,0.0,0.0,0.0,0.0,0.0,0.0,0.0,0.0,5.1427,0.0,0.0,0.0,0.0,0.0,0.0,0.0,0.0,0.0,0.0,0.0,5.7104,5.9249,6.1039,6.2568,6.3732,6.4448,6.5639,0.0,0.0,0.0,0.0,0.0,0.0,0.0,0.0,0.0,0.0,0.0,0.0,0.0,0.0,5.7746,5.11,5.7017,6.2407,6.0251,0.0,0.0,0.0,0.0,0.0,0.0,0.0,0.0,0.0,0.0,0.0,0.0,0.0,0.0,0.0,0.0,0.0,0.0,4.3467,0.0,0.0,0.0,0.0,0.0,0.0,0.0,0.0,0.0,0.0,0.0,0.0,0.0,0.0,0.0,0.0,0.0,0.0,0.0,0.0,0.0,0.0,5.7896,5.6518,6.3825,6.6953,6.5552,6.6934,6.7671,6.7607,6.5834,6.4002,6.2303,0.0,0.0,0.0,0.0,0.0,0.0,0.0,0.0,0.0,0.0,0.0,0.0,0.0,0.0,0.0,0.0,0.0,0.0,0.0,0.0,0.0,0.0,0.0,0.0,0.0,0.0,4.5679,4.9489,5.3062,0.0,0.0,0.0,0.0,0.0,0.0,0.0,0.0,0.0,0.0,6.1701,6.5707,6.2755,6.3671,6.4798,6.5006,6.2328,6.1314,6.4276,6.4807,6.4845,0.0,0.0,0.0,0.0,0.0,0.0,0.0,0.0,0.0,0.0,0.0,0.0,0.0,0.0,0.0,0.0,0.0,0.0,0.0,0.0,0.0,0.0,0.0,0.0,0.0,0.0,0.0,0.0,0.0,0.0,0.0,0.0,0.0,0.0,0.0,0.0,0.0,0.0,0.0,0.0,0.0,0.0,0.0,0.0,0.0,0.0,0.0,0.0,0.0,0.0,0.0,0.0,0.0,0.0,5.6959,5.6553,6.1928,6.4494,6.4058,6.4266,6.4305,6.4,6.2423,5.9947,0.0,0.0,0.0,0.0,0.0,0.0,0.0,0.0,0.0,0.0,0.0,0.0,0.0,0.0,0.0,0.0,0.0,0.0,0.0,0.0,0.0,0.0,0.0,0.0,0.0,0.0,0.0,0.0,5.3999,5.5306,5.4586,0.0,0.0,0.0,0.0,0.0,0.0,0.0,0.0,0.0,0.0,6.2216,6.3503,6.431,6.4721,6.466,6.396,6.2951,6.1479,6.3247,6.3204,5.8469,0.0,0.0,0.0,0.0,0.0,0.0,0.0,0.0,0.0,0.0,0.0,0.0,0.0,0.0,0.0,0.0,0.0,0.0,0.0,0.0,0.0,0.0,0.0,0.0,0.0,0.0,0.0,0.0,0.0,0.0,0.0,0.0,0.0,0.0,0.0,0.0,0.0,0.0,0.0,0.0,0.0,0.0,0.0,0.0,0.0,0.0,0.0,0.0,0.0,0.0,0.0,0.0,0.0,5.6157,5.5597,6.0638,6.2916,6.2391,6.2782,6.2781,6.2401,6.0106,5.7282,0.0,0.0,0.0,0.0,0.0,0.0,0.0,0.0,0.0,0.0,0.0,0.0,0.0,0.0,0.0,0.0,0.0,0.0,0.0,0.0,0.0,0.0,0.0,0.0,0.0,0.0,0.0,0.0,5.1254,5.2608,5.1642,0.0,0.0,0.0,0.0,0.0,0.0,0.0,0.0,0.0,0.0,5.9531,6.2122,6.2159,0.0,0.0,6.3122,6.167,6.0777,6.2952,6.2649,5.6615,5.5648,0.0,0.0,0.0,0.0,0.0,0.0,0.0,0.0,0.0,0.0,0.0,0.0,0.0,0.0,0.0,0.0,0.0,0.0,0.0,0.0,0.0,0.0,0.0,0.0,0.0,0.0,0.0,0.0,0.0,0.0,0.0,0.0,0.0,0.0,0.0,0.0,0.0,0.0,0.0,0.0,0.0,0.0,0.0,0.0,0.0,0.0,0.0,0.0,0.0,0.0,0.0,0.0,0.0,5.4098,5.9661,6.1916,6.059,6.1862,6.2415,6.1988,5.8497,5.5421,0.0,0.0,0.0,0.0,0.0,0.0,0.0,0.0,0.0,0.0,0.0,0.0,0.0,0.0,0.0,0.0,0.0,0.0,0.0,0.0,0.0,0.0,0.0,0.0,0.0,0.0,0.0,0.0,0.0,0.0,0.0,0.0,0.0,0.0,0.0,0.0,0.0,0.0,0.0,0.0,0.0,5.7639,5.9108,5.8149,5.8959,0.0,0.0,5.8322,6.1219,6.3253,6.2859,5.791,0.0,0.0,0.0,0.0,0.0,0.0,0.0,0.0,0.0,0.0,0.0,0.0,0.0,0.0,0.0,0.0,0.0,0.0,0.0,0.0,0.0,0.0,0.0,0.0,0.0,0.0,0.0,0.0,0.0,0.0,0.0,0.0,0.0,0.0,0.0,0.0,0.0,0.0,0.0,0.0,0.0,0.0,0.0,0.0,0.0,0.0,0.0,0.0,0.0,0.0,0.0,0.0,0.0,0.0,5.3869,5.745,5.9146,5.8769,5.8867,5.872,5.8309,5.4886,0.0,0.0,0.0,0.0,0.0,0.0,0.0,0.0,0.0,0.0,0.0,0.0,0.0,0.0,0.0,0.0,0.0,0.0,0.0,0.0,0.0,0.0,0.0,0.0,0.0,0.0,0.0,4.0755,0.0,0.0,0.0,0.0,0.0,0.0,0.0,0.0,0.0,0.0,0.0,0.0,0.0,0.0,5.6971,5.7242,5.7147,5.7428,0.0,0.0,5.6961,5.6348,5.9803,6.0882,0.0,0.0,0.0,0.0,0.0,0.0,0.0,0.0,0.0,0.0,0.0,0.0,0.0,0.0,0.0,0.0,0.0,0.0,0.0,0.0,0.0,0.0,0.0,0.0,0.0,0.0,0.0,0.0,0.0,0.0,0.0,0.0,0.0,0.0,0.0,0.0,0.0,0.0,0.0,0.0,0.0,0.0,0.0,0.0,0.0,0.0,0.0,0.0,0.0,0.0,0.0,0.0,0.0,0.0,5.1336,5.3748,5.5965,5.7444,5.8062,5.789,5.7525,5.6936,5.3734,5.0598,0.0,0.0,0.0,0.0,0.0,0.0,0.0,0.0,0.0,0.0,0.0,0.0,0.0,0.0,0.0,0.0,0.0,0.0,0.0,0.0,0.0,0.0,0.0,0.0,0.0,0.0,0.0,0.0,0.0,0.0,0.0,0.0,0.0,0.0,0.0,0.0,0.0,0.0,0.0,0.0,0.0,0.0,5.6399,5.5483,0.0,0.0,0.0,5.5412,5.425,0.0,0.0,0.0,0.0,0.0,0.0,0.0,0.0,0.0,0.0,0.0,0.0,0.0,0.0,0.0,0.0,0.0,0.0,0.0,0.0,0.0,0.0,0.0,0.0,0.0,0.0,0.0,0.0,0.0,0.0,0.0,0.0,0.0,0.0,0.0,0.0,0.0,0.0,0.0,0.0,0.0,0.0,0.0,0.0,0.0,0.0,0.0,0.0,0.0,0.0,0.0,0.0,0.0,0.0,0.0,0.0,0.0,5.3514,5.5051,5.6568,5.8033,5.8026,5.7623,5.6946,5.393,5.0633,0.0,0.0,0.0,0.0,0.0,0.0,0.0,0.0,0.0,0.0,0.0,0.0,0.0,0.0,0.0,0.0,0.0,0.0,0.0,0.0,0.0,0.0,0.0,0.0,0.0,0.0,0.0,0.0,0.0,0.0,0.0,0.0,0.0,0.0,0.0,0.0,0.0,0.0,0.0,0.0,0.0,5.2633,5.5676,5.3481,5.2001,0.0,0.0,5.3579,5.343,5.4695,0.0,0.0,0.0,0.0,0.0,0.0,0.0,0.0,0.0,0.0,0.0,0.0,0.0,0.0,0.0,0.0,0.0,0.0,0.0,0.0,0.0,0.0,0.0,0.0,0.0,0.0,0.0,0.0,0.0,0.0,0.0,0.0,0.0,0.0,0.0,0.0,0.0,0.0,0.0,0.0,0.0,0.0,0.0,0.0,0.0,0.0,0.0,0.0,0.0,0.0,0.0,0.0,0.0,0.0,0.0,0.0,5.3514,5.5051,5.6523,5.8009,5.7516,5.713,5.6905,5.4017,5.0287,0.0,0.0,0.0,0.0,0.0,0.0,0.0,0.0,0.0,0.0,0.0,0.0,0.0,0.0,0.0,0.0,0.0,0.0,0.0,0.0,0.0,0.0,0.0,0.0,0.0,0.0,0.0,0.0,0.0,0.0,0.0,0.0,0.0,0.0,0.0,0.0,0.0,0.0,0.0,0.0,0.0,5.1129,5.2874,5.1613,0.0,0.0,0.0,0.0,5.0795,5.1202,0.0,0.0,0.0,0.0,0.0,0.0,0.0,0.0,0.0,0.0,0.0,0.0,0.0,0.0,0.0,0.0,0.0,0.0,0.0,0.0,0.0,0.0,0.0,0.0,0.0,0.0,0.0,0.0,0.0,0.0,0.0,0.0,0.0,0.0,0.0,0.0,0.0,0.0,0.0,0.0,0.0,0.0,0.0,0.0,0.0,0.0,0.0,0.0,0.0,0.0,0.0,0.0,0.0,0.0,0.0,0.0,5.1892,5.3754,5.5725,5.775,5.7462,5.7159,5.6895,5.4232,5.0332,0.0,0.0,0.0,0.0,0.0,0.0,0.0,0.0,0.0,0.0,0.0,0.0,0.0,0.0,0.0,0.0,0.0,0.0,0.0,0.0,0.0,0.0,0.0,0.0,0.0,0.0,0.0,0.0,0.0,0.0,0.0,0.0,0.0,0.0,0.0,0.0,0.0,0.0,0.0,0.0,4.9132,4.9199,5.0919,0.0,0.0,0.0,0.0,0.0,0.0,5.0497,5.042,0.0,0.0,0.0,0.0,0.0,0.0,0.0,0.0,0.0,0.0,0.0,0.0,0.0,0.0,0.0,0.0,0.0,0.0,0.0,0.0,0.0,0.0,0.0,0.0,0.0,0.0,0.0,0.0,0.0,0.0,0.0,0.0,0.0,0.0,0.0,0.0,0.0,0.0,0.0,0.0,0.0,0.0,0.0,0.0,0.0,0.0,0.0,0.0,0.0,0.0,0.0,0.0,0.0,0.0,0.0,4.9827,5.2094,5.4487,5.7096,5.7279,5.7237,5.6905,5.4026,5.0126,4.5142,0.0,0.0,0.0,0.0,0.0,0.0,0.0,0.0,0.0,0.0,0.0,0.0,0.0,0.0,0.0,0.0,0.0,0.0,0.0,0.0,0.0,0.0,0.0,0.0,0.0,0.0,0.0,0.0,0.0,0.0,0.0,0.0,0.0,0.0,0.0,0.0,0.0,0.0,0.0,4.7639,4.7233,0.0,0.0,0.0,0.0,0.0,0.0,0.0,0.0,4.9663,0.0,0.0,0.0,0.0,0.0,0.0,0.0,0.0,0.0,0.0,0.0,0.0,0.0,0.0,0.0,0.0,0.0,0.0,0.0,0.0,0.0,0.0,0.0,0.0,0.0,0.0,0.0,0.0,0.0,0.0,0.0,0.0,0.0,0.0,0.0,0.0,0.0,0.0,0.0,0.0,0.0,0.0,0.0,0.0,0.0,0.0,0.0,0.0,0.0,0.0,0.0,0.0,0.0,0.0,0.0,0.0,5.0827,5.3342,5.549,5.6215,5.6688,5.6849,5.2427,4.8214,4.4531,0.0,0.0,0.0,0.0,0.0,0.0,0.0,0.0,0.0,0.0,0.0,0.0,0.0,0.0,0.0,0.0,0.0,0.0,0.0,0.0,0.0,0.0,0.0,0.0,0.0,0.0,0.0,0.0,0.0,0.0,0.0,0.0,0.0,0.0,0.0,0.0,0.0,0.0,4.5637,4.5373,0.0,0.0,0.0,0.0,0.0,0.0,0.0,0.0,4.6881,0.0,0.0,0.0,0.0,0.0,0.0,0.0,0.0,0.0,0.0,0.0,0.0,0.0,0.0,0.0,0.0,0.0,0.0,0.0,0.0,0.0,0.0,0.0,0.0,0.0,0.0,0.0,0.0,0.0,0.0,0.0,0.0,0.0,0.0,0.0,0.0,0.0,0.0,0.0,0.0,0.0,0.0,0.0,0.0,0.0,0.0,0.0,0.0,0.0,0.0,0.0,0.0,0.0,0.0,0.0,0.0,0.0,0.0,5.2131,5.4513,5.5761,5.6476,5.6402,5.0183,4.579,0.0,0.0,0.0,0.0,0.0,0.0,0.0,0.0,0.0,0.0,0.0,0.0,0.0,0.0,0.0,0.0,0.0,0.0,0.0,0.0,0.0,0.0,0.0,0.0,0.0,0.0,0.0,0.0,0.0,0.0,0.0,0.0,0.0,0.0,0.0,0.0,0.0,0.0,0.0,0.0,0.0,0.0,0.0,0.0,0.0,0.0,0.0,0.0,0.0,0.0,0.0,0.0,0.0,0.0,0.0,0.0,0.0,0.0,0.0,0.0,0.0,0.0,0.0,0.0,0.0,0.0,0.0,0.0,0.0,0.0,0.0,0.0,0.0,0.0,0.0,0.0,0.0,0.0,0.0,0.0,0.0,0.0,0.0,0.0,0.0,0.0,0.0,0.0,0.0,0.0,0.0,0.0,0.0,0.0,0.0,0.0,0.0,0.0,0.0,0.0,0.0,0.0,0.0,0.0,0.0,0.0,0.0,0.0,5.1278,5.351,5.5256,5.6173,5.609,4.8508,4.3683,0.0,0.0,0.0,0.0,0.0,0.0,0.0,0.0,0.0,0.0,0.0,0.0,0.0,0.0,0.0,0.0,0.0,0.0,0.0,0.0,0.0,0.0,0.0,0.0,0.0,0.0,0.0,0.0,0.0,0.0,0.0,0.0,0.0,0.0,0.0,0.0,0.0,0.0,0.0,0.0,0.0,0.0,0.0,0.0,0.0,0.0,0.0,0.0,4.4255,0.0,0.0,0.0,0.0,0.0,0.0,0.0,0.0,0.0,0.0,0.0,0.0,0.0,0.0,0.0,0.0,0.0,0.0,0.0,0.0,0.0,0.0,0.0,0.0,0.0,0.0,0.0,0.0,0.0,0.0,0.0,0.0,0.0,0.0,0.0,0.0,0.0,0.0,0.0,0.0,0.0,0.0,0.0,0.0,0.0,0.0,0.0,0.0,0.0,0.0,0.0,0.0,0.0,0.0,0.0,0.0,0.0,0.0,0.0,5.1206,5.1939,5.4373,5.5621,5.5291,4.8223,4.2597,0.0,0.0,0.0,0.0,0.0,0.0,0.0,0.0,0.0,0.0,0.0,0.0,0.0,0.0,0.0,0.0,0.0,0.0,0.0,0.0,0.0,0.0,0.0,0.0,0.0,0.0,0.0,0.0,0.0,0.0,0.0,0.0,0.0,0.0,0.0,0.0,0.0,0.0,0.0,0.0,0.0,0.0,0.0,0.0,0.0,0.0,0.0,0.0,0.0,0.0,0.0,0.0,0.0,0.0,0.0,0.0,0.0,0.0,0.0,0.0,0.0,0.0,0.0,0.0,0.0,0.0,0.0,0.0,0.0,0.0,0.0,0.0,0.0,0.0,0.0,0.0,0.0,0.0,0.0,0.0,0.0,0.0,0.0,0.0,0.0,0.0,0.0,0.0,0.0,0.0,0.0,0.0,0.0,0.0,0.0,0.0,0.0,0.0,0.0,0.0,0.0,0.0,0.0,0.0,0.0,0.0,0.0,0.0,4.6779,5.0728,5.1947,5.1222,4.8498,4.3473,3.9832,0.0,0.0,0.0,0.0,0.0,0.0,0.0,0.0,0.0,0.0,0.0,0.0,0.0,0.0,0.0,0.0,0.0,0.0,0.0,0.0,0.0,0.0,0.0,0.0,0.0,0.0,0.0,0.0,0.0,0.0,0.0,0.0,0.0,0.0,0.0,0.0,0.0,0.0,0.0,0.0,0.0,0.0,0.0,0.0,0.0,0.0,0.0,0.0,0.0,0.0,0.0,0.0,0.0,0.0,0.0,0.0,0.0,0.0,0.0,0.0,0.0,0.0,0.0,0.0,0.0,0.0,0.0,0.0,0.0,0.0,0.0,0.0,0.0,0.0,0.0,0.0,0.0,0.0,0.0,0.0,0.0,0.0,0.0,0.0,0.0,0.0,0.0,0.0,0.0,0.0,0.0,0.0,0.0,0.0,0.0,0.0,0.0,0.0,0.0,0.0,0.0,0.0,0.0,0.0,0.0,0.0,0.0,0.0,0.0,4.8245,4.8107,4.6095,4.2352,3.9671,3.749,0.0,0.0,0.0,0.0,0.0,0.0,0.0,0.0,0.0,0.0,0.0,0.0,0.0,0.0,0.0,0.0,0.0,0.0,0.0,0.0,0.0,0.0,0.0,0.0,0.0,0.0,0.0,0.0,0.0,0.0,0.0,0.0,0.0,0.0,0.0,0.0,0.0,0.0,0.0,0.0,0.0,0.0,0.0,0.0,0.0,0.0,0.0,0.0,0.0,0.0,0.0,0.0,0.0,0.0,0.0,0.0,0.0,0.0,0.0,0.0,0.0,0.0,0.0,0.0,0.0,0.0,0.0,0.0,0.0,0.0,0.0,0.0,0.0,0.0,0.0,0.0,0.0,0.0,0.0,0.0,0.0,0.0,0.0,0.0,0.0,0.0,0.0,0.0,0.0,0.0,0.0,0.0,0.0,0.0,0.0,0.0,0.0,0.0,0.0,0.0,0.0,0.0,0.0,0.0,0.0,0.0,0.0,0.0,0.0,4.4271,4.2502,4.081,3.9307,3.8585,3.6126,0.0,0.0,0.0,0.0,0.0,0.0,0.0,0.0,0.0,0.0,0.0,0.0,0.0,0.0,0.0,0.0,0.0,0.0,0.0,0.0,0.0,0.0,0.0,0.0,0.0,0.0,0.0,0.0,0.0,0.0,0.0,0.0,0.0,0.0,0.0,0.0,0.0,0.0,0.0,0.0,0.0,0.0,0.0,0.0,0.0,0.0,0.0,0.0,0.0,0.0,0.0,0.0,0.0,0.0,0.0,0.0,0.0,0.0,0.0,0.0,0.0,0.0,0.0,0.0,0.0,0.0,0.0,0.0,0.0,0.0,0.0,0.0,0.0,0.0,0.0,0.0,0.0,0.0,0.0,0.0,0.0,0.0,0.0,0.0,0.0,0.0,0.0,0.0,0.0,0.0,0.0,0.0,0.0,0.0,0.0,0.0,0.0,0.0,0.0,0.0,0.0,0.0,0.0,0.0,0.0,0.0,0.0,0.0,0.0,3.9939,3.8055,3.664,3.5892,3.4432,3.2829,3.1165,0.0,0.0,0.0,0.0,0.0,0.0,0.0,0.0,0.0,0.0,0.0,0.0,0.0,0.0,0.0,0.0,0.0,0.0,0.0,0.0,0.0,0.0,0.0,0.0,0.0,0.0,0.0,0.0,0.0,0.0,0.0,0.0,0.0,0.0,0.0,0.0,0.0,0.0,0.0,0.0,0.0,0.0,0.0,0.0,0.0,0.0,0.0,0.0,0.0,0.0,0.0,0.0,0.0,0.0,0.0,0.0,0.0,0.0,0.0,0.0,0.0,0.0,0.0,0.0,0.0,0.0,0.0,0.0,0.0,0.0,0.0,0.0,0.0,0.0,0.0,0.0,0.0,0.0,0.0,0.0,0.0,0.0,0.0,0.0,0.0,0.0,0.0,0.0,0.0,0.0,0.0,0.0,0.0,0.0,0.0,0.0,0.0,0.0,0.0,0.0,0.0,0.0,0.0,0.0,0.0,0.0,0.0,0.0,3.7903,3.5757,3.4372,3.3921,3.217,3.0992,0.0,0.0,0.0,0.0,0.0,0.0,0.0,0.0,0.0,0.0,0.0,0.0,0.0,0.0,0.0,0.0,0.0,0.0,0.0,0.0,0.0,0.0,0.0,0.0,0.0,0.0,0.0,0.0,0.0,0.0,0.0,0.0,0.0,0.0,0.0,0.0,0.0,0.0,0.0,0.0,0.0,0.0,0.0,0.0,0.0,0.0,0.0,0.0,0.0,0.0,0.0,0.0,0.0,0.0,0.0,0.0,0.0,0.0,0.0,0.0,0.0,0.0,0.0,0.0,0.0,0.0,0.0,0.0,0.0,0.0,0.0,0.0,0.0,0.0,0.0,0.0,0.0,0.0,0.0,0.0,0.0,0.0,0.0,0.0,0.0,0.0,0.0,0.0,0.0,0.0,0.0,0.0,0.0,0.0,0.0,0.0,0.0,0.0,0.0,0.0,0.0,0.0,0.0,0.0,0.0,0.0,0.0,0.0,3.8136,3.8317,3.5884,3.4302,3.3789,3.2537,3.0941,0.0,0.0,0.0,0.0,0.0,0.0,0.0,0.0,0.0,0.0,0.0,0.0,0.0,0.0,0.0,0.0,0.0,0.0,0.0,0.0,0.0,0.0,0.0,0.0,0.0,0.0,0.0,0.0,0.0,0.0,0.0,0.0,0.0,0.0,0.0,0.0,0.0,0.0,0.0,0.0,0.0,0.0,0.0,0.0,0.0,0.0,0.0,0.0,0.0,0.0,0.0,0.0,0.0,0.0,0.0,0.0,0.0,0.0,0.0,0.0,0.0,0.0,0.0,0.0,0.0,0.0,0.0,0.0,0.0,0.0,0.0,0.0,0.0,0.0,0.0,0.0,0.0,0.0,0.0,0.0,0.0,0.0,0.0,0.0,0.0,0.0,0.0,0.0,0.0,0.0,0.0,0.0,0.0,0.0,0.0,0.0,0.0,0.0,0.0,0.0,0.0,0.0,0.0,0.0,0.0,0.0,0.0,0.0,0.0,3.5949,0.0,3.3651,0.0,3.1914,3.0677,0.0,0.0,0.0,0.0,0.0,0.0,0.0,0.0,0.0,0.0,0.0,0.0,0.0,0.0,0.0,0.0,0.0,0.0,0.0,0.0,0.0,0.0,0.0,0.0,0.0,0.0,0.0,0.0,0.0,0.0,0.0,0.0,0.0,0.0,0.0,0.0,0.0,0.0,0.0,0.0,0.0,0.0,0.0,0.0,0.0,0.0,0.0,0.0,0.0,0.0,0.0,0.0,0.0,0.0,0.0,0.0,0.0,0.0,0.0,0.0,0.0,0.0,0.0,0.0,0.0,0.0,0.0,0.0,0.0,0.0,0.0,0.0,0.0,0.0,0.0,0.0,0.0,0.0,0.0,0.0,0.0,0.0,0.0,0.0,0.0,0.0,0.0,0.0,0.0,0.0,0.0,0.0,0.0,0.0,0.0,0.0,0.0,0.0,0.0,0.0,0.0,0.0,0.0,0.0,0.0,0.0,0.0,0.0,0.0,3.4013,3.4024,3.3277,3.1719,3.126,3.0036,0.0,0.0,0.0,0.0,0.0,0.0,0.0,0.0,0.0,0.0,0.0,0.0,0.0,0.0,0.0,0.0,0.0,0.0,0.0,0.0,0.0,0.0,0.0,0.0,0.0,0.0,0.0,0.0,0.0,0.0,0.0,0.0,0.0,0.0,0.0,0.0,0.0,0.0,0.0,0.0,0.0,0.0,0.0,0.0,0.0,0.0,0.0,0.0,0.0,0.0,0.0,0.0,0.0,0.0,0.0,0.0,0.0,0.0,0.0,0.0,0.0,0.0,0.0,0.0,0.0,0.0,0.0,0.0,0.0,0.0,0.0,0.0,0.0,0.0,0.0,0.0,0.0,0.0,0.0,0.0,0.0,0.0,0.0,0.0,0.0,0.0,0.0,0.0,0.0,0.0,0.0,0.0,0.0,0.0,0.0,0.0,0.0,0.0,0.0,0.0,0.0,0.0,0.0,0.0,0.0,0.0,0.0,0.0,0.0,0.0,3.3249,3.3063,3.1908,3.0687,2.93,0.0,0.0,0.0,0.0,0.0,0.0,0.0,0.0,0.0,0.0,0.0,0.0,0.0,0.0,0.0,0.0,0.0,0.0,0.0,0.0,0.0,0.0,0.0,0.0,0.0,0.0,0.0,0.0,0.0,0.0,0.0,0.0,0.0,0.0,0.0,0.0,0.0,0.0,0.0,0.0,0.0,0.0,0.0,0.0,0.0,0.0,0.0,0.0,0.0,0.0,0.0,0.0,0.0,0.0,0.0,0.0,0.0,0.0,0.0,0.0,0.0,0.0,0.0,0.0,0.0,0.0,0.0,0.0,0.0,0.0,0.0,0.0,0.0,0.0,0.0,0.0,0.0,0.0,0.0,0.0,0.0,0.0,0.0,0.0,0.0,0.0,0.0,0.0,0.0,0.0,0.0,0.0,0.0,0.0,0.0,0.0,0.0,0.0,0.0,0.0,0.0,0.0,0.0,0.0,0.0,0.0,0.0,0.0,0.0,0.0,3.1029,0.0,3.1677,3.1455,3.0549,2.8805,0.0,0.0,0.0,0.0,0.0,0.0,0.0,0.0,0.0,0.0,0.0,0.0,0.0,0.0,0.0,0.0,0.0,0.0,0.0,0.0,0.0,0.0,0.0,0.0,0.0,0.0,0.0,0.0,0.0,0.0,0.0,0.0,0.0,0.0,0.0,0.0,0.0,0.0,0.0,0.0,0.0,0.0,0.0,0.0,0.0,0.0,0.0,0.0,0.0,0.0,0.0,0.0,0.0,0.0,0.0,0.0,0.0,0.0,0.0,0.0,0.0,0.0,0.0,0.0,0.0,0.0,0.0,0.0,0.0,0.0,0.0,0.0,0.0,0.0,0.0,0.0,0.0,0.0,0.0,0.0,0.0,0.0,0.0,0.0,0.0,0.0,0.0,0.0,0.0,0.0,0.0,0.0,0.0,0.0,0.0,0.0,0.0,0.0,0.0,0.0,0.0,0.0,0.0,0.0,0.0,0.0,0.0,0.0,0.0,0.0,0.0,3.0407,3.0695,3.0166,0.0,0.0,0.0,0.0,0.0,0.0,0.0,0.0,0.0,0.0,0.0,0.0,0.0,0.0,0.0,0.0,0.0,0.0,0.0,0.0,0.0,0.0,0.0,0.0,0.0,0.0,0.0,0.0,0.0,0.0,0.0,0.0,0.0,0.0,0.0,0.0,0.0,0.0,0.0,0.0,0.0,0.0,0.0,0.0,0.0,0.0,0.0,0.0,0.0,0.0,0.0,0.0,0.0,0.0,0.0,0.0,0.0,0.0,0.0,0.0,0.0,0.0,0.0,0.0,0.0,0.0,0.0,0.0,0.0,0.0,0.0,0.0,0.0,0.0,0.0,0.0,0.0,0.0,0.0,0.0,0.0,0.0,0.0,0.0,0.0,0.0,0.0,0.0,0.0,0.0,0.0,0.0,0.0,0.0,0.0,0.0,0.0,0.0,0.0,0.0,0.0,0.0,0.0,0.0,0.0,0.0,0.0,0.0,0.0,0.0,0.0,2.8657,2.8635,2.9191,0.0,2.8183,0.0,0.0,0.0,0.0,0.0,0.0,0.0,0.0,0.0,0.0,0.0,0.0,0.0,0.0,0.0,0.0,0.0,0.0,0.0,0.0,0.0,0.0,0.0,0.0,0.0,0.0,0.0,0.0,0.0,0.0,0.0,0.0,0.0,0.0,0.0,0.0,0.0,0.0,0.0,0.0,0.0,0.0,0.0,0.0,0.0,0.0,0.0,0.0,0.0,0.0,0.0,0.0,0.0,0.0,0.0,0.0,0.0,0.0,0.0,0.0,0.0,0.0,0.0,0.0,0.0,0.0,0.0,0.0,0.0,0.0,0.0,0.0,0.0,0.0,0.0,0.0,0.0,0.0,0.0,0.0,0.0,0.0,0.0,0.0,0.0,0.0,0.0,0.0,0.0,0.0,0.0,0.0,0.0,0.0,0.0,0.0,0.0,0.0,0.0,0.0,0.0,0.0,0.0,0.0,0.0,0.0,0.0,0.0,0.0,0.0,0.0,0.0,2.9784,2.978,2.9077,0.0,0.0,0.0,0.0,0.0,0.0,0.0,0.0,0.0,0.0,0.0,0.0,0.0,0.0,0.0,0.0,0.0,0.0,0.0,0.0,0.0,0.0,0.0,0.0,0.0,0.0,0.0,0.0,0.0,0.0,0.0,0.0,0.0,0.0,0.0,0.0,0.0,0.0,0.0,0.0,0.0,0.0,0.0,0.0,0.0,0.0,0.0,0.0,0.0,0.0,0.0,0.0,0.0,0.0,0.0,0.0,0.0,0.0,0.0,0.0,0.0,0.0,0.0,0.0,0.0,0.0,0.0,0.0,0.0,0.0,0.0,0.0,0.0,0.0,0.0,0.0,0.0,0.0,0.0,0.0,0.0,0.0,0.0,0.0,0.0,0.0,0.0,0.0,0.0,0.0,0.0,0.0,0.0,0.0,0.0,0.0,0.0,0.0,0.0,0.0,0.0,0.0,0.0,0.0,0.0,0.0,0.0,0.0,0.0,0.0,2.8367,2.8724,2.9477,2.9696,2.9345,0.0,0.0,0.0,0.0,0.0,0.0,0.0,0.0,0.0,0.0,0.0,0.0,0.0,0.0,0.0,0.0,0.0,0.0,0.0,0.0,0.0,0.0,0.0,0.0,0.0,0.0,0.0,0.0,0.0,0.0,0.0,0.0,0.0,0.0,0.0,0.0,0.0,0.0,0.0,0.0,0.0,0.0,0.0,0.0,0.0,0.0,0.0,0.0,0.0,0.0,0.0,0.0,0.0,0.0,0.0,0.0,0.0,0.0,0.0,0.0,0.0,0.0,0.0,0.0,0.0,0.0,0.0,0.0,0.0,0.0,0.0,0.0,0.0,0.0,0.0,0.0,0.0,0.0,0.0,0.0,0.0,0.0,0.0,0.0,0.0,0.0,0.0,0.0,0.0,0.0,0.0,0.0,0.0,0.0,0.0,0.0,0.0,0.0,0.0,0.0,0.0,0.0,0.0,0.0,0.0,0.0,0.0,0.0,0.0,0.0,0.0,0.0,0.0,0.0,2.9368,0.0,0.0,0.0,0.0,0.0,0.0,0.0,0.0,0.0,0.0,0.0,0.0,0.0,0.0,0.0,0.0,0.0,0.0,0.0,0.0,0.0,0.0,0.0,0.0,0.0,0.0,0.0,0.0,0.0,0.0,0.0,0.0,0.0,0.0,0.0,0.0,0.0,0.0,0.0,0.0,0.0,0.0,0.0,0.0,0.0,0.0,0.0,0.0,0.0,0.0,0.0,0.0,0.0,0.0,0.0,0.0,0.0,0.0,0.0,0.0,0.0,0.0,0.0,0.0,0.0,0.0,0.0,0.0,0.0,0.0,0.0,0.0,0.0,0.0,0.0,0.0,0.0,0.0,0.0,0.0,0.0,0.0,0.0,0.0,0.0,0.0,0.0,0.0,0.0,0.0,0.0,0.0,0.0,0.0,0.0,0.0,0.0,0.0,0.0,0.0,0.0,0.0,0.0,0.0,0.0,0.0,0.0,0.0,0.0,0.0,0.0,0.0,0.0,0.0,0.0,0.0,0.0,0.0,0.0,0.0,0.0,0.0,0.0,0.0,0.0,0.0,0.0,0.0,0.0,0.0,0.0,0.0,0.0,0.0,0.0,0.0,0.0,0.0,0.0,0.0,0.0,0.0,0.0,0.0,0.0,0.0,0.0,0.0,0.0,0.0,0.0,0.0,0.0,0.0,0.0,0.0,0.0,0.0,0.0,0.0,0.0,0.0,0.0,0.0,0.0,0.0,0.0,0.0,0.0,0.0,0.0,0.0,0.0,0.0,0.0,0.0,0.0,0.0,0.0,0.0,0.0,0.0,0.0,0.0,0.0,0.0,0.0,0.0,0.0,0.0,0.0,0.0,0.0,0.0,0.0,0.0,0.0,0.0,0.0,0.0,0.0,0.0,0.0,0.0,0.0,0.0,0.0,0.0,0.0,0.0,0.0,0.0,0.0,0.0,0.0,0.0,0.0,0.0,0.0,0.0,0.0,0.0,0.0,0.0,0.0,0.0,0.0,0.0,0.0,0.0,0.0,0.0,0.0,0.0,0.0,0.0,0.0,0.0,0.0,0.0,0.0,0.0,0.0,0.0,0.0,0.0,0.0,0.0,0.0,0.0,0.0,0.0,0.0,0.0,0.0,0.0,0.0,0.0,0.0,0.0,0.0,0.0,0.0,0.0,0.0,0.0,0.0,0.0,0.0,0.0,0.0,0.0,0.0,0.0,0.0,0.0,0.0,0.0,0.0,0.0,0.0,0.0,0.0,0.0,0.0,0.0,0.0,0.0,0.0,0.0,0.0,0.0,0.0,0.0,0.0,0.0,0.0,0.0,0.0,0.0,0.0,0.0,0.0,0.0,0.0,0.0,0.0,0.0,0.0,0.0,0.0,0.0,0.0,0.0,0.0,0.0,0.0,0.0,0.0,0.0,0.0,0.0,0.0,0.0,0.0,0.0,0.0,0.0,0.0,0.0,0.0,0.0,0.0,0.0,0.0,0.0,0.0,0.0,0.0,0.0,0.0,0.0,0.0,0.0,0.0,0.0,0.0,0.0,0.0,0.0,0.0,0.0,0.0,0.0,0.0,0.0,0.0,0.0,0.0,0.0,0.0,0.0,0.0,0.0,0.0,0.0,0.0,0.0,0.0,0.0,0.0,0.0,0.0,0.0,0.0,0.0,0.0,0.0,0.0,0.0,0.0,0.0,0.0,0.0,0.0,0.0,0.0,0.0,0.0,0.0,0.0,0.0,0.0,0.0,0.0,0.0,0.0,0.0,0.0,0.0,0.0,0.0,0.0,0.0,0.0,0.0,0.0,0.0,0.0,0.0,0.0,0.0,0.0,0.0,0.0,0.0,0.0,0.0,0.0,0.0,0.0,0.0,0.0,0.0,0.0,0.0,0.0,0.0,0.0,0.0,0.0,0.0,0.0,0.0,0.0,0.0,0.0,0.0,0.0,0.0,0.0,0.0,0.0,0.0,0.0,0.0,0.0,0.0,0.0,0.0,0.0,0.0,0.0,0.0,0.0,0.0,0.0,0.0,0.0,0.0,0.0,0.0,0.0,0.0,0.0,0.0,0.0,0.0,0.0,0.0,0.0,0.0,0.0,0.0,0.0,0.0,0.0,0.0,0.0,0.0,0.0,0.0,0.0,0.0,0.0,0.0,0.0,0.0,0.0,0.0,0.0,0.0,0.0,0.0,0.0,0.0,0.0,0.0,0.0,0.0,0.0,0.0,0.0,0.0,0.0,0.0,0.0,0.0,0.0,0.0,0.0,0.0,0.0,0.0,0.0,0.0,0.0,0.0,0.0,0.0,0.0,0.0,0.0,0.0,0.0,0.0,0.0,0.0,0.0,0.0,0.0,0.0,0.0,0.0,0.0,0.0,0.0,0.0,0.0,0.0,0.0,0.0,0.0,0.0,0.0,0.0,0.0,0.0,0.0,0.0,0.0,0.0,0.0,0.0,0.0,0.0,0.0,0.0,0.0,0.0,0.0,0.0,0.0,0.0,0.0,0.0,0.0,0.0,0.0,0.0,0.0,0.0,0.0,0.0,0.0,0.0,0.0,0.0,0.0,0.0,0.0,0.0,0.0,0.0,0.0,0.0,0.0,0.0,0.0,0.0,0.0,0.0,0.0,0.0,0.0,0.0,0.0,0.0,0.0,0.0,0.0,0.0,0.0,0.0,0.0,0.0,0.0,0.0,0.0,0.0,0.0,0.0,0.0,0.0,0.0,0.0,0.0,0.0,0.0,0.0,0.0,0.0,0.0,0.0,0.0,0.0,0.0,0.0,0.0,0.0,0.0,0.0,0.0,0.0,0.0,0.0,0.0,0.0,0.0,0.0,0.0,0.0,0.0,0.0,0.0,0.0,0.0,0.0,0.0,0.0,0.0,0.0,0.0,0.0,0.0,0.0,0.0,0.0,0.0,0.0,0.0,0.0,0.0,0.0,0.0,0.0,0.0,0.0,0.0,0.0,0.0,0.0,0.0,0.0,0.0,0.0,0.0,0.0,0.0,0.0,0.0,0.0,0.0,0.0,0.0,0.0,0.0,0.0,0.0,0.0,0.0,0.0,0.0,0.0,0.0,0.0,0.0,0.0,0.0,0.0,0.0,0.0,0.0,0.0,0.0,0.0,0.0,0.0,0.0,0.0,0.0,0.0,0.0,0.0,0.0,0.0,0.0,0.0,0.0,0.0,0.0,0.0,0.0,0.0,0.0,0.0,0.0,0.0,0.0,0.0,0.0,0.0,0.0,0.0,0.0,0.0,0.0,0.0,0.0,0.0,0.0,0.0,0.0,0.0,0.0,0.0,0.0,0.0,0.0,0.0,0.0,0.0,0.0,0.0,0.0,0.0,0.0,0.0,0.0,0.0,0.0,0.0,0.0,0.0,0.0,0.0,0.0,0.0,0.0,0.0,0.0,0.0,0.0,0.0,0.0,0.0,0.0,0.0,0.0,0.0,0.0,0.0,0.0,0.0,0.0,0.0,0.0,0.0,0.0,0.0,0.0,0.0,0.0,0.0,0.0,0.0,0.0,0.0,0.0,0.0,0.0,0.0,0.0,0.0,0.0,0.0,0.0,0.0,0.0,0.0,0.0,0.0,0.0,0.0,0.0,0.0,0.0,0.0,0.0,0.0,0.0,0.0,0.0,0.0,0.0,0.0,0.0,0.0,0.0,0.0,0.0,0.0,0.0,0.0,0.0,0.0,0.0,0.0,0.0,0.0,0.0,0.0,0.0,0.0,0.0,0.0,0.0,0.0,0.0,0.0,0.0,0.0,0.0,0.0,0.0,0.0,0.0,0.0,0.0,0.0,0.0,0.0,0.0,0.0,0.0,0.0,0.0,0.0,0.0,0.0,0.0,0.0,0.0,0.0,0.0,0.0,0.0,0.0,0.0,0.0,0.0,0.0,0.0,0.0,0.0,0.0,0.0,0.0,0.0,0.0,0.0,0.0,0.0,0.0,0.0,0.0,0.0,0.0,0.0,0.0,0.0,0.0,0.0,0.0,0.0,0.0,0.0,0.0,0.0,0.0,0.0,0.0,0.0,0.0,0.0,0.0,0.0,0.0,0.0,0.0,0.0,0.0,0.0,0.0,0.0,0.0,0.0,0.0,0.0,0.0,0.0,0.0,0.0,0.0,0.0,0.0,0.0,0.0,0.0,0.0,0.0,0.0,0.0,0.0,0.0,0.0,0.0,0.0,0.0,0.0,0.0,0.0,0.0,0.0,0.0,0.0,0.0,0.0,0.0,0.0,0.0,0.0,0.0,0.0,0.0,0.0,0.0,0.0,0.0,0.0,0.0,0.0,0.0,0.0,0.0,0.0,0.0,0.0,0.0,0.0,0.0,0.0,0.0,0.0,0.0,0.0,0.0,0.0]}]]]